<?xml version="1.0" encoding="UTF-8" standalone="no" ?><gpx xmlns="http://www.topografix.com/GPX/1/1" xmlns:gpxx="http://www.garmin.com/xmlschemas/GpxExtensions/v3" xmlns:wptx1="http://www.garmin.com/xmlschemas/WaypointExtension/v1" xmlns:gpxtpx="http://www.garmin.com/xmlschemas/TrackPointExtension/v1" creator="Astro 320" version="1.1" xmlns:xsi="http://www.w3.org/2001/XMLSchema-instance" xsi:schemaLocation="http://www.topografix.com/GPX/1/1 http://www.topografix.com/GPX/1/1/gpx.xsd http://www.garmin.com/xmlschemas/GpxExtensions/v3 http://www8.garmin.com/xmlschemas/GpxExtensionsv3.xsd http://www.garmin.com/xmlschemas/WaypointExtension/v1 http://www8.garmin.com/xmlschemas/WaypointExtensionv1.xsd http://www.garmin.com/xmlschemas/TrackPointExtension/v1 http://www.garmin.com/xmlschemas/TrackPointExtensionv1.xsd"><metadata><link href="http://www.garmin.com"><text>Garmin International</text></link><time>2026-09-01T17:03:19Z</time></metadata><trk><name>2026-09-01 20:03:15</name><extensions><gpxx:TrackExtension><gpxx:DisplayColor>Yellow</gpxx:DisplayColor></gpxx:TrackExtension></extensions><trkseg><trkpt lat="59.1043339949" lon="31.1806569993"><ele>45.80</ele><time>2026-08-27T18:00:42Z</time></trkpt><trkpt lat="59.1043313965" lon="31.1806450132"><ele>45.32</ele><time>2026-08-27T18:01:11Z</time></trkpt><trkpt lat="59.1043289658" lon="31.1806367151"><ele>45.32</ele><time>2026-08-27T18:01:34Z</time></trkpt><trkpt lat="59.1043264512" lon="31.1806326080"><ele>45.32</ele><time>2026-08-27T18:01:55Z</time></trkpt><trkpt lat="59.1043160576" lon="31.1806759425"><ele>45.32</ele><time>2026-08-27T18:02:09Z</time></trkpt><trkpt lat="59.1043218412" lon="31.1806527246"><ele>45.32</ele><time>2026-08-27T18:02:29Z</time></trkpt><trkpt lat="59.1043161415" lon="31.1806062888"><ele>45.32</ele><time>2026-08-27T18:03:06Z</time></trkpt><trkpt lat="59.1043335758" lon="31.1806120723"><ele>45.80</ele><time>2026-08-27T18:03:45Z</time></trkpt><trkpt lat="59.1043438017" lon="31.1806445941"><ele>45.80</ele><time>2026-08-27T18:04:17Z</time></trkpt><trkpt lat="59.1043510102" lon="31.1806440912"><ele>46.28</ele><time>2026-08-27T18:04:52Z</time></trkpt><trkpt lat="59.1043443047" lon="31.1806331947"><ele>46.28</ele><time>2026-08-27T18:05:30Z</time></trkpt><trkpt lat="59.1043458972" lon="31.1806400679"><ele>46.28</ele><time>2026-08-27T18:05:58Z</time></trkpt><trkpt lat="59.1043401975" lon="31.1806411576"><ele>46.76</ele><time>2026-08-27T18:06:26Z</time></trkpt><trkpt lat="59.1043323185" lon="31.1806286685"><ele>46.76</ele><time>2026-08-27T18:07:06Z</time></trkpt><trkpt lat="59.1043362580" lon="31.1806325242"><ele>46.76</ele><time>2026-08-27T18:07:44Z</time></trkpt><trkpt lat="59.1043293010" lon="31.1806665547"><ele>47.24</ele><time>2026-08-27T18:08:25Z</time></trkpt><trkpt lat="59.1043168120" lon="31.1806695722"><ele>47.24</ele><time>2026-08-27T18:09:04Z</time></trkpt><trkpt lat="59.1043180693" lon="31.1806671415"><ele>47.24</ele><time>2026-08-27T18:09:44Z</time></trkpt><trkpt lat="59.1043136269" lon="31.1806744337"><ele>47.24</ele><time>2026-08-27T18:10:26Z</time></trkpt><trkpt lat="59.1043148004" lon="31.1806682311"><ele>47.72</ele><time>2026-08-27T18:10:55Z</time></trkpt><trkpt lat="59.1043117829" lon="31.1806542333"><ele>47.72</ele><time>2026-08-27T18:11:30Z</time></trkpt><trkpt lat="59.1043150518" lon="31.1806532275"><ele>47.72</ele><time>2026-08-27T18:12:09Z</time></trkpt><trkpt lat="59.1043165606" lon="31.1806573346"><ele>47.72</ele><time>2026-08-27T18:12:45Z</time></trkpt><trkpt lat="59.1043109447" lon="31.1806651298"><ele>47.72</ele><time>2026-08-27T18:13:20Z</time></trkpt><trkpt lat="59.1043139622" lon="31.1806469411"><ele>48.20</ele><time>2026-08-27T18:13:59Z</time></trkpt><trkpt lat="59.1042919178" lon="31.1806409061"><ele>48.20</ele><time>2026-08-27T18:14:41Z</time></trkpt><trkpt lat="59.1042937618" lon="31.1806701589"><ele>48.20</ele><time>2026-08-27T18:15:24Z</time></trkpt><trkpt lat="59.1042938456" lon="31.1806712486"><ele>48.68</ele><time>2026-08-27T18:16:02Z</time></trkpt><trkpt lat="59.1042964440" lon="31.1806732602"><ele>48.68</ele><time>2026-08-27T18:16:35Z</time></trkpt><trkpt lat="59.1043028980" lon="31.1806803849"><ele>48.68</ele><time>2026-08-27T18:17:04Z</time></trkpt><trkpt lat="59.1042988747" lon="31.1806777027"><ele>49.16</ele><time>2026-08-27T18:17:42Z</time></trkpt><trkpt lat="59.1043006349" lon="31.1806999985"><ele>49.16</ele><time>2026-08-27T18:18:14Z</time></trkpt><trkpt lat="59.1043054126" lon="31.1807141639"><ele>49.16</ele><time>2026-08-27T18:19:00Z</time></trkpt><trkpt lat="59.1043096874" lon="31.1807159241"><ele>49.16</ele><time>2026-08-27T18:19:29Z</time></trkpt><trkpt lat="59.1043101903" lon="31.1807188578"><ele>47.72</ele><time>2026-08-27T18:19:52Z</time></trkpt><trkpt lat="59.1043131240" lon="31.1807316821"><ele>48.20</ele><time>2026-08-27T18:20:14Z</time></trkpt><trkpt lat="59.1043126211" lon="31.1807249766"><ele>48.20</ele><time>2026-08-27T18:20:43Z</time></trkpt><trkpt lat="59.1043194942" lon="31.1807361245"><ele>49.16</ele><time>2026-08-27T18:21:10Z</time></trkpt><trkpt lat="59.1043241881" lon="31.1807563249"><ele>49.16</ele><time>2026-08-27T18:21:38Z</time></trkpt><trkpt lat="59.1042976175" lon="31.1807217915"><ele>49.65</ele><time>2026-08-27T18:21:55Z</time></trkpt><trkpt lat="59.1043132078" lon="31.1806509644"><ele>49.65</ele><time>2026-08-27T18:22:12Z</time></trkpt><trkpt lat="59.1044272855" lon="31.1804854218"><ele>50.13</ele><time>2026-08-27T18:22:31Z</time></trkpt><trkpt lat="59.1044274531" lon="31.1804860923"><ele>50.61</ele><time>2026-08-27T18:22:32Z</time></trkpt><trkpt lat="59.1044814326" lon="31.1805742700"><ele>50.61</ele><time>2026-08-27T18:22:36Z</time></trkpt><trkpt lat="59.1045031417" lon="31.1806210410"><ele>50.61</ele><time>2026-08-27T18:22:37Z</time></trkpt><trkpt lat="59.1045341548" lon="31.1806806363"><ele>50.61</ele><time>2026-08-27T18:22:38Z</time></trkpt><trkpt lat="59.1051695868" lon="31.1817775760"><ele>51.09</ele><time>2026-08-27T18:22:53Z</time></trkpt><trkpt lat="59.1056543961" lon="31.1826021038"><ele>51.57</ele><time>2026-08-27T18:23:03Z</time></trkpt><trkpt lat="59.1060875729" lon="31.1832943652"><ele>51.57</ele><time>2026-08-27T18:23:12Z</time></trkpt><trkpt lat="59.1066790838" lon="31.1836062558"><ele>51.57</ele><time>2026-08-27T18:23:22Z</time></trkpt><trkpt lat="59.1076849960" lon="31.1833677068"><ele>51.57</ele><time>2026-08-27T18:23:34Z</time></trkpt><trkpt lat="59.1089072451" lon="31.1829838995"><ele>51.57</ele><time>2026-08-27T18:23:48Z</time></trkpt><trkpt lat="59.1099279933" lon="31.1827309337"><ele>51.57</ele><time>2026-08-27T18:24:01Z</time></trkpt><trkpt lat="59.1110867914" lon="31.1824373994"><ele>51.57</ele><time>2026-08-27T18:24:14Z</time></trkpt><trkpt lat="59.1123794485" lon="31.1821290292"><ele>51.57</ele><time>2026-08-27T18:24:30Z</time></trkpt><trkpt lat="59.1135269310" lon="31.1818420328"><ele>52.05</ele><time>2026-08-27T18:24:44Z</time></trkpt><trkpt lat="59.1141378880" lon="31.1818269454"><ele>51.57</ele><time>2026-08-27T18:24:50Z</time></trkpt><trkpt lat="59.1142405663" lon="31.1818723753"><ele>52.53</ele><time>2026-08-27T18:24:51Z</time></trkpt><trkpt lat="59.1143438313" lon="31.1819323059"><ele>52.05</ele><time>2026-08-27T18:24:52Z</time></trkpt><trkpt lat="59.1144446656" lon="31.1820099223"><ele>52.05</ele><time>2026-08-27T18:24:53Z</time></trkpt><trkpt lat="59.1145408060" lon="31.1820923164"><ele>52.05</ele><time>2026-08-27T18:24:54Z</time></trkpt><trkpt lat="59.1151806805" lon="31.1827514693"><ele>52.05</ele><time>2026-08-27T18:25:03Z</time></trkpt><trkpt lat="59.1162484512" lon="31.1840033066"><ele>52.05</ele><time>2026-08-27T18:25:16Z</time></trkpt><trkpt lat="59.1175292060" lon="31.1855559703"><ele>52.05</ele><time>2026-08-27T18:25:31Z</time></trkpt><trkpt lat="59.1182586830" lon="31.1864048894"><ele>52.53</ele><time>2026-08-27T18:25:39Z</time></trkpt><trkpt lat="59.1185813025" lon="31.1867334601"><ele>51.09</ele><time>2026-08-27T18:25:45Z</time></trkpt><trkpt lat="59.1192089394" lon="31.1872355361"><ele>51.09</ele><time>2026-08-27T18:25:54Z</time></trkpt><trkpt lat="59.1205213778" lon="31.1879275460"><ele>51.09</ele><time>2026-08-27T18:26:09Z</time></trkpt><trkpt lat="59.1217428725" lon="31.1883316375"><ele>52.05</ele><time>2026-08-27T18:26:20Z</time></trkpt><trkpt lat="59.1222607903" lon="31.1886090785"><ele>52.05</ele><time>2026-08-27T18:26:25Z</time></trkpt><trkpt lat="59.1223698389" lon="31.1887091585"><ele>52.05</ele><time>2026-08-27T18:26:26Z</time></trkpt><trkpt lat="59.1224690806" lon="31.1888331268"><ele>52.05</ele><time>2026-08-27T18:26:27Z</time></trkpt><trkpt lat="59.1227470245" lon="31.1892552394"><ele>52.05</ele><time>2026-08-27T18:26:30Z</time></trkpt><trkpt lat="59.1233642679" lon="31.1907255929"><ele>52.05</ele><time>2026-08-27T18:26:39Z</time></trkpt><trkpt lat="59.1239458881" lon="31.1925068311"><ele>52.05</ele><time>2026-08-27T18:26:51Z</time></trkpt><trkpt lat="59.1245316993" lon="31.1943010613"><ele>52.05</ele><time>2026-08-27T18:27:02Z</time></trkpt><trkpt lat="59.1254067700" lon="31.1964366864"><ele>52.05</ele><time>2026-08-27T18:27:17Z</time></trkpt><trkpt lat="59.1263111774" lon="31.1975407507"><ele>52.05</ele><time>2026-08-27T18:27:28Z</time></trkpt><trkpt lat="59.1274372023" lon="31.1989000440"><ele>52.05</ele><time>2026-08-27T18:27:45Z</time></trkpt><trkpt lat="59.1284341458" lon="31.2002497818"><ele>50.61</ele><time>2026-08-27T18:28:02Z</time></trkpt><trkpt lat="59.1292687319" lon="31.2013106793"><ele>50.61</ele><time>2026-08-27T18:28:15Z</time></trkpt><trkpt lat="59.1301517654" lon="31.2021782063"><ele>50.13</ele><time>2026-08-27T18:28:28Z</time></trkpt><trkpt lat="59.1310135089" lon="31.2027934380"><ele>50.13</ele><time>2026-08-27T18:28:40Z</time></trkpt><trkpt lat="59.1321003903" lon="31.2031486630"><ele>51.57</ele><time>2026-08-27T18:28:52Z</time></trkpt><trkpt lat="59.1333274171" lon="31.2030047458"><ele>51.09</ele><time>2026-08-27T18:29:05Z</time></trkpt><trkpt lat="59.1348315496" lon="31.2029746547"><ele>51.09</ele><time>2026-08-27T18:29:20Z</time></trkpt><trkpt lat="59.1361799464" lon="31.2031374313"><ele>51.09</ele><time>2026-08-27T18:29:30Z</time></trkpt><trkpt lat="59.1376143415" lon="31.2037083227"><ele>51.09</ele><time>2026-08-27T18:29:43Z</time></trkpt><trkpt lat="59.1390869580" lon="31.2043321040"><ele>51.09</ele><time>2026-08-27T18:29:57Z</time></trkpt><trkpt lat="59.1408095229" lon="31.2050438952"><ele>50.61</ele><time>2026-08-27T18:30:13Z</time></trkpt><trkpt lat="59.1419268306" lon="31.2050852180"><ele>50.61</ele><time>2026-08-27T18:30:23Z</time></trkpt><trkpt lat="59.1425679624" lon="31.2049353495"><ele>49.16</ele><time>2026-08-27T18:30:32Z</time></trkpt><trkpt lat="59.1434772313" lon="31.2046601716"><ele>49.16</ele><time>2026-08-27T18:30:40Z</time></trkpt><trkpt lat="59.1450475808" lon="31.2043267395"><ele>50.13</ele><time>2026-08-27T18:30:53Z</time></trkpt><trkpt lat="59.1451713815" lon="31.2043721694"><ele>50.13</ele><time>2026-08-27T18:30:54Z</time></trkpt><trkpt lat="59.1466862429" lon="31.2053245213"><ele>51.57</ele><time>2026-08-27T18:31:06Z</time></trkpt><trkpt lat="59.1470431443" lon="31.2056332268"><ele>51.57</ele><time>2026-08-27T18:31:09Z</time></trkpt><trkpt lat="59.1471529473" lon="31.2057768088"><ele>51.57</ele><time>2026-08-27T18:31:10Z</time></trkpt><trkpt lat="59.1484879330" lon="31.2077307142"><ele>52.05</ele><time>2026-08-27T18:31:22Z</time></trkpt><trkpt lat="59.1495173145" lon="31.2097487412"><ele>52.05</ele><time>2026-08-27T18:31:33Z</time></trkpt><trkpt lat="59.1497903969" lon="31.2105319463"><ele>48.68</ele><time>2026-08-27T18:31:39Z</time></trkpt><trkpt lat="59.1502701771" lon="31.2125911284"><ele>47.72</ele><time>2026-08-27T18:31:51Z</time></trkpt><trkpt lat="59.1502912994" lon="31.2148254085"><ele>49.16</ele><time>2026-08-27T18:32:02Z</time></trkpt><trkpt lat="59.1506289225" lon="31.2166497298"><ele>49.16</ele><time>2026-08-27T18:32:11Z</time></trkpt><trkpt lat="59.1514602397" lon="31.2196345255"><ele>49.16</ele><time>2026-08-27T18:32:26Z</time></trkpt><trkpt lat="59.1521921474" lon="31.2213838287"><ele>49.16</ele><time>2026-08-27T18:32:36Z</time></trkpt><trkpt lat="59.1532742511" lon="31.2230496481"><ele>49.16</ele><time>2026-08-27T18:32:48Z</time></trkpt><trkpt lat="59.1537165642" lon="31.2236696575"><ele>49.16</ele><time>2026-08-27T18:32:53Z</time></trkpt><trkpt lat="59.1546244081" lon="31.2252714392"><ele>49.16</ele><time>2026-08-27T18:33:04Z</time></trkpt><trkpt lat="59.1556768399" lon="31.2272194773"><ele>49.16</ele><time>2026-08-27T18:33:16Z</time></trkpt><trkpt lat="59.1565706860" lon="31.2286975421"><ele>49.16</ele><time>2026-08-27T18:33:26Z</time></trkpt><trkpt lat="59.1572418250" lon="31.2294928171"><ele>49.16</ele><time>2026-08-27T18:33:33Z</time></trkpt><trkpt lat="59.1576594952" lon="31.2300839927"><ele>49.16</ele><time>2026-08-27T18:33:38Z</time></trkpt><trkpt lat="59.1582385171" lon="31.2307863962"><ele>48.68</ele><time>2026-08-27T18:33:44Z</time></trkpt><trkpt lat="59.1587568540" lon="31.2315751333"><ele>48.68</ele><time>2026-08-27T18:33:50Z</time></trkpt><trkpt lat="59.1598575655" lon="31.2327397987"><ele>48.68</ele><time>2026-08-27T18:34:00Z</time></trkpt><trkpt lat="59.1605568677" lon="31.2333768234"><ele>48.68</ele><time>2026-08-27T18:34:07Z</time></trkpt><trkpt lat="59.1606592946" lon="31.2334613968"><ele>48.68</ele><time>2026-08-27T18:34:08Z</time></trkpt><trkpt lat="59.1607630625" lon="31.2335504126"><ele>48.68</ele><time>2026-08-27T18:34:09Z</time></trkpt><trkpt lat="59.1608672496" lon="31.2336480618"><ele>48.68</ele><time>2026-08-27T18:34:10Z</time></trkpt><trkpt lat="59.1609726101" lon="31.2337432802"><ele>48.68</ele><time>2026-08-27T18:34:11Z</time></trkpt><trkpt lat="59.1623661015" lon="31.2347559817"><ele>48.20</ele><time>2026-08-27T18:34:24Z</time></trkpt><trkpt lat="59.1635832377" lon="31.2355707865"><ele>47.24</ele><time>2026-08-27T18:34:37Z</time></trkpt><trkpt lat="59.1647315584" lon="31.2364927959"><ele>46.28</ele><time>2026-08-27T18:34:50Z</time></trkpt><trkpt lat="59.1656937171" lon="31.2366404012"><ele>45.32</ele><time>2026-08-27T18:35:01Z</time></trkpt><trkpt lat="59.1673634760" lon="31.2365957256"><ele>46.76</ele><time>2026-08-27T18:35:18Z</time></trkpt><trkpt lat="59.1686234437" lon="31.2366421614"><ele>46.76</ele><time>2026-08-27T18:35:34Z</time></trkpt><trkpt lat="59.1697026975" lon="31.2367087137"><ele>48.68</ele><time>2026-08-27T18:35:49Z</time></trkpt><trkpt lat="59.1709725559" lon="31.2368271500"><ele>49.16</ele><time>2026-08-27T18:36:02Z</time></trkpt><trkpt lat="59.1726682987" lon="31.2369583268"><ele>46.76</ele><time>2026-08-27T18:36:21Z</time></trkpt><trkpt lat="59.1744428314" lon="31.2371146493"><ele>45.80</ele><time>2026-08-27T18:36:41Z</time></trkpt><trkpt lat="59.1757110972" lon="31.2372063473"><ele>45.80</ele><time>2026-08-27T18:36:53Z</time></trkpt><trkpt lat="59.1774496716" lon="31.2373510189"><ele>47.24</ele><time>2026-08-27T18:37:08Z</time></trkpt><trkpt lat="59.1786359623" lon="31.2374573853"><ele>47.24</ele><time>2026-08-27T18:37:19Z</time></trkpt><trkpt lat="59.1794298124" lon="31.2375801802"><ele>45.32</ele><time>2026-08-27T18:37:30Z</time></trkpt><trkpt lat="59.1806591023" lon="31.2377845310"><ele>45.32</ele><time>2026-08-27T18:37:44Z</time></trkpt><trkpt lat="59.1810743418" lon="31.2378546875"><ele>45.32</ele><time>2026-08-27T18:37:49Z</time></trkpt><trkpt lat="59.1811476834" lon="31.2378866225"><ele>45.32</ele><time>2026-08-27T18:37:50Z</time></trkpt><trkpt lat="59.1815419681" lon="31.2381672487"><ele>45.32</ele><time>2026-08-27T18:37:56Z</time></trkpt><trkpt lat="59.1815988813" lon="31.2382332142"><ele>45.32</ele><time>2026-08-27T18:37:57Z</time></trkpt><trkpt lat="59.1818527691" lon="31.2386114895"><ele>44.84</ele><time>2026-08-27T18:38:05Z</time></trkpt><trkpt lat="59.1820287891" lon="31.2388502061"><ele>43.88</ele><time>2026-08-27T18:38:13Z</time></trkpt><trkpt lat="59.1827308573" lon="31.2399728782"><ele>43.88</ele><time>2026-08-27T18:38:25Z</time></trkpt><trkpt lat="59.1835859790" lon="31.2414486799"><ele>45.32</ele><time>2026-08-27T18:38:41Z</time></trkpt><trkpt lat="59.1844874527" lon="31.2431439199"><ele>45.32</ele><time>2026-08-27T18:38:54Z</time></trkpt><trkpt lat="59.1850999184" lon="31.2443575356"><ele>45.32</ele><time>2026-08-27T18:39:05Z</time></trkpt><trkpt lat="59.1861293837" lon="31.2463886384"><ele>45.32</ele><time>2026-08-27T18:39:20Z</time></trkpt><trkpt lat="59.1870779637" lon="31.2482888997"><ele>44.84</ele><time>2026-08-27T18:39:34Z</time></trkpt><trkpt lat="59.1880910844" lon="31.2499030028"><ele>44.84</ele><time>2026-08-27T18:39:49Z</time></trkpt><trkpt lat="59.1890216433" lon="31.2508084998"><ele>44.84</ele><time>2026-08-27T18:40:00Z</time></trkpt><trkpt lat="59.1902460717" lon="31.2511169538"><ele>44.36</ele><time>2026-08-27T18:40:14Z</time></trkpt><trkpt lat="59.1915576719" lon="31.2513106596"><ele>44.36</ele><time>2026-08-27T18:40:29Z</time></trkpt><trkpt lat="59.1927308869" lon="31.2523032445"><ele>44.36</ele><time>2026-08-27T18:40:41Z</time></trkpt><trkpt lat="59.1935276706" lon="31.2530173827"><ele>48.20</ele><time>2026-08-27T18:40:48Z</time></trkpt><trkpt lat="59.1948554479" lon="31.2542226166"><ele>51.57</ele><time>2026-08-27T18:40:58Z</time></trkpt><trkpt lat="59.1961346101" lon="31.2553834263"><ele>54.45</ele><time>2026-08-27T18:41:07Z</time></trkpt><trkpt lat="59.1978922114" lon="31.2569817714"><ele>56.37</ele><time>2026-08-27T18:41:20Z</time></trkpt><trkpt lat="59.1993774008" lon="31.2583197746"><ele>59.26</ele><time>2026-08-27T18:41:30Z</time></trkpt><trkpt lat="59.2001549900" lon="31.2590235192"><ele>52.53</ele><time>2026-08-27T18:41:35Z</time></trkpt><trkpt lat="59.2004611809" lon="31.2593008764"><ele>48.68</ele><time>2026-08-27T18:41:37Z</time></trkpt><trkpt lat="59.2007685453" lon="31.2595771439"><ele>45.32</ele><time>2026-08-27T18:41:39Z</time></trkpt><trkpt lat="59.2012272030" lon="31.2599824928"><ele>50.13</ele><time>2026-08-27T18:41:42Z</time></trkpt><trkpt lat="59.2027846444" lon="31.2614085898"><ele>46.76</ele><time>2026-08-27T18:41:52Z</time></trkpt><trkpt lat="59.2050391249" lon="31.2634678558"><ele>45.32</ele><time>2026-08-27T18:42:07Z</time></trkpt><trkpt lat="59.2072815355" lon="31.2660708558"><ele>45.32</ele><time>2026-08-27T18:42:23Z</time></trkpt><trkpt lat="59.2085189559" lon="31.2679018825"><ele>44.36</ele><time>2026-08-27T18:42:34Z</time></trkpt><trkpt lat="59.2087180261" lon="31.2681942433"><ele>44.36</ele><time>2026-08-27T18:42:37Z</time></trkpt><trkpt lat="59.2089890968" lon="31.2686435971"><ele>43.88</ele><time>2026-08-27T18:42:46Z</time></trkpt><trkpt lat="59.2092643585" lon="31.2692210265"><ele>43.88</ele><time>2026-08-27T18:42:54Z</time></trkpt><trkpt lat="59.2095398717" lon="31.2699140422"><ele>43.40</ele><time>2026-08-27T18:43:06Z</time></trkpt><trkpt lat="59.2097496707" lon="31.2703941576"><ele>42.92</ele><time>2026-08-27T18:43:13Z</time></trkpt><trkpt lat="59.2101117689" lon="31.2711450923"><ele>42.92</ele><time>2026-08-27T18:43:25Z</time></trkpt><trkpt lat="59.2104296107" lon="31.2717490923"><ele>42.92</ele><time>2026-08-27T18:43:37Z</time></trkpt><trkpt lat="59.2104332987" lon="31.2716895808"><ele>42.44</ele><time>2026-08-27T18:43:45Z</time></trkpt><trkpt lat="59.2104206420" lon="31.2716380320"><ele>42.44</ele><time>2026-08-27T18:43:46Z</time></trkpt><trkpt lat="59.2104027886" lon="31.2715900037"><ele>42.44</ele><time>2026-08-27T18:43:47Z</time></trkpt><trkpt lat="59.2100145388" lon="31.2707404140"><ele>42.44</ele><time>2026-08-27T18:44:01Z</time></trkpt><trkpt lat="59.2098260298" lon="31.2699085101"><ele>42.92</ele><time>2026-08-27T18:44:13Z</time></trkpt><trkpt lat="59.2098626588" lon="31.2694034167"><ele>42.92</ele><time>2026-08-27T18:44:21Z</time></trkpt><trkpt lat="59.2098766565" lon="31.2693702243"><ele>42.92</ele><time>2026-08-27T18:44:22Z</time></trkpt><trkpt lat="59.2099042330" lon="31.2693526223"><ele>42.92</ele><time>2026-08-27T18:44:23Z</time></trkpt><trkpt lat="59.2099363357" lon="31.2693370320"><ele>42.92</ele><time>2026-08-27T18:44:24Z</time></trkpt><trkpt lat="59.2099697795" lon="31.2693233695"><ele>42.92</ele><time>2026-08-27T18:44:25Z</time></trkpt><trkpt lat="59.2103867792" lon="31.2693856470"><ele>42.92</ele><time>2026-08-27T18:44:35Z</time></trkpt><trkpt lat="59.2104591988" lon="31.2694469187"><ele>42.92</ele><time>2026-08-27T18:44:36Z</time></trkpt><trkpt lat="59.2105446942" lon="31.2695282232"><ele>42.92</ele><time>2026-08-27T18:44:37Z</time></trkpt><trkpt lat="59.2118178215" lon="31.2707750313"><ele>43.88</ele><time>2026-08-27T18:44:52Z</time></trkpt><trkpt lat="59.2131761927" lon="31.2720043212"><ele>43.88</ele><time>2026-08-27T18:45:07Z</time></trkpt><trkpt lat="59.2145965062" lon="31.2732393108"><ele>44.36</ele><time>2026-08-27T18:45:23Z</time></trkpt><trkpt lat="59.2150166910" lon="31.2735319231"><ele>44.36</ele><time>2026-08-27T18:45:28Z</time></trkpt><trkpt lat="59.2153290845" lon="31.2736092880"><ele>44.36</ele><time>2026-08-27T18:45:32Z</time></trkpt><trkpt lat="59.2154070362" lon="31.2735847291"><ele>44.36</ele><time>2026-08-27T18:45:33Z</time></trkpt><trkpt lat="59.2154874187" lon="31.2735370360"><ele>44.36</ele><time>2026-08-27T18:45:34Z</time></trkpt><trkpt lat="59.2155911867" lon="31.2734483555"><ele>44.36</ele><time>2026-08-27T18:45:35Z</time></trkpt><trkpt lat="59.2156830523" lon="31.2733609322"><ele>44.36</ele><time>2026-08-27T18:45:36Z</time></trkpt><trkpt lat="59.2157709785" lon="31.2732580025"><ele>44.36</ele><time>2026-08-27T18:45:37Z</time></trkpt><trkpt lat="59.2158535402" lon="31.2731321901"><ele>44.36</ele><time>2026-08-27T18:45:38Z</time></trkpt><trkpt lat="59.2159320787" lon="31.2729810644"><ele>44.36</ele><time>2026-08-27T18:45:39Z</time></trkpt><trkpt lat="59.2160075996" lon="31.2728104088"><ele>44.36</ele><time>2026-08-27T18:45:40Z</time></trkpt><trkpt lat="59.2160779238" lon="31.2726261746"><ele>44.36</ele><time>2026-08-27T18:45:41Z</time></trkpt><trkpt lat="59.2170700058" lon="31.2697806023"><ele>44.36</ele><time>2026-08-27T18:45:56Z</time></trkpt><trkpt lat="59.2176674679" lon="31.2678686902"><ele>45.32</ele><time>2026-08-27T18:46:06Z</time></trkpt><trkpt lat="59.2186557781" lon="31.2647396419"><ele>45.80</ele><time>2026-08-27T18:46:23Z</time></trkpt><trkpt lat="59.2188887950" lon="31.2643339578"><ele>45.80</ele><time>2026-08-27T18:46:25Z</time></trkpt><trkpt lat="59.2189753801" lon="31.2641960755"><ele>46.28</ele><time>2026-08-27T18:46:26Z</time></trkpt><trkpt lat="59.2191492207" lon="31.2639568560"><ele>46.28</ele><time>2026-08-27T18:46:28Z</time></trkpt><trkpt lat="59.2192510609" lon="31.2638654094"><ele>46.28</ele><time>2026-08-27T18:46:29Z</time></trkpt><trkpt lat="59.2193605285" lon="31.2637969293"><ele>46.28</ele><time>2026-08-27T18:46:30Z</time></trkpt><trkpt lat="59.2194745224" lon="31.2637364957"><ele>46.28</ele><time>2026-08-27T18:46:31Z</time></trkpt><trkpt lat="59.2195880972" lon="31.2636947539"><ele>46.76</ele><time>2026-08-27T18:46:32Z</time></trkpt><trkpt lat="59.2197027616" lon="31.2636706978"><ele>46.76</ele><time>2026-08-27T18:46:33Z</time></trkpt><trkpt lat="59.2198140733" lon="31.2636570353"><ele>46.76</ele><time>2026-08-27T18:46:34Z</time></trkpt><trkpt lat="59.2205355875" lon="31.2636706140"><ele>46.76</ele><time>2026-08-27T18:46:42Z</time></trkpt><trkpt lat="59.2207539361" lon="31.2636773195"><ele>46.76</ele><time>2026-08-27T18:46:46Z</time></trkpt><trkpt lat="59.2208098434" lon="31.2636730447"><ele>46.76</ele><time>2026-08-27T18:46:47Z</time></trkpt><trkpt lat="59.2217162624" lon="31.2636420317"><ele>47.72</ele><time>2026-08-27T18:46:58Z</time></trkpt><trkpt lat="59.2228831910" lon="31.2635515071"><ele>48.20</ele><time>2026-08-27T18:47:09Z</time></trkpt><trkpt lat="59.2245268822" lon="31.2634323165"><ele>48.20</ele><time>2026-08-27T18:47:22Z</time></trkpt><trkpt lat="59.2257562559" lon="31.2633529399"><ele>48.20</ele><time>2026-08-27T18:47:33Z</time></trkpt><trkpt lat="59.2269833665" lon="31.2632614933"><ele>48.20</ele><time>2026-08-27T18:47:43Z</time></trkpt><trkpt lat="59.2281767819" lon="31.2632007245"><ele>48.20</ele><time>2026-08-27T18:47:53Z</time></trkpt><trkpt lat="59.2292924132" lon="31.2631320767"><ele>48.20</ele><time>2026-08-27T18:48:03Z</time></trkpt><trkpt lat="59.2302264087" lon="31.2632854655"><ele>46.76</ele><time>2026-08-27T18:48:16Z</time></trkpt><trkpt lat="59.2304714117" lon="31.2634766567"><ele>46.76</ele><time>2026-08-27T18:48:19Z</time></trkpt><trkpt lat="59.2305600923" lon="31.2635765690"><ele>46.76</ele><time>2026-08-27T18:48:20Z</time></trkpt><trkpt lat="59.2306483537" lon="31.2637179717"><ele>47.24</ele><time>2026-08-27T18:48:21Z</time></trkpt><trkpt lat="59.2312371824" lon="31.2651509419"><ele>46.28</ele><time>2026-08-27T18:48:32Z</time></trkpt><trkpt lat="59.2319824174" lon="31.2660290301"><ele>45.32</ele><time>2026-08-27T18:48:42Z</time></trkpt><trkpt lat="59.2329727393" lon="31.2665575929"><ele>44.84</ele><time>2026-08-27T18:48:52Z</time></trkpt><trkpt lat="59.2330742441" lon="31.2665549107"><ele>44.84</ele><time>2026-08-27T18:48:53Z</time></trkpt><trkpt lat="59.2340817489" lon="31.2661677506"><ele>44.36</ele><time>2026-08-27T18:49:03Z</time></trkpt><trkpt lat="59.2351148184" lon="31.2653341703"><ele>43.88</ele><time>2026-08-27T18:49:16Z</time></trkpt><trkpt lat="59.2359743826" lon="31.2649070285"><ele>43.88</ele><time>2026-08-27T18:49:28Z</time></trkpt><trkpt lat="59.2369082943" lon="31.2648159172"><ele>45.32</ele><time>2026-08-27T18:49:42Z</time></trkpt><trkpt lat="59.2373327538" lon="31.2646541465"><ele>45.32</ele><time>2026-08-27T18:49:48Z</time></trkpt><trkpt lat="59.2374765035" lon="31.2645378057"><ele>45.32</ele><time>2026-08-27T18:49:50Z</time></trkpt><trkpt lat="59.2375448998" lon="31.2644606922"><ele>45.32</ele><time>2026-08-27T18:49:51Z</time></trkpt><trkpt lat="59.2376129609" lon="31.2643655576"><ele>45.32</ele><time>2026-08-27T18:49:52Z</time></trkpt><trkpt lat="59.2376817763" lon="31.2642484624"><ele>45.32</ele><time>2026-08-27T18:49:53Z</time></trkpt><trkpt lat="59.2377293017" lon="31.2641585246"><ele>45.32</ele><time>2026-08-27T18:49:54Z</time></trkpt><trkpt lat="59.2381095886" lon="31.2633810192"><ele>45.32</ele><time>2026-08-27T18:50:01Z</time></trkpt><trkpt lat="59.2384317890" lon="31.2624093890"><ele>44.36</ele><time>2026-08-27T18:50:09Z</time></trkpt><trkpt lat="59.2392479349" lon="31.2603754364"><ele>44.36</ele><time>2026-08-27T18:50:23Z</time></trkpt><trkpt lat="59.2396977078" lon="31.2596988492"><ele>45.32</ele><time>2026-08-27T18:50:28Z</time></trkpt><trkpt lat="59.2398080137" lon="31.2595919799"><ele>45.32</ele><time>2026-08-27T18:50:29Z</time></trkpt><trkpt lat="59.2399282102" lon="31.2594958395"><ele>45.32</ele><time>2026-08-27T18:50:30Z</time></trkpt><trkpt lat="59.2411590088" lon="31.2587236147"><ele>45.80</ele><time>2026-08-27T18:50:40Z</time></trkpt><trkpt lat="59.2423929088" lon="31.2580062076"><ele>46.28</ele><time>2026-08-27T18:50:50Z</time></trkpt><trkpt lat="59.2435206939" lon="31.2576789781"><ele>46.76</ele><time>2026-08-27T18:50:58Z</time></trkpt><trkpt lat="59.2445871234" lon="31.2574207317"><ele>46.76</ele><time>2026-08-27T18:51:06Z</time></trkpt><trkpt lat="59.2448172905" lon="31.2572042271"><ele>45.80</ele><time>2026-08-27T18:51:08Z</time></trkpt><trkpt lat="59.2449264228" lon="31.2570687756"><ele>45.32</ele><time>2026-08-27T18:51:09Z</time></trkpt><trkpt lat="59.2450216413" lon="31.2568661012"><ele>45.80</ele><time>2026-08-27T18:51:10Z</time></trkpt><trkpt lat="59.2457247153" lon="31.2551432010"><ele>44.84</ele><time>2026-08-27T18:51:18Z</time></trkpt><trkpt lat="59.2458280642" lon="31.2550081685"><ele>44.84</ele><time>2026-08-27T18:51:19Z</time></trkpt><trkpt lat="59.2459340952" lon="31.2549033109"><ele>44.36</ele><time>2026-08-27T18:51:20Z</time></trkpt><trkpt lat="59.2461670283" lon="31.2547376007"><ele>44.36</ele><time>2026-08-27T18:51:22Z</time></trkpt><trkpt lat="59.2472135928" lon="31.2542501930"><ele>44.36</ele><time>2026-08-27T18:51:30Z</time></trkpt><trkpt lat="59.2484579701" lon="31.2538359594"><ele>44.36</ele><time>2026-08-27T18:51:39Z</time></trkpt><trkpt lat="59.2485930026" lon="31.2538592611"><ele>44.36</ele><time>2026-08-27T18:51:40Z</time></trkpt><trkpt lat="59.2490083259" lon="31.2540205289"><ele>44.36</ele><time>2026-08-27T18:51:43Z</time></trkpt><trkpt lat="59.2503174953" lon="31.2550138682"><ele>45.80</ele><time>2026-08-27T18:51:53Z</time></trkpt><trkpt lat="59.2517375574" lon="31.2559072115"><ele>46.28</ele><time>2026-08-27T18:52:04Z</time></trkpt><trkpt lat="59.2531434540" lon="31.2559574191"><ele>46.76</ele><time>2026-08-27T18:52:14Z</time></trkpt><trkpt lat="59.2532765586" lon="31.2558969855"><ele>46.76</ele><time>2026-08-27T18:52:15Z</time></trkpt><trkpt lat="59.2533984315" lon="31.2558060419"><ele>46.76</ele><time>2026-08-27T18:52:16Z</time></trkpt><trkpt lat="59.2535062227" lon="31.2556937244"><ele>46.76</ele><time>2026-08-27T18:52:17Z</time></trkpt><trkpt lat="59.2536035366" lon="31.2555773836"><ele>46.76</ele><time>2026-08-27T18:52:18Z</time></trkpt><trkpt lat="59.2536918819" lon="31.2554493081"><ele>46.76</ele><time>2026-08-27T18:52:19Z</time></trkpt><trkpt lat="59.2537719291" lon="31.2553005293"><ele>46.76</ele><time>2026-08-27T18:52:20Z</time></trkpt><trkpt lat="59.2546345945" lon="31.2532497291"><ele>46.76</ele><time>2026-08-27T18:52:31Z</time></trkpt><trkpt lat="59.2553405184" lon="31.2515677325"><ele>45.80</ele><time>2026-08-27T18:52:41Z</time></trkpt><trkpt lat="59.2557663191" lon="31.2506379280"><ele>44.84</ele><time>2026-08-27T18:52:50Z</time></trkpt><trkpt lat="59.2565186787" lon="31.2493284233"><ele>44.36</ele><time>2026-08-27T18:53:01Z</time></trkpt><trkpt lat="59.2569776718" lon="31.2487197295"><ele>44.36</ele><time>2026-08-27T18:53:07Z</time></trkpt><trkpt lat="59.2573372554" lon="31.2484547775"><ele>44.36</ele><time>2026-08-27T18:53:11Z</time></trkpt><trkpt lat="59.2574307136" lon="31.2484210823"><ele>44.84</ele><time>2026-08-27T18:53:12Z</time></trkpt><trkpt lat="59.2587207723" lon="31.2480662763"><ele>43.88</ele><time>2026-08-27T18:53:25Z</time></trkpt><trkpt lat="59.2593787517" lon="31.2478532922"><ele>43.40</ele><time>2026-08-27T18:53:34Z</time></trkpt><trkpt lat="59.2602089792" lon="31.2474959716"><ele>43.40</ele><time>2026-08-27T18:53:45Z</time></trkpt><trkpt lat="59.2610661127" lon="31.2470420077"><ele>43.88</ele><time>2026-08-27T18:53:56Z</time></trkpt><trkpt lat="59.2620436102" lon="31.2464211602"><ele>43.88</ele><time>2026-08-27T18:54:06Z</time></trkpt><trkpt lat="59.2621234059" lon="31.2463690247"><ele>43.88</ele><time>2026-08-27T18:54:07Z</time></trkpt><trkpt lat="59.2621937301" lon="31.2463111058"><ele>43.88</ele><time>2026-08-27T18:54:08Z</time></trkpt><trkpt lat="59.2624104023" lon="31.2461248599"><ele>43.88</ele><time>2026-08-27T18:54:12Z</time></trkpt><trkpt lat="59.2628614325" lon="31.2458765041"><ele>43.88</ele><time>2026-08-27T18:54:23Z</time></trkpt><trkpt lat="59.2633487564" lon="31.2455719057"><ele>43.88</ele><time>2026-08-27T18:54:34Z</time></trkpt><trkpt lat="59.2636653408" lon="31.2452734262"><ele>43.88</ele><time>2026-08-27T18:54:42Z</time></trkpt><trkpt lat="59.2640930694" lon="31.2447704282"><ele>43.88</ele><time>2026-08-27T18:54:50Z</time></trkpt><trkpt lat="59.2646927107" lon="31.2433789484"><ele>43.40</ele><time>2026-08-27T18:55:00Z</time></trkpt><trkpt lat="59.2650812957" lon="31.2412858196"><ele>42.92</ele><time>2026-08-27T18:55:13Z</time></trkpt><trkpt lat="59.2652056832" lon="31.2393981311"><ele>42.92</ele><time>2026-08-27T18:55:26Z</time></trkpt><trkpt lat="59.2651371192" lon="31.2373344228"><ele>42.92</ele><time>2026-08-27T18:55:40Z</time></trkpt><trkpt lat="59.2650854029" lon="31.2370625138"><ele>42.92</ele><time>2026-08-27T18:55:42Z</time></trkpt><trkpt lat="59.2650587484" lon="31.2369535491"><ele>42.92</ele><time>2026-08-27T18:55:43Z</time></trkpt><trkpt lat="59.2650310881" lon="31.2368657906"><ele>42.92</ele><time>2026-08-27T18:55:44Z</time></trkpt><trkpt lat="59.2647167668" lon="31.2359506544"><ele>43.88</ele><time>2026-08-27T18:55:55Z</time></trkpt><trkpt lat="59.2646184471" lon="31.2356191501"><ele>44.36</ele><time>2026-08-27T18:55:58Z</time></trkpt><trkpt lat="59.2645022739" lon="31.2341615371"><ele>45.32</ele><time>2026-08-27T18:56:09Z</time></trkpt><trkpt lat="59.2646041978" lon="31.2323263194"><ele>47.24</ele><time>2026-08-27T18:56:22Z</time></trkpt><trkpt lat="59.2647083011" lon="31.2311699521"><ele>47.72</ele><time>2026-08-27T18:56:32Z</time></trkpt><trkpt lat="59.2647567485" lon="31.2304512039"><ele>47.72</ele><time>2026-08-27T18:56:42Z</time></trkpt><trkpt lat="59.2647580896" lon="31.2303538062"><ele>47.72</ele><time>2026-08-27T18:56:43Z</time></trkpt><trkpt lat="59.2648102250" lon="31.2287606578"><ele>47.24</ele><time>2026-08-27T18:56:57Z</time></trkpt><trkpt lat="59.2647323571" lon="31.2272569444"><ele>47.72</ele><time>2026-08-27T18:57:09Z</time></trkpt><trkpt lat="59.2647408228" lon="31.2263488490"><ele>47.72</ele><time>2026-08-27T18:57:15Z</time></trkpt><trkpt lat="59.2648683116" lon="31.2249228358"><ele>48.20</ele><time>2026-08-27T18:57:26Z</time></trkpt><trkpt lat="59.2649001628" lon="31.2246829458"><ele>48.20</ele><time>2026-08-27T18:57:29Z</time></trkpt><trkpt lat="59.2650502827" lon="31.2233183719"><ele>48.20</ele><time>2026-08-27T18:57:41Z</time></trkpt><trkpt lat="59.2654763348" lon="31.2215642910"><ele>49.16</ele><time>2026-08-27T18:57:51Z</time></trkpt><trkpt lat="59.2656425480" lon="31.2210167013"><ele>48.68</ele><time>2026-08-27T18:57:54Z</time></trkpt><trkpt lat="59.2660494056" lon="31.2197599187"><ele>48.68</ele><time>2026-08-27T18:58:02Z</time></trkpt><trkpt lat="59.2662928998" lon="31.2192303501"><ele>48.68</ele><time>2026-08-27T18:58:05Z</time></trkpt><trkpt lat="59.2663814966" lon="31.2190762069"><ele>48.68</ele><time>2026-08-27T18:58:06Z</time></trkpt><trkpt lat="59.2671268154" lon="31.2179188337"><ele>48.68</ele><time>2026-08-27T18:58:16Z</time></trkpt><trkpt lat="59.2680194043" lon="31.2164634839"><ele>48.68</ele><time>2026-08-27T18:58:29Z</time></trkpt><trkpt lat="59.2683270201" lon="31.2159436382"><ele>48.68</ele><time>2026-08-27T18:58:33Z</time></trkpt><trkpt lat="59.2691801302" lon="31.2146097422"><ele>48.68</ele><time>2026-08-27T18:58:46Z</time></trkpt><trkpt lat="59.2700953502" lon="31.2132367864"><ele>48.20</ele><time>2026-08-27T18:59:00Z</time></trkpt><trkpt lat="59.2704514135" lon="31.2128458545"><ele>48.20</ele><time>2026-08-27T18:59:04Z</time></trkpt><trkpt lat="59.2705580313" lon="31.2127721775"><ele>48.20</ele><time>2026-08-27T18:59:05Z</time></trkpt><trkpt lat="59.2713854928" lon="31.2123506516"><ele>48.20</ele><time>2026-08-27T18:59:14Z</time></trkpt><trkpt lat="59.2724976875" lon="31.2119453866"><ele>48.20</ele><time>2026-08-27T18:59:27Z</time></trkpt><trkpt lat="59.2725825962" lon="31.2119585462"><ele>48.20</ele><time>2026-08-27T18:59:28Z</time></trkpt><trkpt lat="59.2726687621" lon="31.2119835243"><ele>47.72</ele><time>2026-08-27T18:59:29Z</time></trkpt><trkpt lat="59.2727578618" lon="31.2120248470"><ele>47.72</ele><time>2026-08-27T18:59:30Z</time></trkpt><trkpt lat="59.2728496436" lon="31.2120968476"><ele>47.72</ele><time>2026-08-27T18:59:31Z</time></trkpt><trkpt lat="59.2729395814" lon="31.2121799961"><ele>47.72</ele><time>2026-08-27T18:59:32Z</time></trkpt><trkpt lat="59.2736736685" lon="31.2130813021"><ele>47.72</ele><time>2026-08-27T18:59:41Z</time></trkpt><trkpt lat="59.2739594914" lon="31.2133429851"><ele>47.72</ele><time>2026-08-27T18:59:45Z</time></trkpt><trkpt lat="59.2740376946" lon="31.2133804522"><ele>47.72</ele><time>2026-08-27T18:59:46Z</time></trkpt><trkpt lat="59.2750447802" lon="31.2132965494"><ele>47.72</ele><time>2026-08-27T18:59:57Z</time></trkpt><trkpt lat="59.2761122994" lon="31.2123224046"><ele>47.72</ele><time>2026-08-27T19:00:08Z</time></trkpt><trkpt lat="59.2771730293" lon="31.2112243753"><ele>47.72</ele><time>2026-08-27T19:00:20Z</time></trkpt><trkpt lat="59.2780434899" lon="31.2107237242"><ele>47.72</ele><time>2026-08-27T19:00:31Z</time></trkpt><trkpt lat="59.2789392639" lon="31.2106575910"><ele>46.28</ele><time>2026-08-27T19:00:44Z</time></trkpt><trkpt lat="59.2798169330" lon="31.2105441000"><ele>46.28</ele><time>2026-08-27T19:00:58Z</time></trkpt><trkpt lat="59.2807642557" lon="31.2108522188"><ele>45.32</ele><time>2026-08-27T19:01:12Z</time></trkpt><trkpt lat="59.2820008378" lon="31.2114884891"><ele>44.84</ele><time>2026-08-27T19:01:30Z</time></trkpt><trkpt lat="59.2829704564" lon="31.2119924091"><ele>44.84</ele><time>2026-08-27T19:01:45Z</time></trkpt><trkpt lat="59.2838630453" lon="31.2127389014"><ele>44.84</ele><time>2026-08-27T19:01:57Z</time></trkpt><trkpt lat="59.2847982980" lon="31.2138538621"><ele>46.28</ele><time>2026-08-27T19:02:07Z</time></trkpt><trkpt lat="59.2861127481" lon="31.2150650471"><ele>47.24</ele><time>2026-08-27T19:02:18Z</time></trkpt><trkpt lat="59.2875503283" lon="31.2152800430"><ele>47.24</ele><time>2026-08-27T19:02:29Z</time></trkpt><trkpt lat="59.2879216466" lon="31.2151904404"><ele>47.24</ele><time>2026-08-27T19:02:32Z</time></trkpt><trkpt lat="59.2880401667" lon="31.2151103094"><ele>47.24</ele><time>2026-08-27T19:02:33Z</time></trkpt><trkpt lat="59.2881560884" lon="31.2150129117"><ele>47.24</ele><time>2026-08-27T19:02:34Z</time></trkpt><trkpt lat="59.2895583808" lon="31.2132416479"><ele>47.24</ele><time>2026-08-27T19:02:47Z</time></trkpt><trkpt lat="59.2911805306" lon="31.2110327650"><ele>47.24</ele><time>2026-08-27T19:03:02Z</time></trkpt><trkpt lat="59.2913769186" lon="31.2107170187"><ele>47.24</ele><time>2026-08-27T19:03:04Z</time></trkpt><trkpt lat="59.2914573010" lon="31.2105311081"><ele>47.24</ele><time>2026-08-27T19:03:05Z</time></trkpt><trkpt lat="59.2915343307" lon="31.2103245780"><ele>47.24</ele><time>2026-08-27T19:03:06Z</time></trkpt><trkpt lat="59.2922466248" lon="31.2078343146"><ele>47.24</ele><time>2026-08-27T19:03:17Z</time></trkpt><trkpt lat="59.2923709285" lon="31.2073807698"><ele>43.88</ele><time>2026-08-27T19:03:19Z</time></trkpt><trkpt lat="59.2925606109" lon="31.2066983990"><ele>40.51</ele><time>2026-08-27T19:03:22Z</time></trkpt><trkpt lat="59.2932729051" lon="31.2041708361"><ele>40.51</ele><time>2026-08-27T19:03:35Z</time></trkpt><trkpt lat="59.2933918443" lon="31.2038555089"><ele>40.51</ele><time>2026-08-27T19:03:42Z</time></trkpt><trkpt lat="59.2934816144" lon="31.2037529144"><ele>40.51</ele><time>2026-08-27T19:03:45Z</time></trkpt><trkpt lat="59.2935369350" lon="31.2037042994"><ele>40.51</ele><time>2026-08-27T19:03:46Z</time></trkpt><trkpt lat="59.2935972009" lon="31.2036659941"><ele>40.51</ele><time>2026-08-27T19:03:47Z</time></trkpt><trkpt lat="59.2936712131" lon="31.2036407646"><ele>40.51</ele><time>2026-08-27T19:03:48Z</time></trkpt><trkpt lat="59.2937486619" lon="31.2036308739"><ele>40.51</ele><time>2026-08-27T19:03:49Z</time></trkpt><trkpt lat="59.2938396055" lon="31.2036369927"><ele>40.51</ele><time>2026-08-27T19:03:50Z</time></trkpt><trkpt lat="59.2939312197" lon="31.2036624737"><ele>40.51</ele><time>2026-08-27T19:03:51Z</time></trkpt><trkpt lat="59.2940250132" lon="31.2037105858"><ele>40.51</ele><time>2026-08-27T19:03:52Z</time></trkpt><trkpt lat="59.2941185553" lon="31.2037807424"><ele>40.51</ele><time>2026-08-27T19:03:53Z</time></trkpt><trkpt lat="59.2942146957" lon="31.2038678303"><ele>39.55</ele><time>2026-08-27T19:03:54Z</time></trkpt><trkpt lat="59.2943123449" lon="31.2039814051"><ele>39.55</ele><time>2026-08-27T19:03:55Z</time></trkpt><trkpt lat="59.2955683731" lon="31.2058667466"><ele>38.59</ele><time>2026-08-27T19:04:07Z</time></trkpt><trkpt lat="59.2971600965" lon="31.2079416029"><ele>41.95</ele><time>2026-08-27T19:04:22Z</time></trkpt><trkpt lat="59.2985010333" lon="31.2085492071"><ele>41.95</ele><time>2026-08-27T19:04:32Z</time></trkpt><trkpt lat="59.2995855678" lon="31.2085979059"><ele>40.51</ele><time>2026-08-27T19:04:39Z</time></trkpt><trkpt lat="59.3018254638" lon="31.2079508230"><ele>38.11</ele><time>2026-08-27T19:04:53Z</time></trkpt><trkpt lat="59.3036699016" lon="31.2071276363"><ele>41.47</ele><time>2026-08-27T19:05:06Z</time></trkpt><trkpt lat="59.3050916400" lon="31.2069048453"><ele>42.44</ele><time>2026-08-27T19:05:15Z</time></trkpt><trkpt lat="59.3057549838" lon="31.2068556435"><ele>40.99</ele><time>2026-08-27T19:05:19Z</time></trkpt><trkpt lat="59.3074585218" lon="31.2063202076"><ele>40.03</ele><time>2026-08-27T19:05:30Z</time></trkpt><trkpt lat="59.3077580072" lon="31.2062525656"><ele>40.03</ele><time>2026-08-27T19:05:32Z</time></trkpt><trkpt lat="59.3079065345" lon="31.2062565051"><ele>39.07</ele><time>2026-08-27T19:05:33Z</time></trkpt><trkpt lat="59.3080540560" lon="31.2062850036"><ele>39.55</ele><time>2026-08-27T19:05:34Z</time></trkpt><trkpt lat="59.3089071661" lon="31.2067174260"><ele>40.99</ele><time>2026-08-27T19:05:40Z</time></trkpt><trkpt lat="59.3090401869" lon="31.2068491057"><ele>41.95</ele><time>2026-08-27T19:05:41Z</time></trkpt><trkpt lat="59.3091618922" lon="31.2070091162"><ele>42.44</ele><time>2026-08-27T19:05:42Z</time></trkpt><trkpt lat="59.3093861081" lon="31.2073746510"><ele>43.40</ele><time>2026-08-27T19:05:44Z</time></trkpt><trkpt lat="59.3101224583" lon="31.2092093658"><ele>46.28</ele><time>2026-08-27T19:05:52Z</time></trkpt><trkpt lat="59.3109557033" lon="31.2120577879"><ele>46.28</ele><time>2026-08-27T19:06:03Z</time></trkpt><trkpt lat="59.3118882738" lon="31.2142121885"><ele>46.28</ele><time>2026-08-27T19:06:12Z</time></trkpt><trkpt lat="59.3133070786" lon="31.2164565269"><ele>46.28</ele><time>2026-08-27T19:06:23Z</time></trkpt><trkpt lat="59.3149411306" lon="31.2187312916"><ele>46.28</ele><time>2026-08-27T19:06:36Z</time></trkpt><trkpt lat="59.3165175151" lon="31.2204250228"><ele>46.28</ele><time>2026-08-27T19:06:48Z</time></trkpt><trkpt lat="59.3179882038" lon="31.2208145298"><ele>44.84</ele><time>2026-08-27T19:06:59Z</time></trkpt><trkpt lat="59.3195538595" lon="31.2212830782"><ele>44.84</ele><time>2026-08-27T19:07:12Z</time></trkpt><trkpt lat="59.3205250707" lon="31.2221656088"><ele>44.36</ele><time>2026-08-27T19:07:21Z</time></trkpt><trkpt lat="59.3218120281" lon="31.2239980604"><ele>44.36</ele><time>2026-08-27T19:07:34Z</time></trkpt><trkpt lat="59.3225763738" lon="31.2250118516"><ele>45.80</ele><time>2026-08-27T19:07:41Z</time></trkpt><trkpt lat="59.3226969056" lon="31.2251096684"><ele>45.32</ele><time>2026-08-27T19:07:42Z</time></trkpt><trkpt lat="59.3228324410" lon="31.2251701020"><ele>45.80</ele><time>2026-08-27T19:07:43Z</time></trkpt><trkpt lat="59.3229678087" lon="31.2252182141"><ele>45.80</ele><time>2026-08-27T19:07:44Z</time></trkpt><trkpt lat="59.3231057748" lon="31.2252575252"><ele>45.80</ele><time>2026-08-27T19:07:45Z</time></trkpt><trkpt lat="59.3248265795" lon="31.2255837489"><ele>46.28</ele><time>2026-08-27T19:07:58Z</time></trkpt><trkpt lat="59.3269976601" lon="31.2260971405"><ele>46.76</ele><time>2026-08-27T19:08:14Z</time></trkpt><trkpt lat="59.3289777171" lon="31.2270609755"><ele>45.80</ele><time>2026-08-27T19:08:27Z</time></trkpt><trkpt lat="59.3301580567" lon="31.2285316642"><ele>44.36</ele><time>2026-08-27T19:08:36Z</time></trkpt><trkpt lat="59.3317934498" lon="31.2311623245"><ele>42.44</ele><time>2026-08-27T19:08:50Z</time></trkpt><trkpt lat="59.3327624816" lon="31.2325615995"><ele>41.47</ele><time>2026-08-27T19:08:58Z</time></trkpt><trkpt lat="59.3329036329" lon="31.2326403055"><ele>41.47</ele><time>2026-08-27T19:08:59Z</time></trkpt><trkpt lat="59.3330543395" lon="31.2326610088"><ele>41.47</ele><time>2026-08-27T19:09:00Z</time></trkpt><trkpt lat="59.3332029507" lon="31.2326337676"><ele>40.99</ele><time>2026-08-27T19:09:01Z</time></trkpt><trkpt lat="59.3333425093" lon="31.2325813808"><ele>40.99</ele><time>2026-08-27T19:09:02Z</time></trkpt><trkpt lat="59.3334832415" lon="31.2325140741"><ele>40.99</ele><time>2026-08-27T19:09:03Z</time></trkpt><trkpt lat="59.3357258197" lon="31.2314509135"><ele>40.51</ele><time>2026-08-27T19:09:18Z</time></trkpt><trkpt lat="59.3376238178" lon="31.2305973843"><ele>40.51</ele><time>2026-08-27T19:09:30Z</time></trkpt><trkpt lat="59.3385016546" lon="31.2302130740"><ele>37.15</ele><time>2026-08-27T19:09:38Z</time></trkpt><trkpt lat="59.3387385271" lon="31.2302073743"><ele>34.74</ele><time>2026-08-27T19:09:41Z</time></trkpt><trkpt lat="59.3388132099" lon="31.2302334420"><ele>34.26</ele><time>2026-08-27T19:09:42Z</time></trkpt><trkpt lat="59.3389648385" lon="31.2303320970"><ele>33.78</ele><time>2026-08-27T19:09:44Z</time></trkpt><trkpt lat="59.3391198199" lon="31.2305066083"><ele>33.78</ele><time>2026-08-27T19:09:46Z</time></trkpt><trkpt lat="59.3391887192" lon="31.2306218594"><ele>33.78</ele><time>2026-08-27T19:09:47Z</time></trkpt><trkpt lat="59.3392527569" lon="31.2307558022"><ele>35.23</ele><time>2026-08-27T19:09:48Z</time></trkpt><trkpt lat="59.3394802418" lon="31.2313747220"><ele>38.59</ele><time>2026-08-27T19:09:52Z</time></trkpt><trkpt lat="59.3395274319" lon="31.2315497361"><ele>39.07</ele><time>2026-08-27T19:09:53Z</time></trkpt><trkpt lat="59.3395686708" lon="31.2317353114"><ele>39.55</ele><time>2026-08-27T19:09:54Z</time></trkpt><trkpt lat="59.3399202917" lon="31.2341307756"><ele>40.03</ele><time>2026-08-27T19:10:05Z</time></trkpt><trkpt lat="59.3399996683" lon="31.2345656287"><ele>38.59</ele><time>2026-08-27T19:10:07Z</time></trkpt><trkpt lat="59.3400483672" lon="31.2347745895"><ele>38.59</ele><time>2026-08-27T19:10:08Z</time></trkpt><trkpt lat="59.3401072081" lon="31.2349728215"><ele>38.59</ele><time>2026-08-27T19:10:09Z</time></trkpt><trkpt lat="59.3401745986" lon="31.2351505179"><ele>38.59</ele><time>2026-08-27T19:10:10Z</time></trkpt><trkpt lat="59.3402528018" lon="31.2353168149"><ele>38.59</ele><time>2026-08-27T19:10:11Z</time></trkpt><trkpt lat="59.3403314240" lon="31.2354654260"><ele>37.63</ele><time>2026-08-27T19:10:12Z</time></trkpt><trkpt lat="59.3412748910" lon="31.2372617517"><ele>37.63</ele><time>2026-08-27T19:10:23Z</time></trkpt><trkpt lat="59.3425935321" lon="31.2397111114"><ele>37.63</ele><time>2026-08-27T19:10:38Z</time></trkpt><trkpt lat="59.3434815947" lon="31.2413447443"><ele>37.63</ele><time>2026-08-27T19:10:50Z</time></trkpt><trkpt lat="59.3436872028" lon="31.2416966166"><ele>36.67</ele><time>2026-08-27T19:10:54Z</time></trkpt><trkpt lat="59.3437955808" lon="31.2418734748"><ele>36.67</ele><time>2026-08-27T19:10:56Z</time></trkpt><trkpt lat="59.3439875264" lon="31.2422697712"><ele>36.19</ele><time>2026-08-27T19:11:00Z</time></trkpt><trkpt lat="59.3440545816" lon="31.2423841003"><ele>35.71</ele><time>2026-08-27T19:11:07Z</time></trkpt><trkpt lat="59.3440259993" lon="31.2423966732"><ele>34.74</ele><time>2026-08-27T19:11:37Z</time></trkpt><trkpt lat="59.3440232333" lon="31.2424164545"><ele>34.74</ele><time>2026-08-27T19:12:07Z</time></trkpt><trkpt lat="59.3440655619" lon="31.2425044645"><ele>34.74</ele><time>2026-08-27T19:12:33Z</time></trkpt><trkpt lat="59.3441619538" lon="31.2426645588"><ele>35.23</ele><time>2026-08-27T19:12:36Z</time></trkpt><trkpt lat="59.3442006782" lon="31.2427019421"><ele>34.74</ele><time>2026-08-27T19:12:37Z</time></trkpt><trkpt lat="59.3442426715" lon="31.2427173648"><ele>34.74</ele><time>2026-08-27T19:12:38Z</time></trkpt><trkpt lat="59.3442830723" lon="31.2427037023"><ele>34.74</ele><time>2026-08-27T19:12:39Z</time></trkpt><trkpt lat="59.3443134986" lon="31.2426659837"><ele>34.74</ele><time>2026-08-27T19:12:40Z</time></trkpt><trkpt lat="59.3443316873" lon="31.2426317018"><ele>35.23</ele><time>2026-08-27T19:12:41Z</time></trkpt><trkpt lat="59.3443437573" lon="31.2426094897"><ele>35.23</ele><time>2026-08-27T19:12:42Z</time></trkpt><trkpt lat="59.3443509657" lon="31.2425643951"><ele>35.23</ele><time>2026-08-27T19:12:59Z</time></trkpt><trkpt lat="59.3445462640" lon="31.2421912327"><ele>35.23</ele><time>2026-08-27T19:13:13Z</time></trkpt><trkpt lat="59.3449910916" lon="31.2413128931"><ele>38.59</ele><time>2026-08-27T19:13:19Z</time></trkpt><trkpt lat="59.3453936744" lon="31.2405548338"><ele>41.95</ele><time>2026-08-27T19:13:23Z</time></trkpt><trkpt lat="59.3469670415" lon="31.2376842834"><ele>43.40</ele><time>2026-08-27T19:13:37Z</time></trkpt><trkpt lat="59.3487892672" lon="31.2342682388"><ele>41.47</ele><time>2026-08-27T19:13:53Z</time></trkpt><trkpt lat="59.3501079921" lon="31.2317728624"><ele>43.40</ele><time>2026-08-27T19:14:07Z</time></trkpt><trkpt lat="59.3505006004" lon="31.2310189940"><ele>46.28</ele><time>2026-08-27T19:14:11Z</time></trkpt><trkpt lat="59.3510326836" lon="31.2300217990"><ele>49.65</ele><time>2026-08-27T19:14:16Z</time></trkpt><trkpt lat="59.3516741507" lon="31.2288003042"><ele>45.80</ele><time>2026-08-27T19:14:23Z</time></trkpt><trkpt lat="59.3529885169" lon="31.2263237871"><ele>45.32</ele><time>2026-08-27T19:14:37Z</time></trkpt><trkpt lat="59.3541907333" lon="31.2240435742"><ele>47.24</ele><time>2026-08-27T19:14:48Z</time></trkpt><trkpt lat="59.3546991795" lon="31.2230822537"><ele>50.13</ele><time>2026-08-27T19:14:52Z</time></trkpt><trkpt lat="59.3569057155" lon="31.2189203035"><ele>51.09</ele><time>2026-08-27T19:15:09Z</time></trkpt><trkpt lat="59.3584815972" lon="31.2159523554"><ele>51.09</ele><time>2026-08-27T19:15:22Z</time></trkpt><trkpt lat="59.3602827843" lon="31.2125264201"><ele>52.05</ele><time>2026-08-27T19:15:37Z</time></trkpt><trkpt lat="59.3630966730" lon="31.2072419655"><ele>52.53</ele><time>2026-08-27T19:15:59Z</time></trkpt><trkpt lat="59.3652654905" lon="31.2031502556"><ele>51.09</ele><time>2026-08-27T19:16:16Z</time></trkpt><trkpt lat="59.3661553971" lon="31.2014486454"><ele>47.24</ele><time>2026-08-27T19:16:23Z</time></trkpt><trkpt lat="59.3682698999" lon="31.1974073108"><ele>47.24</ele><time>2026-08-27T19:16:39Z</time></trkpt><trkpt lat="59.3691929989" lon="31.1956565827"><ele>50.61</ele><time>2026-08-27T19:16:45Z</time></trkpt><trkpt lat="59.3701772857" lon="31.1937828083"><ele>53.97</ele><time>2026-08-27T19:16:51Z</time></trkpt><trkpt lat="59.3723368831" lon="31.1896935292"><ele>52.53</ele><time>2026-08-27T19:17:04Z</time></trkpt><trkpt lat="59.3733707070" lon="31.1877371091"><ele>49.16</ele><time>2026-08-27T19:17:11Z</time></trkpt><trkpt lat="59.3737272732" lon="31.1870246474"><ele>44.84</ele><time>2026-08-27T19:17:14Z</time></trkpt><trkpt lat="59.3741968274" lon="31.1860852875"><ele>40.99</ele><time>2026-08-27T19:17:18Z</time></trkpt><trkpt lat="59.3749008235" lon="31.1846961547"><ele>44.84</ele><time>2026-08-27T19:17:24Z</time></trkpt><trkpt lat="59.3753623310" lon="31.1838208325"><ele>47.72</ele><time>2026-08-27T19:17:28Z</time></trkpt><trkpt lat="59.3775284663" lon="31.1798653286"><ele>44.84</ele><time>2026-08-27T19:17:46Z</time></trkpt><trkpt lat="59.3794482574" lon="31.1762864236"><ele>45.80</ele><time>2026-08-27T19:18:02Z</time></trkpt><trkpt lat="59.3813893385" lon="31.1726265494"><ele>46.76</ele><time>2026-08-27T19:18:17Z</time></trkpt><trkpt lat="59.3838913366" lon="31.1679256428"><ele>46.76</ele><time>2026-08-27T19:18:37Z</time></trkpt><trkpt lat="59.3863490783" lon="31.1632384825"><ele>48.20</ele><time>2026-08-27T19:18:57Z</time></trkpt><trkpt lat="59.3886285368" lon="31.1589021049"><ele>48.68</ele><time>2026-08-27T19:19:16Z</time></trkpt><trkpt lat="59.3907708675" lon="31.1548407376"><ele>49.65</ele><time>2026-08-27T19:19:33Z</time></trkpt><trkpt lat="59.3926164787" lon="31.1513527762"><ele>50.13</ele><time>2026-08-27T19:19:48Z</time></trkpt><trkpt lat="59.3949837796" lon="31.1468463298"><ele>50.13</ele><time>2026-08-27T19:20:07Z</time></trkpt><trkpt lat="59.3972992804" lon="31.1424513627"><ele>51.09</ele><time>2026-08-27T19:20:25Z</time></trkpt><trkpt lat="59.3991745636" lon="31.1389192287"><ele>51.09</ele><time>2026-08-27T19:20:42Z</time></trkpt><trkpt lat="59.4008669537" lon="31.1357372906"><ele>52.05</ele><time>2026-08-27T19:20:57Z</time></trkpt><trkpt lat="59.4029413909" lon="31.1319055874"><ele>53.49</ele><time>2026-08-27T19:21:14Z</time></trkpt><trkpt lat="59.4042574335" lon="31.1294290703"><ele>56.37</ele><time>2026-08-27T19:21:24Z</time></trkpt><trkpt lat="59.4049664587" lon="31.1281204876"><ele>59.74</ele><time>2026-08-27T19:21:29Z</time></trkpt><trkpt lat="59.4067880977" lon="31.1247071251"><ele>58.30</ele><time>2026-08-27T19:21:43Z</time></trkpt><trkpt lat="59.4071713183" lon="31.1239903048"><ele>54.93</ele><time>2026-08-27T19:21:47Z</time></trkpt><trkpt lat="59.4073978812" lon="31.1235168949"><ele>51.57</ele><time>2026-08-27T19:21:50Z</time></trkpt><trkpt lat="59.4083995186" lon="31.1216420308"><ele>50.61</ele><time>2026-08-27T19:22:01Z</time></trkpt><trkpt lat="59.4098482467" lon="31.1189024057"><ele>52.05</ele><time>2026-08-27T19:22:13Z</time></trkpt><trkpt lat="59.4118790142" lon="31.1150985304"><ele>52.05</ele><time>2026-08-27T19:22:30Z</time></trkpt><trkpt lat="59.4140375219" lon="31.1110175494"><ele>52.05</ele><time>2026-08-27T19:22:47Z</time></trkpt><trkpt lat="59.4164392725" lon="31.1065491568"><ele>52.53</ele><time>2026-08-27T19:23:04Z</time></trkpt><trkpt lat="59.4187441282" lon="31.1023044772"><ele>54.45</ele><time>2026-08-27T19:23:18Z</time></trkpt><trkpt lat="59.4227126241" lon="31.0949933622"><ele>55.41</ele><time>2026-08-27T19:23:42Z</time></trkpt><trkpt lat="59.4263307564" lon="31.0882251430"><ele>57.34</ele><time>2026-08-27T19:24:04Z</time></trkpt><trkpt lat="59.4296141993" lon="31.0820647795"><ele>58.30</ele><time>2026-08-27T19:24:24Z</time></trkpt><trkpt lat="59.4335690327" lon="31.0747031216"><ele>58.78</ele><time>2026-08-27T19:24:48Z</time></trkpt><trkpt lat="59.4366033655" lon="31.0690070316"><ele>58.78</ele><time>2026-08-27T19:25:07Z</time></trkpt><trkpt lat="59.4378940109" lon="31.0666082148"><ele>57.34</ele><time>2026-08-27T19:25:18Z</time></trkpt><trkpt lat="59.4405727834" lon="31.0616155341"><ele>56.86</ele><time>2026-08-27T19:25:41Z</time></trkpt><trkpt lat="59.4425856136" lon="31.0578650516"><ele>56.86</ele><time>2026-08-27T19:25:57Z</time></trkpt><trkpt lat="59.4446667563" lon="31.0540052690"><ele>55.89</ele><time>2026-08-27T19:26:14Z</time></trkpt><trkpt lat="59.4462028239" lon="31.0510892048"><ele>55.89</ele><time>2026-08-27T19:26:25Z</time></trkpt><trkpt lat="59.4486143813" lon="31.0466109216"><ele>56.86</ele><time>2026-08-27T19:26:39Z</time></trkpt><trkpt lat="59.4517804775" lon="31.0407595150"><ele>57.34</ele><time>2026-08-27T19:26:57Z</time></trkpt><trkpt lat="59.4542956352" lon="31.0360756237"><ele>57.34</ele><time>2026-08-27T19:27:12Z</time></trkpt><trkpt lat="59.4558022823" lon="31.0333206598"><ele>55.89</ele><time>2026-08-27T19:27:24Z</time></trkpt><trkpt lat="59.4581495505" lon="31.0290139541"><ele>55.41</ele><time>2026-08-27T19:27:42Z</time></trkpt><trkpt lat="59.4606771972" lon="31.0243806057"><ele>54.45</ele><time>2026-08-27T19:28:00Z</time></trkpt><trkpt lat="59.4632649422" lon="31.0196128953"><ele>52.53</ele><time>2026-08-27T19:28:19Z</time></trkpt><trkpt lat="59.4651423208" lon="31.0161934141"><ele>51.09</ele><time>2026-08-27T19:28:34Z</time></trkpt><trkpt lat="59.4666531589" lon="31.0134764202"><ele>50.13</ele><time>2026-08-27T19:28:47Z</time></trkpt><trkpt lat="59.4682345726" lon="31.0105457716"><ele>50.13</ele><time>2026-08-27T19:29:01Z</time></trkpt><trkpt lat="59.4697746634" lon="31.0076313000"><ele>49.16</ele><time>2026-08-27T19:29:14Z</time></trkpt><trkpt lat="59.4714978989" lon="31.0044600908"><ele>49.16</ele><time>2026-08-27T19:29:28Z</time></trkpt><trkpt lat="59.4730446115" lon="31.0015981738"><ele>49.16</ele><time>2026-08-27T19:29:41Z</time></trkpt><trkpt lat="59.4752804842" lon="30.9974631295"><ele>49.16</ele><time>2026-08-27T19:30:01Z</time></trkpt><trkpt lat="59.4769889675" lon="30.9943103604"><ele>49.16</ele><time>2026-08-27T19:30:15Z</time></trkpt><trkpt lat="59.4792489801" lon="30.9901386872"><ele>50.61</ele><time>2026-08-27T19:30:33Z</time></trkpt><trkpt lat="59.4813949987" lon="30.9861702751"><ele>51.57</ele><time>2026-08-27T19:30:50Z</time></trkpt><trkpt lat="59.4835012872" lon="30.9823066369"><ele>52.05</ele><time>2026-08-27T19:31:07Z</time></trkpt><trkpt lat="59.4862113241" lon="30.9773471486"><ele>53.01</ele><time>2026-08-27T19:31:28Z</time></trkpt><trkpt lat="59.4878317136" lon="30.9744178411"><ele>53.01</ele><time>2026-08-27T19:31:41Z</time></trkpt><trkpt lat="59.4897412788" lon="30.9708059113"><ele>53.49</ele><time>2026-08-27T19:31:56Z</time></trkpt><trkpt lat="59.4911967125" lon="30.9669703525"><ele>53.49</ele><time>2026-08-27T19:32:09Z</time></trkpt><trkpt lat="59.4923401717" lon="30.9628302790"><ele>53.49</ele><time>2026-08-27T19:32:20Z</time></trkpt><trkpt lat="59.4931220356" lon="30.9577744827"><ele>53.97</ele><time>2026-08-27T19:32:31Z</time></trkpt><trkpt lat="59.4934044220" lon="30.9527446702"><ele>52.53</ele><time>2026-08-27T19:32:41Z</time></trkpt><trkpt lat="59.4931630231" lon="30.9481848311"><ele>52.53</ele><time>2026-08-27T19:32:50Z</time></trkpt><trkpt lat="59.4924309477" lon="30.9432729520"><ele>52.53</ele><time>2026-08-27T19:33:00Z</time></trkpt><trkpt lat="59.4908833131" lon="30.9345845226"><ele>51.57</ele><time>2026-08-27T19:33:18Z</time></trkpt><trkpt lat="59.4889973849" lon="30.9239493962"><ele>49.65</ele><time>2026-08-27T19:33:40Z</time></trkpt><trkpt lat="59.4869511947" lon="30.9123629238"><ele>47.24</ele><time>2026-08-27T19:34:04Z</time></trkpt><trkpt lat="59.4863143377" lon="30.9068885352"><ele>45.32</ele><time>2026-08-27T19:34:15Z</time></trkpt><trkpt lat="59.4861340430" lon="30.9007626213"><ele>44.36</ele><time>2026-08-27T19:34:27Z</time></trkpt><trkpt lat="59.4864440057" lon="30.8936403506"><ele>42.92</ele><time>2026-08-27T19:34:41Z</time></trkpt><trkpt lat="59.4872486684" lon="30.8866671100"><ele>41.47</ele><time>2026-08-27T19:34:55Z</time></trkpt><trkpt lat="59.4886437524" lon="30.8795156702"><ele>40.99</ele><time>2026-08-27T19:35:10Z</time></trkpt><trkpt lat="59.4901114237" lon="30.8741023019"><ele>40.99</ele><time>2026-08-27T19:35:22Z</time></trkpt><trkpt lat="59.4923768844" lon="30.8678594604"><ele>42.44</ele><time>2026-08-27T19:35:37Z</time></trkpt><trkpt lat="59.4955375325" lon="30.8597466163"><ele>42.92</ele><time>2026-08-27T19:35:57Z</time></trkpt><trkpt lat="59.4988483004" lon="30.8512051217"><ele>45.32</ele><time>2026-08-27T19:36:18Z</time></trkpt><trkpt lat="59.5023275446" lon="30.8422649838"><ele>45.80</ele><time>2026-08-27T19:36:40Z</time></trkpt><trkpt lat="59.5058035199" lon="30.8332933299"><ele>43.40</ele><time>2026-08-27T19:37:02Z</time></trkpt><trkpt lat="59.5092293713" lon="30.8243028168"><ele>42.44</ele><time>2026-08-27T19:37:24Z</time></trkpt><trkpt lat="59.5120819006" lon="30.8170058671"><ele>43.88</ele><time>2026-08-27T19:37:42Z</time></trkpt><trkpt lat="59.5144202001" lon="30.8121996000"><ele>45.32</ele><time>2026-08-27T19:37:55Z</time></trkpt><trkpt lat="59.5174443908" lon="30.8073551953"><ele>46.28</ele><time>2026-08-27T19:38:10Z</time></trkpt><trkpt lat="59.5203347225" lon="30.8039053716"><ele>47.24</ele><time>2026-08-27T19:38:23Z</time></trkpt><trkpt lat="59.5236585662" lon="30.8009533491"><ele>47.72</ele><time>2026-08-27T19:38:37Z</time></trkpt><trkpt lat="59.5271501318" lon="30.7988967653"><ele>47.72</ele><time>2026-08-27T19:38:51Z</time></trkpt><trkpt lat="59.5304886438" lon="30.7978866622"><ele>47.72</ele><time>2026-08-27T19:39:04Z</time></trkpt><trkpt lat="59.5338740107" lon="30.7976571657"><ele>58.78</ele><time>2026-08-27T19:39:17Z</time></trkpt><trkpt lat="59.5351793244" lon="30.7976547349"><ele>62.14</ele><time>2026-08-27T19:39:22Z</time></trkpt><trkpt lat="59.5354377385" lon="30.7976569142"><ele>58.78</ele><time>2026-08-27T19:39:23Z</time></trkpt><trkpt lat="59.5359559916" lon="30.7976612728"><ele>56.86</ele><time>2026-08-27T19:39:25Z</time></trkpt><trkpt lat="59.5364777651" lon="30.7976735104"><ele>59.26</ele><time>2026-08-27T19:39:27Z</time></trkpt><trkpt lat="59.5419536624" lon="30.7976797130"><ele>59.74</ele><time>2026-08-27T19:39:48Z</time></trkpt><trkpt lat="59.5476703718" lon="30.7976150885"><ele>59.74</ele><time>2026-08-27T19:40:10Z</time></trkpt><trkpt lat="59.5541737229" lon="30.7975249831"><ele>60.70</ele><time>2026-08-27T19:40:35Z</time></trkpt><trkpt lat="59.5593386516" lon="30.7971743681"><ele>63.58</ele><time>2026-08-27T19:40:55Z</time></trkpt><trkpt lat="59.5603682846" lon="30.7969462965"><ele>66.95</ele><time>2026-08-27T19:40:59Z</time></trkpt><trkpt lat="59.5644964557" lon="30.7955541462"><ele>63.58</ele><time>2026-08-27T19:41:15Z</time></trkpt><trkpt lat="59.5660196990" lon="30.7948471326"><ele>60.22</ele><time>2026-08-27T19:41:21Z</time></trkpt><trkpt lat="59.5680180285" lon="30.7937760931"><ele>56.86</ele><time>2026-08-27T19:41:29Z</time></trkpt><trkpt lat="59.5729831327" lon="30.7908563409"><ele>56.86</ele><time>2026-08-27T19:41:49Z</time></trkpt><trkpt lat="59.5747258142" lon="30.7898194157"><ele>58.30</ele><time>2026-08-27T19:41:56Z</time></trkpt><trkpt lat="59.5772242080" lon="30.7884403411"><ele>61.18</ele><time>2026-08-27T19:42:06Z</time></trkpt><trkpt lat="59.5809795521" lon="30.7863058895"><ele>61.66</ele><time>2026-08-27T19:42:21Z</time></trkpt><trkpt lat="59.5862113684" lon="30.7832847163"><ele>63.10</ele><time>2026-08-27T19:42:42Z</time></trkpt><trkpt lat="59.5916707534" lon="30.7799252495"><ele>64.07</ele><time>2026-08-27T19:43:04Z</time></trkpt><trkpt lat="59.5921507850" lon="30.7795241755"><ele>50.61</ele><time>2026-08-27T19:43:06Z</time></trkpt><trkpt lat="59.5923905075" lon="30.7793227583"><ele>47.24</ele><time>2026-08-27T19:43:07Z</time></trkpt><trkpt lat="59.5926291402" lon="30.7791170664"><ele>48.68</ele><time>2026-08-27T19:43:08Z</time></trkpt><trkpt lat="59.5931043942" lon="30.7786906790"><ele>51.09</ele><time>2026-08-27T19:43:10Z</time></trkpt><trkpt lat="59.5956250001" lon="30.7760030217"><ele>48.68</ele><time>2026-08-27T19:43:21Z</time></trkpt><trkpt lat="59.5985885058" lon="30.7718774490"><ele>48.68</ele><time>2026-08-27T19:43:35Z</time></trkpt><trkpt lat="59.6017017122" lon="30.7663842011"><ele>48.20</ele><time>2026-08-27T19:43:51Z</time></trkpt><trkpt lat="59.6042028721" lon="30.7618619967"><ele>48.20</ele><time>2026-08-27T19:44:04Z</time></trkpt><trkpt lat="59.6072688047" lon="30.7563086506"><ele>48.20</ele><time>2026-08-27T19:44:20Z</time></trkpt><trkpt lat="59.6085809916" lon="30.7537711971"><ele>48.20</ele><time>2026-08-27T19:44:28Z</time></trkpt><trkpt lat="59.6115956269" lon="30.7482392248"><ele>50.13</ele><time>2026-08-27T19:44:48Z</time></trkpt><trkpt lat="59.6141116228" lon="30.7437580917"><ele>50.13</ele><time>2026-08-27T19:45:04Z</time></trkpt><trkpt lat="59.6147306263" lon="30.7426863816"><ele>46.76</ele><time>2026-08-27T19:45:08Z</time></trkpt><trkpt lat="59.6153577603" lon="30.7416165993"><ele>43.40</ele><time>2026-08-27T19:45:12Z</time></trkpt><trkpt lat="59.6172165312" lon="30.7384227589"><ele>42.44</ele><time>2026-08-27T19:45:25Z</time></trkpt><trkpt lat="59.6200250555" lon="30.7333280705"><ele>42.44</ele><time>2026-08-27T19:45:47Z</time></trkpt><trkpt lat="59.6213655733" lon="30.7308814768"><ele>43.88</ele><time>2026-08-27T19:45:57Z</time></trkpt><trkpt lat="59.6238888614" lon="30.7262607850"><ele>44.84</ele><time>2026-08-27T19:46:15Z</time></trkpt><trkpt lat="59.6266254690" lon="30.7212112751"><ele>45.32</ele><time>2026-08-27T19:46:35Z</time></trkpt><trkpt lat="59.6283410769" lon="30.7179124095"><ele>45.32</ele><time>2026-08-27T19:46:49Z</time></trkpt><trkpt lat="59.6307093836" lon="30.7135194540"><ele>46.76</ele><time>2026-08-27T19:47:06Z</time></trkpt><trkpt lat="59.6335355099" lon="30.7082961034"><ele>47.72</ele><time>2026-08-27T19:47:24Z</time></trkpt><trkpt lat="59.6356293932" lon="30.7044336386"><ele>48.20</ele><time>2026-08-27T19:47:36Z</time></trkpt><trkpt lat="59.6387408394" lon="30.6985849980"><ele>48.68</ele><time>2026-08-27T19:47:53Z</time></trkpt><trkpt lat="59.6417857334" lon="30.6930179894"><ele>48.68</ele><time>2026-08-27T19:48:10Z</time></trkpt><trkpt lat="59.6442060918" lon="30.6885308214"><ele>47.24</ele><time>2026-08-27T19:48:24Z</time></trkpt><trkpt lat="59.6477799676" lon="30.6819530390"><ele>45.32</ele><time>2026-08-27T19:48:44Z</time></trkpt><trkpt lat="59.6516753733" lon="30.6747422554"><ele>45.32</ele><time>2026-08-27T19:49:06Z</time></trkpt><trkpt lat="59.6559537482" lon="30.6668946985"><ele>45.32</ele><time>2026-08-27T19:49:30Z</time></trkpt><trkpt lat="59.6593567170" lon="30.6606821995"><ele>45.32</ele><time>2026-08-27T19:49:49Z</time></trkpt><trkpt lat="59.6612701379" lon="30.6571475510"><ele>45.32</ele><time>2026-08-27T19:50:00Z</time></trkpt><trkpt lat="59.6633389592" lon="30.6536123157"><ele>45.32</ele><time>2026-08-27T19:50:13Z</time></trkpt><trkpt lat="59.6648926288" lon="30.6512796320"><ele>43.88</ele><time>2026-08-27T19:50:25Z</time></trkpt><trkpt lat="59.6898469795" lon="30.6051528454"><ele>27.05</ele><time>2026-08-27T19:53:21Z</time></trkpt><trkpt lat="59.6926160250" lon="30.5998613499"><ele>25.61</ele><time>2026-08-27T19:53:40Z</time></trkpt><trkpt lat="59.6949323639" lon="30.5955451727"><ele>25.13</ele><time>2026-08-27T19:53:55Z</time></trkpt><trkpt lat="59.6976884175" lon="30.5904968362"><ele>22.73</ele><time>2026-08-27T19:54:13Z</time></trkpt><trkpt lat="59.6995390579" lon="30.5870592501"><ele>21.77</ele><time>2026-08-27T19:54:27Z</time></trkpt><trkpt lat="59.7015766986" lon="30.5834310595"><ele>19.84</ele><time>2026-08-27T19:54:43Z</time></trkpt><trkpt lat="59.7033021972" lon="30.5804420728"><ele>18.88</ele><time>2026-08-27T19:54:57Z</time></trkpt><trkpt lat="59.7050322220" lon="30.5770811811"><ele>18.88</ele><time>2026-08-27T19:55:12Z</time></trkpt><trkpt lat="59.7063749190" lon="30.5746987090"><ele>18.40</ele><time>2026-08-27T19:55:22Z</time></trkpt><trkpt lat="59.7084114701" lon="30.5709592905"><ele>17.92</ele><time>2026-08-27T19:55:36Z</time></trkpt><trkpt lat="59.7111522686" lon="30.5659645144"><ele>17.44</ele><time>2026-08-27T19:55:55Z</time></trkpt><trkpt lat="59.7138349805" lon="30.5610644538"><ele>17.44</ele><time>2026-08-27T19:56:13Z</time></trkpt><trkpt lat="59.7166683152" lon="30.5558630638"><ele>17.44</ele><time>2026-08-27T19:56:32Z</time></trkpt><trkpt lat="59.7194443177" lon="30.5507734045"><ele>16.96</ele><time>2026-08-27T19:56:51Z</time></trkpt><trkpt lat="59.7220918257" lon="30.5459293351"><ele>16.00</ele><time>2026-08-27T19:57:09Z</time></trkpt><trkpt lat="59.7231554892" lon="30.5439983960"><ele>20.32</ele><time>2026-08-27T19:57:17Z</time></trkpt><trkpt lat="59.7236863989" lon="30.5430057272"><ele>23.69</ele><time>2026-08-27T19:57:21Z</time></trkpt><trkpt lat="59.7256890871" lon="30.5393123254"><ele>23.69</ele><time>2026-08-27T19:57:35Z</time></trkpt><trkpt lat="59.7277955431" lon="30.5353918578"><ele>20.32</ele><time>2026-08-27T19:57:51Z</time></trkpt><trkpt lat="59.7301107924" lon="30.5311528780"><ele>19.36</ele><time>2026-08-27T19:58:09Z</time></trkpt><trkpt lat="59.7323236149" lon="30.5270692147"><ele>19.36</ele><time>2026-08-27T19:58:26Z</time></trkpt><trkpt lat="59.7343667876" lon="30.5232919101"><ele>19.36</ele><time>2026-08-27T19:58:41Z</time></trkpt><trkpt lat="59.7368323244" lon="30.5187111162"><ele>19.36</ele><time>2026-08-27T19:58:59Z</time></trkpt><trkpt lat="59.7389987949" lon="30.5146861263"><ele>21.29</ele><time>2026-08-27T19:59:13Z</time></trkpt><trkpt lat="59.7411448136" lon="30.5107291974"><ele>20.81</ele><time>2026-08-27T19:59:27Z</time></trkpt><trkpt lat="59.7431793530" lon="30.5074864905"><ele>21.29</ele><time>2026-08-27T19:59:39Z</time></trkpt><trkpt lat="59.7448343597" lon="30.5043156166"><ele>21.29</ele><time>2026-08-27T19:59:51Z</time></trkpt><trkpt lat="59.7458839417" lon="30.5021959171"><ele>17.92</ele><time>2026-08-27T20:00:00Z</time></trkpt><trkpt lat="59.7475351766" lon="30.4989494383"><ele>16.48</ele><time>2026-08-27T20:00:15Z</time></trkpt><trkpt lat="59.7492724936" lon="30.4954636563"><ele>17.92</ele><time>2026-08-27T20:00:29Z</time></trkpt><trkpt lat="59.7508643009" lon="30.4924835544"><ele>20.81</ele><time>2026-08-27T20:00:40Z</time></trkpt><trkpt lat="59.7526536696" lon="30.4891080782"><ele>21.29</ele><time>2026-08-27T20:00:53Z</time></trkpt><trkpt lat="59.7546478081" lon="30.4854093120"><ele>18.88</ele><time>2026-08-27T20:01:09Z</time></trkpt><trkpt lat="59.7562598158" lon="30.4827738740"><ele>17.44</ele><time>2026-08-27T20:01:22Z</time></trkpt><trkpt lat="59.7577044368" lon="30.4799874779"><ele>17.44</ele><time>2026-08-27T20:01:34Z</time></trkpt><trkpt lat="59.7594849207" lon="30.4767006822"><ele>17.44</ele><time>2026-08-27T20:01:48Z</time></trkpt><trkpt lat="59.7605632525" lon="30.4746633768"><ele>16.96</ele><time>2026-08-27T20:01:57Z</time></trkpt><trkpt lat="59.7624868993" lon="30.4710932728"><ele>18.40</ele><time>2026-08-27T20:02:13Z</time></trkpt><trkpt lat="59.7632115148" lon="30.4696403537"><ele>15.52</ele><time>2026-08-27T20:02:19Z</time></trkpt><trkpt lat="59.7635608725" lon="30.4688818753"><ele>11.19</ele><time>2026-08-27T20:02:22Z</time></trkpt><trkpt lat="59.7640207876" lon="30.4678930622"><ele>7.83</ele><time>2026-08-27T20:02:26Z</time></trkpt><trkpt lat="59.7646675352" lon="30.4667032510"><ele>11.19</ele><time>2026-08-27T20:02:31Z</time></trkpt><trkpt lat="59.7651769035" lon="30.4657509830"><ele>14.08</ele><time>2026-08-27T20:02:35Z</time></trkpt><trkpt lat="59.7665536311" lon="30.4633907229"><ele>11.19</ele><time>2026-08-27T20:02:45Z</time></trkpt><trkpt lat="59.7674844414" lon="30.4618234746"><ele>9.75</ele><time>2026-08-27T20:02:53Z</time></trkpt><trkpt lat="59.7677954938" lon="30.4613531660"><ele>8.79</ele><time>2026-08-27T20:02:59Z</time></trkpt><trkpt lat="59.7678084020" lon="30.4612922296"><ele>8.31</ele><time>2026-08-27T20:03:10Z</time></trkpt><trkpt lat="59.7677801549" lon="30.4612607975"><ele>8.31</ele><time>2026-08-27T20:03:23Z</time></trkpt><trkpt lat="59.7677881178" lon="30.4612297844"><ele>8.31</ele><time>2026-08-27T20:03:24Z</time></trkpt><trkpt lat="59.7678033728" lon="30.4611794930"><ele>8.31</ele><time>2026-08-27T20:03:25Z</time></trkpt><trkpt lat="59.7678289376" lon="30.4611095041"><ele>8.31</ele><time>2026-08-27T20:03:26Z</time></trkpt><trkpt lat="59.7678614594" lon="30.4610318039"><ele>8.31</ele><time>2026-08-27T20:03:27Z</time></trkpt><trkpt lat="59.7678994294" lon="30.4609546065"><ele>8.31</ele><time>2026-08-27T20:03:28Z</time></trkpt><trkpt lat="59.7679382376" lon="30.4608859587"><ele>8.31</ele><time>2026-08-27T20:03:29Z</time></trkpt><trkpt lat="59.7679751180" lon="30.4608282913"><ele>8.31</ele><time>2026-08-27T20:03:30Z</time></trkpt><trkpt lat="59.7683969792" lon="30.4600514565"><ele>8.31</ele><time>2026-08-27T20:03:39Z</time></trkpt><trkpt lat="59.7692677751" lon="30.4583747406"><ele>8.31</ele><time>2026-08-27T20:03:48Z</time></trkpt><trkpt lat="59.7709269729" lon="30.4553383123"><ele>11.19</ele><time>2026-08-27T20:04:01Z</time></trkpt><trkpt lat="59.7723057959" lon="30.4527652357"><ele>11.67</ele><time>2026-08-27T20:04:12Z</time></trkpt><trkpt lat="59.7743650619" lon="30.4490346182"><ele>12.15</ele><time>2026-08-27T20:04:28Z</time></trkpt><trkpt lat="59.7760214098" lon="30.4459915683"><ele>12.63</ele><time>2026-08-27T20:04:42Z</time></trkpt><trkpt lat="59.7775171604" lon="30.4432328325"><ele>12.63</ele><time>2026-08-27T20:04:55Z</time></trkpt><trkpt lat="59.7788504697" lon="30.4407631885"><ele>13.12</ele><time>2026-08-27T20:05:07Z</time></trkpt><trkpt lat="59.7800144646" lon="30.4386721551"><ele>13.12</ele><time>2026-08-27T20:05:18Z</time></trkpt><trkpt lat="59.7815562319" lon="30.4357942287"><ele>13.12</ele><time>2026-08-27T20:05:33Z</time></trkpt><trkpt lat="59.7832044493" lon="30.4326157272"><ele>13.60</ele><time>2026-08-27T20:05:50Z</time></trkpt><trkpt lat="59.7846464720" lon="30.4299636092"><ele>14.08</ele><time>2026-08-27T20:06:03Z</time></trkpt><trkpt lat="59.7870422713" lon="30.4257663712"><ele>15.04</ele><time>2026-08-27T20:06:23Z</time></trkpt><trkpt lat="59.7888594680" lon="30.4223723710"><ele>15.52</ele><time>2026-08-27T20:06:35Z</time></trkpt><trkpt lat="59.7903037537" lon="30.4200434592"><ele>16.00</ele><time>2026-08-27T20:06:44Z</time></trkpt><trkpt lat="59.7914334666" lon="30.4179085884"><ele>16.00</ele><time>2026-08-27T20:06:52Z</time></trkpt><trkpt lat="59.7939322796" lon="30.4138552677"><ele>16.00</ele><time>2026-08-27T20:07:09Z</time></trkpt><trkpt lat="59.8186486680" lon="30.3670701664"><ele>10.23</ele><time>2026-08-27T20:10:48Z</time></trkpt><trkpt lat="59.8186299764" lon="30.3672406543"><ele>10.23</ele><time>2026-08-27T20:11:11Z</time></trkpt><trkpt lat="59.8188084271" lon="30.3667041287"><ele>10.23</ele><time>2026-08-27T20:11:20Z</time></trkpt><trkpt lat="59.8189980257" lon="30.3660479095"><ele>13.60</ele><time>2026-08-27T20:11:25Z</time></trkpt><trkpt lat="59.8198681511" lon="30.3650733456"><ele>16.48</ele><time>2026-08-27T20:11:30Z</time></trkpt><trkpt lat="59.8215359822" lon="30.3618210834"><ele>15.52</ele><time>2026-08-27T20:11:47Z</time></trkpt><trkpt lat="59.8222641181" lon="30.3605719283"><ele>14.08</ele><time>2026-08-27T20:11:57Z</time></trkpt><trkpt lat="59.8225989752" lon="30.3601676691"><ele>12.63</ele><time>2026-08-27T20:12:06Z</time></trkpt><trkpt lat="59.8225601669" lon="30.3601882048"><ele>12.15</ele><time>2026-08-27T20:12:19Z</time></trkpt><trkpt lat="59.8225012422" lon="30.3601741232"><ele>11.67</ele><time>2026-08-27T20:12:35Z</time></trkpt><trkpt lat="59.8225138988" lon="30.3601388354"><ele>11.67</ele><time>2026-08-27T20:12:36Z</time></trkpt><trkpt lat="59.8228259571" lon="30.3593759984"><ele>11.67</ele><time>2026-08-27T20:12:44Z</time></trkpt><trkpt lat="59.8236727808" lon="30.3576407768"><ele>14.56</ele><time>2026-08-27T20:12:54Z</time></trkpt><trkpt lat="59.8242523056" lon="30.3566238005"><ele>17.92</ele><time>2026-08-27T20:12:59Z</time></trkpt><trkpt lat="59.8264208715" lon="30.3527586535"><ele>16.96</ele><time>2026-08-27T20:13:17Z</time></trkpt><trkpt lat="59.8286352027" lon="30.3486771695"><ele>16.96</ele><time>2026-08-27T20:13:36Z</time></trkpt><trkpt lat="59.8302067257" lon="30.3458140790"><ele>16.96</ele><time>2026-08-27T20:13:49Z</time></trkpt><trkpt lat="59.8310470115" lon="30.3442061786"><ele>16.48</ele><time>2026-08-27T20:13:58Z</time></trkpt><trkpt lat="59.8313059285" lon="30.3438072838"><ele>16.00</ele><time>2026-08-27T20:14:02Z</time></trkpt><trkpt lat="59.8313574772" lon="30.3437595908"><ele>15.04</ele><time>2026-08-27T20:14:03Z</time></trkpt><trkpt lat="59.8314044159" lon="30.3437445033"><ele>14.08</ele><time>2026-08-27T20:14:04Z</time></trkpt><trkpt lat="59.8316106945" lon="30.3438248020"><ele>11.67</ele><time>2026-08-27T20:14:10Z</time></trkpt><trkpt lat="59.8317060806" lon="30.3440228663"><ele>12.15</ele><time>2026-08-27T20:14:11Z</time></trkpt><trkpt lat="59.8317987844" lon="30.3442402929"><ele>12.15</ele><time>2026-08-27T20:14:12Z</time></trkpt><trkpt lat="59.8321378324" lon="30.3452576883"><ele>15.52</ele><time>2026-08-27T20:14:16Z</time></trkpt><trkpt lat="59.8330253921" lon="30.3475177009"><ele>11.67</ele><time>2026-08-27T20:14:28Z</time></trkpt><trkpt lat="59.8332074471" lon="30.3478848282"><ele>8.31</ele><time>2026-08-27T20:14:34Z</time></trkpt><trkpt lat="59.8332158290" lon="30.3479704913"><ele>12.15</ele><time>2026-08-27T20:14:43Z</time></trkpt><trkpt lat="59.8331912700" lon="30.3478528932"><ele>12.15</ele><time>2026-08-27T20:15:15Z</time></trkpt><trkpt lat="59.8332015797" lon="30.3478637896"><ele>12.15</ele><time>2026-08-27T20:15:16Z</time></trkpt><trkpt lat="59.8332868237" lon="30.3479768615"><ele>12.15</ele><time>2026-08-27T20:15:19Z</time></trkpt><trkpt lat="59.8334719799" lon="30.3483425640"><ele>12.15</ele><time>2026-08-27T20:15:23Z</time></trkpt><trkpt lat="59.8335127998" lon="30.3484736569"><ele>12.15</ele><time>2026-08-27T20:15:24Z</time></trkpt><trkpt lat="59.8335475009" lon="30.3486272134"><ele>12.15</ele><time>2026-08-27T20:15:25Z</time></trkpt><trkpt lat="59.8335754126" lon="30.3487946838"><ele>12.15</ele><time>2026-08-27T20:15:26Z</time></trkpt><trkpt lat="59.8336005583" lon="30.3489681054"><ele>12.15</ele><time>2026-08-27T20:15:27Z</time></trkpt><trkpt lat="59.8338124529" lon="30.3509429656"><ele>12.63</ele><time>2026-08-27T20:15:38Z</time></trkpt><trkpt lat="59.8338367604" lon="30.3510555346"><ele>12.63</ele><time>2026-08-27T20:15:39Z</time></trkpt><trkpt lat="59.8338758200" lon="30.3511417005"><ele>12.63</ele><time>2026-08-27T20:15:40Z</time></trkpt><trkpt lat="59.8339134548" lon="30.3511893097"><ele>12.63</ele><time>2026-08-27T20:15:41Z</time></trkpt><trkpt lat="59.8339380138" lon="30.3512092587"><ele>12.63</ele><time>2026-08-27T20:15:42Z</time></trkpt><trkpt lat="59.8339819349" lon="30.3512083367"><ele>12.63</ele><time>2026-08-27T20:15:43Z</time></trkpt><trkpt lat="59.8340268619" lon="30.3511799220"><ele>12.63</ele><time>2026-08-27T20:15:44Z</time></trkpt><trkpt lat="59.8340933304" lon="30.3511323966"><ele>12.63</ele><time>2026-08-27T20:15:45Z</time></trkpt><trkpt lat="59.8352162540" lon="30.3507407103"><ele>12.63</ele><time>2026-08-27T20:15:58Z</time></trkpt><trkpt lat="59.8363078292" lon="30.3503964655"><ele>12.63</ele><time>2026-08-27T20:16:09Z</time></trkpt><trkpt lat="59.8363815900" lon="30.3504070267"><ele>12.63</ele><time>2026-08-27T20:16:10Z</time></trkpt><trkpt lat="59.8364420235" lon="30.3504263889"><ele>12.63</ele><time>2026-08-27T20:16:11Z</time></trkpt><trkpt lat="59.8372087162" lon="30.3502983134"><ele>12.63</ele><time>2026-08-27T20:16:25Z</time></trkpt><trkpt lat="59.8383016326" lon="30.3498209640"><ele>12.63</ele><time>2026-08-27T20:16:36Z</time></trkpt><trkpt lat="59.8388626333" lon="30.3496610373"><ele>11.19</ele><time>2026-08-27T20:16:44Z</time></trkpt><trkpt lat="59.8390057124" lon="30.3498922940"><ele>10.23</ele><time>2026-08-27T20:16:52Z</time></trkpt><trkpt lat="59.8390087299" lon="30.3499402385"><ele>10.23</ele><time>2026-08-27T20:16:53Z</time></trkpt><trkpt lat="59.8390111607" lon="30.3499936312"><ele>10.23</ele><time>2026-08-27T20:16:54Z</time></trkpt><trkpt lat="59.8390792217" lon="30.3506965376"><ele>9.75</ele><time>2026-08-27T20:17:11Z</time></trkpt><trkpt lat="59.8391276691" lon="30.3510010522"><ele>9.27</ele><time>2026-08-27T20:17:28Z</time></trkpt><trkpt lat="59.8391327821" lon="30.3509490006"><ele>9.27</ele><time>2026-08-27T20:17:51Z</time></trkpt><trkpt lat="59.8391579278" lon="30.3509842884"><ele>9.27</ele><time>2026-08-27T20:18:13Z</time></trkpt><trkpt lat="59.8391648848" lon="30.3509779181"><ele>9.27</ele><time>2026-08-27T20:18:42Z</time></trkpt><trkpt lat="59.8391625378" lon="30.3509905748"><ele>9.27</ele><time>2026-08-27T20:19:02Z</time></trkpt><trkpt lat="59.8391754460" lon="30.3510013875"><ele>9.27</ele><time>2026-08-27T20:19:31Z</time></trkpt><trkpt lat="59.8392187804" lon="30.3509523533"><ele>9.27</ele><time>2026-08-27T20:19:55Z</time></trkpt><trkpt lat="59.8392204568" lon="30.3509140480"><ele>9.27</ele><time>2026-08-27T20:20:24Z</time></trkpt><trkpt lat="59.8392229713" lon="30.3509259503"><ele>9.27</ele><time>2026-08-27T20:21:06Z</time></trkpt><trkpt lat="59.8392171878" lon="30.3509109467"><ele>9.75</ele><time>2026-08-27T20:21:36Z</time></trkpt><trkpt lat="59.8392108176" lon="30.3509313148"><ele>9.75</ele><time>2026-08-27T20:22:11Z</time></trkpt><trkpt lat="59.8392049503" lon="30.3509390261"><ele>10.23</ele><time>2026-08-27T20:22:40Z</time></trkpt><trkpt lat="59.8392036092" lon="30.3509409539"><ele>9.75</ele><time>2026-08-27T20:23:14Z</time></trkpt><trkpt lat="59.8392042797" lon="30.3509500064"><ele>10.23</ele><time>2026-08-27T20:23:50Z</time></trkpt><trkpt lat="59.8392013460" lon="30.3509402834"><ele>10.23</ele><time>2026-08-27T20:24:19Z</time></trkpt><trkpt lat="59.8391936347" lon="30.3509516828"><ele>10.23</ele><time>2026-08-27T20:24:46Z</time></trkpt><trkpt lat="59.8390710913" lon="30.3508184943"><ele>10.71</ele><time>2026-08-27T20:25:14Z</time></trkpt><trkpt lat="59.8390739411" lon="30.3507731482"><ele>10.71</ele><time>2026-08-27T20:25:42Z</time></trkpt><trkpt lat="59.8390911240" lon="30.3507884871"><ele>11.19</ele><time>2026-08-27T20:26:11Z</time></trkpt><trkpt lat="59.8390959855" lon="30.3507915884"><ele>11.67</ele><time>2026-08-27T20:26:41Z</time></trkpt><trkpt lat="59.8390718456" lon="30.3507773392"><ele>11.67</ele><time>2026-08-27T20:27:07Z</time></trkpt><trkpt lat="59.8390830774" lon="30.3507813625"><ele>12.15</ele><time>2026-08-27T20:27:37Z</time></trkpt><trkpt lat="59.8391156830" lon="30.3508254513"><ele>12.15</ele><time>2026-08-27T20:28:03Z</time></trkpt><trkpt lat="59.8391054571" lon="30.3507926781"><ele>12.63</ele><time>2026-08-27T20:28:25Z</time></trkpt><trkpt lat="59.8391466122" lon="30.3507404588"><ele>12.63</ele><time>2026-08-27T20:28:41Z</time></trkpt><trkpt lat="59.8391786311" lon="30.3507835418"><ele>13.12</ele><time>2026-08-27T20:29:05Z</time></trkpt><trkpt lat="59.8391985800" lon="30.3508247808"><ele>13.12</ele><time>2026-08-27T20:29:29Z</time></trkpt><trkpt lat="59.8392362148" lon="30.3508889023"><ele>13.12</ele><time>2026-08-27T20:29:53Z</time></trkpt><trkpt lat="59.8391699139" lon="30.3508510999"><ele>13.12</ele><time>2026-08-27T20:30:14Z</time></trkpt><trkpt lat="59.8390172794" lon="30.3507400397"><ele>13.12</ele><time>2026-08-27T20:30:34Z</time></trkpt><trkpt lat="59.8389786389" lon="30.3507372737"><ele>13.60</ele><time>2026-08-27T20:30:53Z</time></trkpt><trkpt lat="59.8390834965" lon="30.3507416323"><ele>13.60</ele><time>2026-08-27T20:31:16Z</time></trkpt><trkpt lat="59.8391627893" lon="30.3507775906"><ele>14.08</ele><time>2026-08-27T20:31:38Z</time></trkpt><trkpt lat="59.8391694110" lon="30.3507904988"><ele>14.08</ele><time>2026-08-27T20:32:01Z</time></trkpt><trkpt lat="59.8391720932" lon="30.3507651854"><ele>14.56</ele><time>2026-08-27T20:32:21Z</time></trkpt><trkpt lat="59.8391473666" lon="30.3507993836"><ele>14.56</ele><time>2026-08-27T20:32:40Z</time></trkpt><trkpt lat="59.8391622026" lon="30.3508699592"><ele>15.04</ele><time>2026-08-27T20:33:05Z</time></trkpt><trkpt lat="59.8392234743" lon="30.3512002900"><ele>15.04</ele><time>2026-08-27T20:33:20Z</time></trkpt><trkpt lat="59.8391223885" lon="30.3511727974"><ele>15.04</ele><time>2026-08-27T20:33:36Z</time></trkpt><trkpt lat="59.8391198739" lon="30.3511948418"><ele>15.04</ele><time>2026-08-27T20:33:57Z</time></trkpt><trkpt lat="59.8392088898" lon="30.3513076622"><ele>15.04</ele><time>2026-08-27T20:34:18Z</time></trkpt><trkpt lat="59.8392334487" lon="30.3512472287"><ele>15.04</ele><time>2026-08-27T20:34:38Z</time></trkpt><trkpt lat="59.8392632045" lon="30.3512896411"><ele>15.04</ele><time>2026-08-27T20:34:59Z</time></trkpt><trkpt lat="59.8392580915" lon="30.3512837738"><ele>15.52</ele><time>2026-08-27T20:35:25Z</time></trkpt><trkpt lat="59.8392634559" lon="30.3513270244"><ele>15.52</ele><time>2026-08-27T20:35:45Z</time></trkpt><trkpt lat="59.8392406572" lon="30.3517021984"><ele>15.52</ele><time>2026-08-27T20:36:07Z</time></trkpt><trkpt lat="59.8390017729" lon="30.3517396655"><ele>15.52</ele><time>2026-08-27T20:36:29Z</time></trkpt><trkpt lat="59.8389630485" lon="30.3519599419"><ele>15.52</ele><time>2026-08-27T20:36:51Z</time></trkpt><trkpt lat="59.8390571773" lon="30.3519873507"><ele>15.52</ele><time>2026-08-27T20:37:09Z</time></trkpt><trkpt lat="59.8391562514" lon="30.3521303460"><ele>15.52</ele><time>2026-08-27T20:37:27Z</time></trkpt><trkpt lat="59.8392841592" lon="30.3523041867"><ele>16.00</ele><time>2026-08-27T20:37:49Z</time></trkpt><trkpt lat="59.8393612728" lon="30.3526303265"><ele>16.00</ele><time>2026-08-27T20:38:08Z</time></trkpt><trkpt lat="59.8393853288" lon="30.3526836354"><ele>16.00</ele><time>2026-08-27T20:38:29Z</time></trkpt><trkpt lat="59.8393457662" lon="30.3527567256"><ele>16.96</ele><time>2026-08-27T20:38:50Z</time></trkpt><trkpt lat="59.8393447604" lon="30.3527536243"><ele>17.44</ele><time>2026-08-27T20:39:03Z</time></trkpt><trkpt lat="59.8393333610" lon="30.3527594078"><ele>17.44</ele><time>2026-08-27T20:39:04Z</time></trkpt><trkpt lat="59.8388420977" lon="30.3532097675"><ele>17.92</ele><time>2026-08-27T20:39:30Z</time></trkpt><trkpt lat="57.6721533202" lon="32.5276537333"><ele>61.18</ele><time>2025-09-09T00:02:17Z</time></trkpt><trkpt lat="57.6748295780" lon="32.5214585848"><ele>61.18</ele><time>2025-09-09T00:02:28Z</time></trkpt><trkpt lat="57.6769552287" lon="32.5181628205"><ele>61.18</ele><time>2025-09-09T00:02:35Z</time></trkpt><trkpt lat="57.6777800079" lon="32.5169782061"><ele>61.18</ele><time>2025-09-09T00:02:38Z</time></trkpt><trkpt lat="57.6800324768" lon="32.5278785359"><ele>61.18</ele><time>2025-09-09T00:02:45Z</time></trkpt><trkpt lat="57.6802708581" lon="32.5287766568"><ele>61.18</ele><time>2025-09-09T00:02:47Z</time></trkpt><trkpt lat="57.6805142686" lon="32.5302852318"><ele>61.18</ele><time>2025-09-09T00:02:50Z</time></trkpt><trkpt lat="57.6775179058" lon="32.5351276249"><ele>61.18</ele><time>2025-09-09T00:02:56Z</time></trkpt><trkpt lat="57.6756656729" lon="32.5386486948"><ele>61.18</ele><time>2025-09-09T00:03:02Z</time></trkpt><trkpt lat="57.6736366656" lon="32.5424643047"><ele>61.18</ele><time>2025-09-09T00:03:10Z</time></trkpt><trkpt lat="57.6674093306" lon="32.5239693001"><ele>61.18</ele><time>2025-09-09T00:03:37Z</time></trkpt></trkseg><trkseg><trkpt lat="59.8471114319" lon="30.1847147383"><ele>16.96</ele><time>2026-09-01T11:12:05Z</time></trkpt><trkpt lat="59.8470712826" lon="30.1847368665"><ele>16.96</ele><time>2026-09-01T11:12:06Z</time></trkpt><trkpt lat="59.8470297921" lon="30.1847987249"><ele>16.96</ele><time>2026-09-01T11:12:07Z</time></trkpt><trkpt lat="59.8469964322" lon="30.1848913450"><ele>16.96</ele><time>2026-09-01T11:12:08Z</time></trkpt><trkpt lat="59.8469717894" lon="30.1850156486"><ele>16.96</ele><time>2026-09-01T11:12:09Z</time></trkpt><trkpt lat="59.8469606414" lon="30.1851314865"><ele>16.96</ele><time>2026-09-01T11:12:10Z</time></trkpt><trkpt lat="59.8469542712" lon="30.1852628309"><ele>16.96</ele><time>2026-09-01T11:12:11Z</time></trkpt><trkpt lat="59.8469507508" lon="30.1854144596"><ele>15.04</ele><time>2026-09-01T11:12:12Z</time></trkpt><trkpt lat="59.8469515890" lon="30.1855838578"><ele>15.04</ele><time>2026-09-01T11:12:13Z</time></trkpt><trkpt lat="59.8469460569" lon="30.1875873841"><ele>15.52</ele><time>2026-09-01T11:12:22Z</time></trkpt><trkpt lat="59.8469337355" lon="30.1884826552"><ele>15.52</ele><time>2026-09-01T11:12:28Z</time></trkpt><trkpt lat="59.8469400220" lon="30.1885800529"><ele>15.52</ele><time>2026-09-01T11:12:38Z</time></trkpt><trkpt lat="59.8469361663" lon="30.1886363793"><ele>14.08</ele><time>2026-09-01T11:12:46Z</time></trkpt><trkpt lat="59.8469414469" lon="30.1888017543"><ele>14.08</ele><time>2026-09-01T11:12:50Z</time></trkpt><trkpt lat="59.8469217494" lon="30.1901974250"><ele>14.08</ele><time>2026-09-01T11:12:58Z</time></trkpt><trkpt lat="59.8468654230" lon="30.1926724333"><ele>15.52</ele><time>2026-09-01T11:13:06Z</time></trkpt><trkpt lat="59.8468579631" lon="30.1929890178"><ele>15.52</ele><time>2026-09-01T11:13:07Z</time></trkpt><trkpt lat="59.8467857949" lon="30.1967550907"><ele>15.52</ele><time>2026-09-01T11:13:20Z</time></trkpt><trkpt lat="59.8467274569" lon="30.1997042634"><ele>16.48</ele><time>2026-09-01T11:13:30Z</time></trkpt><trkpt lat="59.8466360103" lon="30.2041800320"><ele>16.96</ele><time>2026-09-01T11:13:43Z</time></trkpt><trkpt lat="59.8465206753" lon="30.2091449685"><ele>17.92</ele><time>2026-09-01T11:13:59Z</time></trkpt><trkpt lat="59.8464827891" lon="30.2103132382"><ele>17.92</ele><time>2026-09-01T11:14:06Z</time></trkpt><trkpt lat="59.8464946076" lon="30.2116432786"><ele>15.04</ele><time>2026-09-01T11:14:18Z</time></trkpt><trkpt lat="59.8464806937" lon="30.2124252263"><ele>11.67</ele><time>2026-09-01T11:14:24Z</time></trkpt><trkpt lat="59.8464758322" lon="30.2126114722"><ele>11.67</ele><time>2026-09-01T11:14:32Z</time></trkpt><trkpt lat="59.8464719765" lon="30.2127088699"><ele>13.12</ele><time>2026-09-01T11:14:55Z</time></trkpt><trkpt lat="59.8464725632" lon="30.2129137237"><ele>13.60</ele><time>2026-09-01T11:15:04Z</time></trkpt><trkpt lat="59.8464363534" lon="30.2130253706"><ele>14.08</ele><time>2026-09-01T11:15:12Z</time></trkpt><trkpt lat="59.8464096989" lon="30.2130253706"><ele>13.60</ele><time>2026-09-01T11:15:37Z</time></trkpt><trkpt lat="59.8464000598" lon="30.2130204253"><ele>13.60</ele><time>2026-09-01T11:16:07Z</time></trkpt><trkpt lat="59.8463858105" lon="30.2130249515"><ele>13.60</ele><time>2026-09-01T11:16:36Z</time></trkpt><trkpt lat="59.8463662807" lon="30.2130275499"><ele>13.12</ele><time>2026-09-01T11:16:56Z</time></trkpt><trkpt lat="59.8463545460" lon="30.2130261250"><ele>13.12</ele><time>2026-09-01T11:16:57Z</time></trkpt><trkpt lat="59.8463454936" lon="30.2130199224"><ele>13.12</ele><time>2026-09-01T11:16:58Z</time></trkpt><trkpt lat="59.8463357706" lon="30.2130124625"><ele>13.12</ele><time>2026-09-01T11:16:59Z</time></trkpt><trkpt lat="59.8463234492" lon="30.2130035777"><ele>13.12</ele><time>2026-09-01T11:17:00Z</time></trkpt><trkpt lat="59.8463104572" lon="30.2129913401"><ele>13.12</ele><time>2026-09-01T11:17:01Z</time></trkpt><trkpt lat="59.8462981358" lon="30.2129796054"><ele>13.12</ele><time>2026-09-01T11:17:02Z</time></trkpt><trkpt lat="59.8461644445" lon="30.2128529549"><ele>13.12</ele><time>2026-09-01T11:17:14Z</time></trkpt><trkpt lat="59.8461196851" lon="30.2128369454"><ele>13.12</ele><time>2026-09-01T11:17:34Z</time></trkpt><trkpt lat="59.8461058550" lon="30.2128317486"><ele>13.12</ele><time>2026-09-01T11:17:59Z</time></trkpt><trkpt lat="59.8461044300" lon="30.2128336765"><ele>13.12</ele><time>2026-09-01T11:18:23Z</time></trkpt><trkpt lat="59.8461176734" lon="30.2128422260"><ele>13.60</ele><time>2026-09-01T11:18:56Z</time></trkpt><trkpt lat="59.8461179249" lon="30.2128423937"><ele>13.60</ele><time>2026-09-01T11:18:58Z</time></trkpt><trkpt lat="59.8460976407" lon="30.2128227800"><ele>13.60</ele><time>2026-09-01T11:18:59Z</time></trkpt><trkpt lat="59.8460667115" lon="30.2127843909"><ele>13.60</ele><time>2026-09-01T11:19:00Z</time></trkpt><trkpt lat="59.8458372150" lon="30.2124391403"><ele>13.12</ele><time>2026-09-01T11:19:09Z</time></trkpt><trkpt lat="59.8457551561" lon="30.2123489510"><ele>13.12</ele><time>2026-09-01T11:19:20Z</time></trkpt><trkpt lat="59.8457222991" lon="30.2123458497"><ele>13.12</ele><time>2026-09-01T11:19:21Z</time></trkpt><trkpt lat="59.8456807248" lon="30.2123721689"><ele>13.12</ele><time>2026-09-01T11:19:22Z</time></trkpt><trkpt lat="59.8456415813" lon="30.2124322671"><ele>13.12</ele><time>2026-09-01T11:19:23Z</time></trkpt><trkpt lat="59.8456126638" lon="30.2125285752"><ele>13.12</ele><time>2026-09-01T11:19:24Z</time></trkpt><trkpt lat="59.8455956485" lon="30.2126507834"><ele>13.12</ele><time>2026-09-01T11:19:25Z</time></trkpt><trkpt lat="59.8455907032" lon="30.2127900906"><ele>13.12</ele><time>2026-09-01T11:19:26Z</time></trkpt><trkpt lat="59.8455969896" lon="30.2129432280"><ele>13.12</ele><time>2026-09-01T11:19:27Z</time></trkpt><trkpt lat="59.8456121609" lon="30.2131189965"><ele>13.12</ele><time>2026-09-01T11:19:28Z</time></trkpt><trkpt lat="59.8458026815" lon="30.2151216008"><ele>14.08</ele><time>2026-09-01T11:19:36Z</time></trkpt><trkpt lat="59.8461808730" lon="30.2183746174"><ele>15.04</ele><time>2026-09-01T11:19:46Z</time></trkpt><trkpt lat="59.8470744677" lon="30.2220757306"><ele>15.04</ele><time>2026-09-01T11:19:58Z</time></trkpt><trkpt lat="59.8478587624" lon="30.2255798690"><ele>15.04</ele><time>2026-09-01T11:20:10Z</time></trkpt><trkpt lat="59.8480737582" lon="30.2267623879"><ele>15.04</ele><time>2026-09-01T11:20:16Z</time></trkpt><trkpt lat="59.8481068667" lon="30.2269981708"><ele>15.04</ele><time>2026-09-01T11:20:21Z</time></trkpt><trkpt lat="59.8481500335" lon="30.2272081375"><ele>15.04</ele><time>2026-09-01T11:20:42Z</time></trkpt><trkpt lat="59.8484422266" lon="30.2282162290"><ele>14.08</ele><time>2026-09-01T11:20:50Z</time></trkpt><trkpt lat="59.8490554467" lon="30.2301494312"><ele>16.48</ele><time>2026-09-01T11:20:59Z</time></trkpt><trkpt lat="59.8499331158" lon="30.2326008864"><ele>18.88</ele><time>2026-09-01T11:21:12Z</time></trkpt><trkpt lat="59.8505923524" lon="30.2342263050"><ele>15.52</ele><time>2026-09-01T11:21:22Z</time></trkpt><trkpt lat="59.8514220770" lon="30.2362324297"><ele>13.12</ele><time>2026-09-01T11:21:33Z</time></trkpt><trkpt lat="59.8528301530" lon="30.2397002745"><ele>13.12</ele><time>2026-09-01T11:21:48Z</time></trkpt><trkpt lat="59.8534680996" lon="30.2414447162"><ele>16.96</ele><time>2026-09-01T11:21:56Z</time></trkpt><trkpt lat="59.8538413458" lon="30.2425746806"><ele>18.40</ele><time>2026-09-01T11:22:05Z</time></trkpt><trkpt lat="59.8538479675" lon="30.2426672168"><ele>14.56</ele><time>2026-09-01T11:22:12Z</time></trkpt><trkpt lat="59.8538503144" lon="30.2426675521"><ele>10.71</ele><time>2026-09-01T11:22:16Z</time></trkpt><trkpt lat="59.8539874423" lon="30.2430389542"><ele>10.23</ele><time>2026-09-01T11:22:27Z</time></trkpt><trkpt lat="59.8544367962" lon="30.2442469541"><ele>11.67</ele><time>2026-09-01T11:22:34Z</time></trkpt><trkpt lat="59.8555365019" lon="30.2467563283"><ele>13.60</ele><time>2026-09-01T11:22:45Z</time></trkpt><trkpt lat="59.8558293656" lon="30.2474586479"><ele>16.96</ele><time>2026-09-01T11:22:48Z</time></trkpt><trkpt lat="59.8562140949" lon="30.2483714372"><ele>20.81</ele><time>2026-09-01T11:22:52Z</time></trkpt><trkpt lat="59.8569786083" lon="30.2500175592"><ele>16.96</ele><time>2026-09-01T11:23:01Z</time></trkpt><trkpt lat="59.8579263501" lon="30.2520190738"><ele>16.00</ele><time>2026-09-01T11:23:13Z</time></trkpt><trkpt lat="59.8581338860" lon="30.2524457127"><ele>16.00</ele><time>2026-09-01T11:23:20Z</time></trkpt><trkpt lat="59.8581315391" lon="30.2524429467"><ele>12.15</ele><time>2026-09-01T11:23:27Z</time></trkpt><trkpt lat="59.8581289407" lon="30.2524452098"><ele>9.27</ele><time>2026-09-01T11:23:31Z</time></trkpt><trkpt lat="59.8581244145" lon="30.2524567768"><ele>12.63</ele><time>2026-09-01T11:23:40Z</time></trkpt><trkpt lat="59.8581471294" lon="30.2524835989"><ele>12.15</ele><time>2026-09-01T11:24:09Z</time></trkpt><trkpt lat="59.8584300186" lon="30.2530664764"><ele>12.15</ele><time>2026-09-01T11:24:17Z</time></trkpt><trkpt lat="59.8584691621" lon="30.2531338669"><ele>12.15</ele><time>2026-09-01T11:24:18Z</time></trkpt><trkpt lat="59.8588185199" lon="30.2539015654"><ele>12.15</ele><time>2026-09-01T11:24:27Z</time></trkpt><trkpt lat="59.8590529617" lon="30.2543769870"><ele>12.15</ele><time>2026-09-01T11:24:35Z</time></trkpt><trkpt lat="59.8591527902" lon="30.2545583714"><ele>11.67</ele><time>2026-09-01T11:24:49Z</time></trkpt><trkpt lat="59.8595193308" lon="30.2552293427"><ele>11.67</ele><time>2026-09-01T11:24:57Z</time></trkpt><trkpt lat="59.8599157948" lon="30.2560015675"><ele>11.67</ele><time>2026-09-01T11:25:05Z</time></trkpt><trkpt lat="59.8599507473" lon="30.2560998034"><ele>11.67</ele><time>2026-09-01T11:25:06Z</time></trkpt><trkpt lat="59.8599657509" lon="30.2561866399"><ele>11.67</ele><time>2026-09-01T11:25:07Z</time></trkpt><trkpt lat="59.8599741329" lon="30.2562638372"><ele>11.67</ele><time>2026-09-01T11:25:08Z</time></trkpt><trkpt lat="59.8599719536" lon="30.2563313115"><ele>11.67</ele><time>2026-09-01T11:25:09Z</time></trkpt><trkpt lat="59.8599689361" lon="30.2564013004"><ele>11.67</ele><time>2026-09-01T11:25:10Z</time></trkpt><trkpt lat="59.8599634040" lon="30.2564778272"><ele>11.67</ele><time>2026-09-01T11:25:11Z</time></trkpt><trkpt lat="59.8599447124" lon="30.2565626521"><ele>11.67</ele><time>2026-09-01T11:25:12Z</time></trkpt><trkpt lat="59.8599156272" lon="30.2566513326"><ele>11.67</ele><time>2026-09-01T11:25:13Z</time></trkpt><trkpt lat="59.8598772381" lon="30.2567546815"><ele>11.67</ele><time>2026-09-01T11:25:14Z</time></trkpt><trkpt lat="59.8595615756" lon="30.2574321907"><ele>11.67</ele><time>2026-09-01T11:25:22Z</time></trkpt><trkpt lat="59.8595366813" lon="30.2574472781"><ele>12.15</ele><time>2026-09-01T11:25:35Z</time></trkpt><trkpt lat="59.8595060874" lon="30.2575212903"><ele>13.12</ele><time>2026-09-01T11:26:00Z</time></trkpt><trkpt lat="59.8591809534" lon="30.2583885659"><ele>13.12</ele><time>2026-09-01T11:26:06Z</time></trkpt><trkpt lat="59.8585843295" lon="30.2602464147"><ele>13.12</ele><time>2026-09-01T11:26:13Z</time></trkpt><trkpt lat="59.8573457357" lon="30.2648864686"><ele>13.12</ele><time>2026-09-01T11:26:28Z</time></trkpt><trkpt lat="59.8566599283" lon="30.2674054820"><ele>17.44</ele><time>2026-09-01T11:26:36Z</time></trkpt><trkpt lat="59.8564005084" lon="30.2683564927"><ele>20.81</ele><time>2026-09-01T11:26:39Z</time></trkpt><trkpt lat="59.8557944968" lon="30.2708375361"><ele>19.84</ele><time>2026-09-01T11:26:48Z</time></trkpt><trkpt lat="59.8555901460" lon="30.2727107238"><ele>18.40</ele><time>2026-09-01T11:26:58Z</time></trkpt><trkpt lat="59.8554967716" lon="30.2738355752"><ele>16.96</ele><time>2026-09-01T11:27:08Z</time></trkpt><trkpt lat="59.8554847017" lon="30.2741597872"><ele>14.08</ele><time>2026-09-01T11:27:11Z</time></trkpt><trkpt lat="59.8555258568" lon="30.2754321601"><ele>14.56</ele><time>2026-09-01T11:27:21Z</time></trkpt><trkpt lat="59.8555225879" lon="30.2760200668"><ele>16.48</ele><time>2026-09-01T11:27:28Z</time></trkpt><trkpt lat="59.8555246834" lon="30.2761402633"><ele>16.48</ele><time>2026-09-01T11:27:29Z</time></trkpt><trkpt lat="59.8555112723" lon="30.2777369320"><ele>16.48</ele><time>2026-09-01T11:27:36Z</time></trkpt><trkpt lat="59.8554853722" lon="30.2789003402"><ele>19.36</ele><time>2026-09-01T11:27:39Z</time></trkpt><trkpt lat="59.8554778285" lon="30.2799296379"><ele>23.69</ele><time>2026-09-01T11:27:42Z</time></trkpt><trkpt lat="59.8554772418" lon="30.2811753564"><ele>26.57</ele><time>2026-09-01T11:27:46Z</time></trkpt><trkpt lat="59.8555367533" lon="30.2833604347"><ele>23.21</ele><time>2026-09-01T11:27:53Z</time></trkpt><trkpt lat="59.8555639945" lon="30.2867888007"><ele>21.77</ele><time>2026-09-01T11:28:03Z</time></trkpt><trkpt lat="59.8555152956" lon="30.2901373710"><ele>20.32</ele><time>2026-09-01T11:28:13Z</time></trkpt><trkpt lat="59.8554924969" lon="30.2903395426"><ele>12.63</ele><time>2026-09-01T11:28:14Z</time></trkpt><trkpt lat="59.8554489948" lon="30.2905096114"><ele>12.15</ele><time>2026-09-01T11:28:15Z</time></trkpt><trkpt lat="59.8553827778" lon="30.2906314004"><ele>13.12</ele><time>2026-09-01T11:28:16Z</time></trkpt><trkpt lat="59.8553075921" lon="30.2907204162"><ele>16.48</ele><time>2026-09-01T11:28:17Z</time></trkpt><trkpt lat="59.8552232701" lon="30.2907751501"><ele>17.92</ele><time>2026-09-01T11:28:18Z</time></trkpt><trkpt lat="59.8551246990" lon="30.2908011340"><ele>16.96</ele><time>2026-09-01T11:28:19Z</time></trkpt><trkpt lat="59.8550161533" lon="30.2907972783"><ele>16.96</ele><time>2026-09-01T11:28:20Z</time></trkpt><trkpt lat="59.8548993934" lon="30.2907763235"><ele>16.96</ele><time>2026-09-01T11:28:21Z</time></trkpt><trkpt lat="59.8537099175" lon="30.2905037440"><ele>28.98</ele><time>2026-09-01T11:28:29Z</time></trkpt><trkpt lat="59.8531712964" lon="30.2903658617"><ele>32.82</ele><time>2026-09-01T11:28:32Z</time></trkpt><trkpt lat="59.8523878399" lon="30.2901662048"><ele>36.19</ele><time>2026-09-01T11:28:36Z</time></trkpt><trkpt lat="59.8513660021" lon="30.2898353711"><ele>33.30</ele><time>2026-09-01T11:28:41Z</time></trkpt><trkpt lat="59.8490147106" lon="30.2886305563"><ele>30.90</ele><time>2026-09-01T11:28:53Z</time></trkpt></trkseg><trkseg><trkpt lat="59.2491455376" lon="30.7034585718"><ele>70.79</ele><time>2026-09-01T12:51:35Z</time></trkpt><trkpt lat="59.2493607849" lon="30.7036319096"><ele>70.79</ele><time>2026-09-01T12:52:02Z</time></trkpt><trkpt lat="59.2493565101" lon="30.7034739945"><ele>72.72</ele><time>2026-09-01T12:52:22Z</time></trkpt><trkpt lat="59.2493423447" lon="30.7034512796"><ele>73.20</ele><time>2026-09-01T12:52:50Z</time></trkpt><trkpt lat="59.2494746950" lon="30.7034172490"><ele>73.20</ele><time>2026-09-01T12:53:09Z</time></trkpt><trkpt lat="59.2494457774" lon="30.7034274749"><ele>73.20</ele><time>2026-09-01T12:53:31Z</time></trkpt><trkpt lat="59.2493860982" lon="30.7034411374"><ele>73.20</ele><time>2026-09-01T12:53:52Z</time></trkpt><trkpt lat="59.2493749503" lon="30.7034617569"><ele>73.20</ele><time>2026-09-01T12:54:15Z</time></trkpt><trkpt lat="59.2493699212" lon="30.7034439873"><ele>73.20</ele><time>2026-09-01T12:54:33Z</time></trkpt><trkpt lat="59.2493553367" lon="30.7034132257"><ele>73.20</ele><time>2026-09-01T12:55:01Z</time></trkpt><trkpt lat="59.2493575159" lon="30.7034232840"><ele>72.72</ele><time>2026-09-01T12:55:33Z</time></trkpt><trkpt lat="59.2493575159" lon="30.7034362759"><ele>73.68</ele><time>2026-09-01T12:56:01Z</time></trkpt><trkpt lat="59.2493463680" lon="30.7034363598"><ele>73.20</ele><time>2026-09-01T12:56:28Z</time></trkpt><trkpt lat="59.2493487149" lon="30.7034326717"><ele>73.20</ele><time>2026-09-01T12:56:54Z</time></trkpt><trkpt lat="59.2493569292" lon="30.7034229487"><ele>73.20</ele><time>2026-09-01T12:57:19Z</time></trkpt><trkpt lat="59.2493617069" lon="30.7034090348"><ele>72.72</ele><time>2026-09-01T12:57:53Z</time></trkpt><trkpt lat="59.2493588571" lon="30.7033871580"><ele>72.72</ele><time>2026-09-01T12:58:23Z</time></trkpt><trkpt lat="59.2493612040" lon="30.7033978868"><ele>72.72</ele><time>2026-09-01T12:58:54Z</time></trkpt><trkpt lat="59.2493714299" lon="30.7034029160"><ele>72.24</ele><time>2026-09-01T12:59:26Z</time></trkpt><trkpt lat="59.2493739445" lon="30.7033972163"><ele>72.24</ele><time>2026-09-01T12:59:57Z</time></trkpt><trkpt lat="59.2493715137" lon="30.7033906784"><ele>72.24</ele><time>2026-09-01T13:00:28Z</time></trkpt><trkpt lat="59.2493772134" lon="30.7033827994"><ele>71.76</ele><time>2026-09-01T13:00:52Z</time></trkpt><trkpt lat="59.2493771296" lon="30.7033685502"><ele>71.76</ele><time>2026-09-01T13:01:17Z</time></trkpt><trkpt lat="59.2493791413" lon="30.7033691369"><ele>71.76</ele><time>2026-09-01T13:01:48Z</time></trkpt><trkpt lat="59.2493710946" lon="30.7033895887"><ele>71.27</ele><time>2026-09-01T13:02:25Z</time></trkpt><trkpt lat="59.2493721005" lon="30.7033943664"><ele>71.27</ele><time>2026-09-01T13:02:54Z</time></trkpt><trkpt lat="59.2493744474" lon="30.7033952884"><ele>71.27</ele><time>2026-09-01T13:03:24Z</time></trkpt><trkpt lat="59.2493778840" lon="30.7033965457"><ele>70.79</ele><time>2026-09-01T13:03:54Z</time></trkpt><trkpt lat="59.2493811529" lon="30.7034045924"><ele>70.79</ele><time>2026-09-01T13:04:25Z</time></trkpt><trkpt lat="59.2493972462" lon="30.7034172490"><ele>70.79</ele><time>2026-09-01T13:04:47Z</time></trkpt><trkpt lat="59.2494331207" lon="30.7034410536"><ele>70.31</ele><time>2026-09-01T13:05:12Z</time></trkpt><trkpt lat="59.2494028620" lon="30.7034788560"><ele>70.31</ele><time>2026-09-01T13:05:39Z</time></trkpt><trkpt lat="59.2494269181" lon="30.7034568954"><ele>70.31</ele><time>2026-09-01T13:06:09Z</time></trkpt><trkpt lat="59.2494270019" lon="30.7034481782"><ele>70.31</ele><time>2026-09-01T13:06:36Z</time></trkpt><trkpt lat="59.2494166084" lon="30.7034292351"><ele>70.79</ele><time>2026-09-01T13:06:49Z</time></trkpt><trkpt lat="59.2494176142" lon="30.7034055982"><ele>70.79</ele><time>2026-09-01T13:07:03Z</time></trkpt><trkpt lat="59.2494235653" lon="30.7033952046"><ele>70.79</ele><time>2026-09-01T13:07:19Z</time></trkpt><trkpt lat="59.2494197935" lon="30.7033856492"><ele>70.79</ele><time>2026-09-01T13:07:38Z</time></trkpt><trkpt lat="59.2494264990" lon="30.7033800334"><ele>70.79</ele><time>2026-09-01T13:07:52Z</time></trkpt><trkpt lat="59.2494294327" lon="30.7033916004"><ele>70.79</ele><time>2026-09-01T13:08:22Z</time></trkpt><trkpt lat="59.2494316958" lon="30.7033952046"><ele>70.79</ele><time>2026-09-01T13:08:51Z</time></trkpt><trkpt lat="59.2494389880" lon="30.7034095377"><ele>70.79</ele><time>2026-09-01T13:09:23Z</time></trkpt><trkpt lat="59.2494420055" lon="30.7034115493"><ele>70.79</ele><time>2026-09-01T13:09:36Z</time></trkpt><trkpt lat="59.2494662292" lon="30.7034074422"><ele>70.79</ele><time>2026-09-01T13:09:40Z</time></trkpt><trkpt lat="59.2494868487" lon="30.7034118846"><ele>70.79</ele><time>2026-09-01T13:09:41Z</time></trkpt><trkpt lat="59.2495168559" lon="30.7033865713"><ele>70.31</ele><time>2026-09-01T13:09:46Z</time></trkpt><trkpt lat="59.2495727632" lon="30.7033274788"><ele>70.31</ele><time>2026-09-01T13:09:57Z</time></trkpt><trkpt lat="59.2498432472" lon="30.7034397125"><ele>76.08</ele><time>2026-09-01T13:10:17Z</time></trkpt><trkpt lat="59.2498497013" lon="30.7034653611"><ele>76.08</ele><time>2026-09-01T13:10:18Z</time></trkpt><trkpt lat="59.2499449197" lon="30.7033532113"><ele>75.12</ele><time>2026-09-01T13:10:31Z</time></trkpt><trkpt lat="59.2499564867" lon="30.7033573184"><ele>75.12</ele><time>2026-09-01T13:10:54Z</time></trkpt><trkpt lat="59.2499211151" lon="30.7032081205"><ele>74.64</ele><time>2026-09-01T13:11:10Z</time></trkpt><trkpt lat="59.2499377113" lon="30.7033506129"><ele>74.64</ele><time>2026-09-01T13:11:27Z</time></trkpt><trkpt lat="59.2500123102" lon="30.7035099529"><ele>74.16</ele><time>2026-09-01T13:11:41Z</time></trkpt><trkpt lat="59.2500711512" lon="30.7035467494"><ele>74.16</ele><time>2026-09-01T13:11:55Z</time></trkpt><trkpt lat="59.2500992306" lon="30.7035306562"><ele>74.16</ele><time>2026-09-01T13:12:10Z</time></trkpt><trkpt lat="59.2501722369" lon="30.7035420556"><ele>74.16</ele><time>2026-09-01T13:12:24Z</time></trkpt><trkpt lat="59.2502149846" lon="30.7035358530"><ele>74.16</ele><time>2026-09-01T13:12:38Z</time></trkpt><trkpt lat="59.2503189202" lon="30.7035743259"><ele>73.68</ele><time>2026-09-01T13:12:50Z</time></trkpt><trkpt lat="59.2503899150" lon="30.7036036626"><ele>73.68</ele><time>2026-09-01T13:13:05Z</time></trkpt><trkpt lat="59.2504854687" lon="30.7036951091"><ele>73.68</ele><time>2026-09-01T13:13:19Z</time></trkpt><trkpt lat="59.2505914997" lon="30.7037948538"><ele>73.68</ele><time>2026-09-01T13:13:23Z</time></trkpt><trkpt lat="59.2507303040" lon="30.7039242703"><ele>73.20</ele><time>2026-09-01T13:13:35Z</time></trkpt><trkpt lat="59.2507875524" lon="30.7039747294"><ele>73.20</ele><time>2026-09-01T13:13:45Z</time></trkpt><trkpt lat="59.2508345749" lon="30.7040261105"><ele>73.20</ele><time>2026-09-01T13:13:57Z</time></trkpt><trkpt lat="59.2509319726" lon="30.7040992007"><ele>73.20</ele><time>2026-09-01T13:14:09Z</time></trkpt><trkpt lat="59.2510471400" lon="30.7041516714"><ele>72.72</ele><time>2026-09-01T13:14:19Z</time></trkpt><trkpt lat="59.2510958388" lon="30.7041902281"><ele>72.72</ele><time>2026-09-01T13:14:29Z</time></trkpt><trkpt lat="59.2511533387" lon="30.7042424474"><ele>72.72</ele><time>2026-09-01T13:14:37Z</time></trkpt><trkpt lat="59.2512637284" lon="30.7043308765"><ele>72.72</ele><time>2026-09-01T13:14:50Z</time></trkpt><trkpt lat="59.2513610423" lon="30.7043175492"><ele>72.24</ele><time>2026-09-01T13:15:02Z</time></trkpt><trkpt lat="59.2513969168" lon="30.7043219078"><ele>72.24</ele><time>2026-09-01T13:15:13Z</time></trkpt><trkpt lat="59.2515275069" lon="30.7044319622"><ele>72.24</ele><time>2026-09-01T13:15:26Z</time></trkpt><trkpt lat="59.2516468652" lon="30.7044317108"><ele>71.76</ele><time>2026-09-01T13:15:33Z</time></trkpt><trkpt lat="59.2517497949" lon="30.7045007776"><ele>71.76</ele><time>2026-09-01T13:15:40Z</time></trkpt><trkpt lat="59.2518647108" lon="30.7045338862"><ele>71.76</ele><time>2026-09-01T13:15:52Z</time></trkpt><trkpt lat="59.2519313470" lon="30.7045799028"><ele>71.27</ele><time>2026-09-01T13:16:17Z</time></trkpt><trkpt lat="59.2520106398" lon="30.7046260871"><ele>71.27</ele><time>2026-09-01T13:16:28Z</time></trkpt><trkpt lat="59.2520522978" lon="30.7046521548"><ele>71.27</ele><time>2026-09-01T13:16:46Z</time></trkpt><trkpt lat="59.2520637810" lon="30.7046693377"><ele>70.79</ele><time>2026-09-01T13:16:59Z</time></trkpt><trkpt lat="59.2521057744" lon="30.7047357224"><ele>70.79</ele><time>2026-09-01T13:17:08Z</time></trkpt><trkpt lat="59.2521612626" lon="30.7048014365"><ele>70.79</ele><time>2026-09-01T13:17:21Z</time></trkpt><trkpt lat="59.2521372903" lon="30.7048756164"><ele>70.79</ele><time>2026-09-01T13:17:37Z</time></trkpt><trkpt lat="59.2521213647" lon="30.7049202919"><ele>70.79</ele><time>2026-09-01T13:17:40Z</time></trkpt><trkpt lat="59.2521074507" lon="30.7051279116"><ele>69.83</ele><time>2026-09-01T13:17:53Z</time></trkpt><trkpt lat="59.2521433253" lon="30.7051434182"><ele>69.35</ele><time>2026-09-01T13:18:10Z</time></trkpt><trkpt lat="59.2521688063" lon="30.7051507104"><ele>69.35</ele><time>2026-09-01T13:18:15Z</time></trkpt><trkpt lat="59.2522256356" lon="30.7052214537"><ele>69.35</ele><time>2026-09-01T13:18:24Z</time></trkpt><trkpt lat="59.2522276472" lon="30.7052273210"><ele>68.87</ele><time>2026-09-01T13:18:51Z</time></trkpt><trkpt lat="59.2522412259" lon="30.7052339427"><ele>68.87</ele><time>2026-09-01T13:19:15Z</time></trkpt><trkpt lat="59.2522494402" lon="30.7052395586"><ele>68.87</ele><time>2026-09-01T13:19:26Z</time></trkpt><trkpt lat="59.2522677965" lon="30.7052703202"><ele>68.39</ele><time>2026-09-01T13:19:44Z</time></trkpt><trkpt lat="59.2522995640" lon="30.7053246349"><ele>69.35</ele><time>2026-09-01T13:20:07Z</time></trkpt><trkpt lat="59.2523553036" lon="30.7055318356"><ele>69.35</ele><time>2026-09-01T13:20:20Z</time></trkpt><trkpt lat="59.2523997277" lon="30.7057109568"><ele>69.35</ele><time>2026-09-01T13:20:34Z</time></trkpt><trkpt lat="59.2524236999" lon="30.7057796046"><ele>69.35</ele><time>2026-09-01T13:20:44Z</time></trkpt><trkpt lat="59.2524330877" lon="30.7058117911"><ele>68.87</ele><time>2026-09-01T13:20:57Z</time></trkpt><trkpt lat="59.2524493486" lon="30.7058127970"><ele>68.87</ele><time>2026-09-01T13:21:21Z</time></trkpt><trkpt lat="59.2524858098" lon="30.7058546226"><ele>68.87</ele><time>2026-09-01T13:21:33Z</time></trkpt><trkpt lat="59.2525863927" lon="30.7059538644"><ele>68.87</ele><time>2026-09-01T13:21:46Z</time></trkpt><trkpt lat="59.2526429705" lon="30.7061047386"><ele>68.39</ele><time>2026-09-01T13:22:01Z</time></trkpt><trkpt lat="59.2526122089" lon="30.7062213309"><ele>68.39</ele><time>2026-09-01T13:22:19Z</time></trkpt><trkpt lat="59.2526417971" lon="30.7062974386"><ele>68.39</ele><time>2026-09-01T13:22:37Z</time></trkpt><trkpt lat="59.2526899092" lon="30.7063487358"><ele>67.91</ele><time>2026-09-01T13:22:54Z</time></trkpt><trkpt lat="59.2527510133" lon="30.7062917389"><ele>67.91</ele><time>2026-09-01T13:23:07Z</time></trkpt><trkpt lat="59.2527806014" lon="30.7063432876"><ele>67.91</ele><time>2026-09-01T13:23:18Z</time></trkpt><trkpt lat="59.2528066691" lon="30.7063455507"><ele>67.91</ele><time>2026-09-01T13:23:32Z</time></trkpt><trkpt lat="59.2528827768" lon="30.7063247636"><ele>67.91</ele><time>2026-09-01T13:23:44Z</time></trkpt><trkpt lat="59.2529888079" lon="30.7063693553"><ele>67.91</ele><time>2026-09-01T13:23:57Z</time></trkpt><trkpt lat="59.2530868761" lon="30.7064701896"><ele>67.43</ele><time>2026-09-01T13:24:10Z</time></trkpt><trkpt lat="59.2531162128" lon="30.7064890489"><ele>67.43</ele><time>2026-09-01T13:24:21Z</time></trkpt><trkpt lat="59.2531595472" lon="30.7065722812"><ele>67.43</ele><time>2026-09-01T13:24:37Z</time></trkpt><trkpt lat="59.2531635705" lon="30.7066379953"><ele>67.43</ele><time>2026-09-01T13:25:01Z</time></trkpt><trkpt lat="59.2531364132" lon="30.7066433597"><ele>66.95</ele><time>2026-09-01T13:25:23Z</time></trkpt><trkpt lat="59.2531316355" lon="30.7066448685"><ele>66.95</ele><time>2026-09-01T13:25:49Z</time></trkpt><trkpt lat="59.2531547695" lon="30.7066884544"><ele>66.47</ele><time>2026-09-01T13:26:09Z</time></trkpt><trkpt lat="59.2532254290" lon="30.7068401668"><ele>66.47</ele><time>2026-09-01T13:26:23Z</time></trkpt><trkpt lat="59.2533227429" lon="30.7069949806"><ele>66.47</ele><time>2026-09-01T13:26:37Z</time></trkpt><trkpt lat="59.2534089088" lon="30.7070544921"><ele>66.47</ele><time>2026-09-01T13:26:51Z</time></trkpt><trkpt lat="59.2535192147" lon="30.7072115690"><ele>66.47</ele><time>2026-09-01T13:27:05Z</time></trkpt><trkpt lat="59.2535216454" lon="30.7072755229"><ele>65.99</ele><time>2026-09-01T13:27:17Z</time></trkpt><trkpt lat="59.2536228988" lon="30.7074030954"><ele>65.99</ele><time>2026-09-01T13:27:31Z</time></trkpt><trkpt lat="59.2536297720" lon="30.7074667141"><ele>65.99</ele><time>2026-09-01T13:27:47Z</time></trkpt><trkpt lat="59.2536595277" lon="30.7074793708"><ele>65.99</ele><time>2026-09-01T13:28:02Z</time></trkpt><trkpt lat="59.2536841705" lon="30.7074696478"><ele>65.51</ele><time>2026-09-01T13:28:15Z</time></trkpt><trkpt lat="59.2537535727" lon="30.7074620202"><ele>65.51</ele><time>2026-09-01T13:28:31Z</time></trkpt><trkpt lat="59.2538263276" lon="30.7073036022"><ele>65.51</ele><time>2026-09-01T13:28:42Z</time></trkpt><trkpt lat="59.2538487073" lon="30.7072558254"><ele>65.51</ele><time>2026-09-01T13:28:54Z</time></trkpt><trkpt lat="59.2538862582" lon="30.7072729245"><ele>65.51</ele><time>2026-09-01T13:29:03Z</time></trkpt><trkpt lat="59.2539285030" lon="30.7072545681"><ele>65.51</ele><time>2026-09-01T13:29:16Z</time></trkpt><trkpt lat="59.2539845780" lon="30.7072680630"><ele>65.03</ele><time>2026-09-01T13:29:27Z</time></trkpt><trkpt lat="59.2541000806" lon="30.7072609384"><ele>65.03</ele><time>2026-09-01T13:29:40Z</time></trkpt><trkpt lat="59.2541547306" lon="30.7071868423"><ele>65.03</ele><time>2026-09-01T13:29:54Z</time></trkpt><trkpt lat="59.2541616876" lon="30.7071474474"><ele>63.58</ele><time>2026-09-01T13:30:01Z</time></trkpt><trkpt lat="59.2542080395" lon="30.7070970722"><ele>63.58</ele><time>2026-09-01T13:30:15Z</time></trkpt><trkpt lat="59.2542478535" lon="30.7070699986"><ele>63.58</ele><time>2026-09-01T13:30:28Z</time></trkpt><trkpt lat="59.2542799562" lon="30.7071317732"><ele>63.10</ele><time>2026-09-01T13:30:41Z</time></trkpt><trkpt lat="59.2543745879" lon="30.7072477788"><ele>64.07</ele><time>2026-09-01T13:30:58Z</time></trkpt><trkpt lat="59.2544230353" lon="30.7073779497"><ele>63.58</ele><time>2026-09-01T13:31:11Z</time></trkpt><trkpt lat="59.2544656154" lon="30.7074772753"><ele>63.58</ele><time>2026-09-01T13:31:29Z</time></trkpt><trkpt lat="59.2544521205" lon="30.7076034229"><ele>63.58</ele><time>2026-09-01T13:31:46Z</time></trkpt><trkpt lat="59.2544523720" lon="30.7076714002"><ele>63.10</ele><time>2026-09-01T13:32:18Z</time></trkpt><trkpt lat="59.2544695549" lon="30.7076488528"><ele>63.10</ele><time>2026-09-01T13:32:36Z</time></trkpt><trkpt lat="59.2545453273" lon="30.7074553985"><ele>63.10</ele><time>2026-09-01T13:32:44Z</time></trkpt><trkpt lat="59.2545909248" lon="30.7073039375"><ele>62.62</ele><time>2026-09-01T13:32:57Z</time></trkpt><trkpt lat="59.2546494305" lon="30.7072992437"><ele>62.62</ele><time>2026-09-01T13:33:10Z</time></trkpt><trkpt lat="59.2546755821" lon="30.7073590904"><ele>62.62</ele><time>2026-09-01T13:33:22Z</time></trkpt><trkpt lat="59.2546987999" lon="30.7073689811"><ele>62.62</ele><time>2026-09-01T13:33:24Z</time></trkpt><trkpt lat="59.2547730636" lon="30.7075155806"><ele>62.62</ele><time>2026-09-01T13:33:38Z</time></trkpt><trkpt lat="59.2548634205" lon="30.7075822167"><ele>62.62</ele><time>2026-09-01T13:33:55Z</time></trkpt><trkpt lat="59.2549583036" lon="30.7074768562"><ele>62.62</ele><time>2026-09-01T13:34:10Z</time></trkpt><trkpt lat="59.2550022248" lon="30.7074939553"><ele>62.62</ele><time>2026-09-01T13:34:22Z</time></trkpt><trkpt lat="59.2551123630" lon="30.7075262256"><ele>62.14</ele><time>2026-09-01T13:34:34Z</time></trkpt><trkpt lat="59.2551804241" lon="30.7075639442"><ele>62.14</ele><time>2026-09-01T13:34:46Z</time></trkpt><trkpt lat="59.2552150413" lon="30.7075918559"><ele>62.14</ele><time>2026-09-01T13:34:59Z</time></trkpt><trkpt lat="59.2552338168" lon="30.7076278143"><ele>62.14</ele><time>2026-09-01T13:35:10Z</time></trkpt><trkpt lat="59.2552686855" lon="30.7076646946"><ele>62.14</ele><time>2026-09-01T13:35:23Z</time></trkpt><trkpt lat="59.2553855292" lon="30.7077950332"><ele>62.14</ele><time>2026-09-01T13:35:37Z</time></trkpt><trkpt lat="59.2554816697" lon="30.7078147307"><ele>62.14</ele><time>2026-09-01T13:35:53Z</time></trkpt><trkpt lat="59.2555523291" lon="30.7077699713"><ele>62.14</ele><time>2026-09-01T13:36:06Z</time></trkpt><trkpt lat="59.2556058057" lon="30.7077643555"><ele>61.66</ele><time>2026-09-01T13:36:19Z</time></trkpt><trkpt lat="59.2556667421" lon="30.7078330033"><ele>61.66</ele><time>2026-09-01T13:36:33Z</time></trkpt><trkpt lat="59.2556845956" lon="30.7079023216"><ele>61.66</ele><time>2026-09-01T13:36:44Z</time></trkpt><trkpt lat="59.2557108309" lon="30.7079566363"><ele>61.66</ele><time>2026-09-01T13:36:59Z</time></trkpt><trkpt lat="59.2557317019" lon="30.7079756632"><ele>61.66</ele><time>2026-09-01T13:37:14Z</time></trkpt><trkpt lat="59.2557778861" lon="30.7080029882"><ele>61.66</ele><time>2026-09-01T13:37:27Z</time></trkpt><trkpt lat="59.2558278423" lon="30.7080531120"><ele>61.66</ele><time>2026-09-01T13:37:39Z</time></trkpt><trkpt lat="59.2558940593" lon="30.7081389427"><ele>61.18</ele><time>2026-09-01T13:37:51Z</time></trkpt><trkpt lat="59.2559378128" lon="30.7082250249"><ele>61.18</ele><time>2026-09-01T13:38:04Z</time></trkpt><trkpt lat="59.2559627909" lon="30.7082510926"><ele>61.18</ele><time>2026-09-01T13:38:18Z</time></trkpt><trkpt lat="59.2559975758" lon="30.7083030604"><ele>61.66</ele><time>2026-09-01T13:38:34Z</time></trkpt><trkpt lat="59.2560433410" lon="30.7084566168"><ele>61.66</ele><time>2026-09-01T13:38:49Z</time></trkpt><trkpt lat="59.2560808919" lon="30.7085716166"><ele>61.66</ele><time>2026-09-01T13:39:01Z</time></trkpt><trkpt lat="59.2561002541" lon="30.7086166274"><ele>61.66</ele><time>2026-09-01T13:39:16Z</time></trkpt><trkpt lat="59.2561335303" lon="30.7086700201"><ele>62.14</ele><time>2026-09-01T13:39:32Z</time></trkpt><trkpt lat="59.2562031839" lon="30.7087317109"><ele>60.70</ele><time>2026-09-01T13:39:53Z</time></trkpt><trkpt lat="59.2562262341" lon="30.7087528333"><ele>60.70</ele><time>2026-09-01T13:40:14Z</time></trkpt><trkpt lat="59.2562635336" lon="30.7087680046"><ele>60.70</ele><time>2026-09-01T13:40:31Z</time></trkpt><trkpt lat="59.2563004140" lon="30.7088367362"><ele>60.70</ele><time>2026-09-01T13:40:44Z</time></trkpt><trkpt lat="59.2563653737" lon="30.7089194655"><ele>60.70</ele><time>2026-09-01T13:40:59Z</time></trkpt><trkpt lat="59.2563844007" lon="30.7089104131"><ele>60.22</ele><time>2026-09-01T13:41:11Z</time></trkpt><trkpt lat="59.2564420681" lon="30.7089686673"><ele>60.22</ele><time>2026-09-01T13:41:26Z</time></trkpt><trkpt lat="59.2565022502" lon="30.7089931425"><ele>60.22</ele><time>2026-09-01T13:41:39Z</time></trkpt><trkpt lat="59.2565129790" lon="30.7089955732"><ele>60.22</ele><time>2026-09-01T13:42:10Z</time></trkpt><trkpt lat="59.2565208580" lon="30.7090096548"><ele>60.22</ele><time>2026-09-01T13:42:46Z</time></trkpt><trkpt lat="59.2565318383" lon="30.7089989260"><ele>60.22</ele><time>2026-09-01T13:43:09Z</time></trkpt><trkpt lat="59.2565428186" lon="30.7089418452"><ele>60.22</ele><time>2026-09-01T13:43:24Z</time></trkpt><trkpt lat="59.2565765977" lon="30.7087930664"><ele>60.22</ele><time>2026-09-01T13:43:35Z</time></trkpt><trkpt lat="59.2565670423" lon="30.7087768894"><ele>60.22</ele><time>2026-09-01T13:44:06Z</time></trkpt><trkpt lat="59.2565702274" lon="30.7087558508"><ele>59.74</ele><time>2026-09-01T13:44:33Z</time></trkpt><trkpt lat="59.2565844767" lon="30.7086719479"><ele>60.70</ele><time>2026-09-01T13:44:44Z</time></trkpt><trkpt lat="59.2565869074" lon="30.7086387556"><ele>60.70</ele><time>2026-09-01T13:44:50Z</time></trkpt><trkpt lat="59.2565997317" lon="30.7084609754"><ele>61.18</ele><time>2026-09-01T13:45:02Z</time></trkpt><trkpt lat="59.2566160765" lon="30.7083392702"><ele>60.70</ele><time>2026-09-01T13:45:12Z</time></trkpt><trkpt lat="59.2565947864" lon="30.7081885636"><ele>60.70</ele><time>2026-09-01T13:45:26Z</time></trkpt><trkpt lat="59.2565890867" lon="30.7081571314"><ele>60.70</ele><time>2026-09-01T13:45:38Z</time></trkpt><trkpt lat="59.2565950379" lon="30.7081523538"><ele>60.70</ele><time>2026-09-01T13:45:55Z</time></trkpt><trkpt lat="59.2565965466" lon="30.7080838736"><ele>60.70</ele><time>2026-09-01T13:46:03Z</time></trkpt><trkpt lat="59.2565650307" lon="30.7079319097"><ele>60.70</ele><time>2026-09-01T13:46:16Z</time></trkpt><trkpt lat="59.2565541342" lon="30.7078404631"><ele>60.70</ele><time>2026-09-01T13:46:27Z</time></trkpt><trkpt lat="59.2564954609" lon="30.7077525370"><ele>60.70</ele><time>2026-09-01T13:46:39Z</time></trkpt><trkpt lat="59.2564279027" lon="30.7076336816"><ele>60.70</ele><time>2026-09-01T13:46:50Z</time></trkpt><trkpt lat="59.2563796230" lon="30.7075948734"><ele>60.22</ele><time>2026-09-01T13:47:02Z</time></trkpt><trkpt lat="59.2563668825" lon="30.7075460069"><ele>60.22</ele><time>2026-09-01T13:47:13Z</time></trkpt><trkpt lat="59.2563551478" lon="30.7074278221"><ele>60.22</ele><time>2026-09-01T13:47:25Z</time></trkpt><trkpt lat="59.2563707381" lon="30.7072834857"><ele>60.70</ele><time>2026-09-01T13:47:36Z</time></trkpt><trkpt lat="59.2563780304" lon="30.7071984094"><ele>60.70</ele><time>2026-09-01T13:47:46Z</time></trkpt><trkpt lat="59.2563616019" lon="30.7071244810"><ele>60.70</ele><time>2026-09-01T13:47:56Z</time></trkpt><trkpt lat="59.2563659605" lon="30.7070468646"><ele>60.70</ele><time>2026-09-01T13:48:12Z</time></trkpt><trkpt lat="59.2563968897" lon="30.7069979142"><ele>60.70</ele><time>2026-09-01T13:48:25Z</time></trkpt><trkpt lat="59.2564391345" lon="30.7068664860"><ele>60.70</ele><time>2026-09-01T13:48:38Z</time></trkpt><trkpt lat="59.2564396374" lon="30.7067805715"><ele>60.70</ele><time>2026-09-01T13:48:48Z</time></trkpt><trkpt lat="59.2564531323" lon="30.7066594530"><ele>60.22</ele><time>2026-09-01T13:48:58Z</time></trkpt><trkpt lat="59.2564711533" lon="30.7065773942"><ele>60.22</ele><time>2026-09-01T13:49:10Z</time></trkpt><trkpt lat="59.2564756796" lon="30.7065126020"><ele>60.22</ele><time>2026-09-01T13:49:21Z</time></trkpt><trkpt lat="59.2564756796" lon="30.7064285316"><ele>60.22</ele><time>2026-09-01T13:49:30Z</time></trkpt><trkpt lat="59.2564877495" lon="30.7063261885"><ele>60.22</ele><time>2026-09-01T13:49:39Z</time></trkpt><trkpt lat="59.2564657051" lon="30.7061955146"><ele>60.22</ele><time>2026-09-01T13:49:50Z</time></trkpt><trkpt lat="59.2564209457" lon="30.7060690317"><ele>60.22</ele><time>2026-09-01T13:50:01Z</time></trkpt><trkpt lat="59.2564246338" lon="30.7059876435"><ele>60.22</ele><time>2026-09-01T13:50:11Z</time></trkpt><trkpt lat="59.2564167548" lon="30.7058795169"><ele>59.74</ele><time>2026-09-01T13:50:23Z</time></trkpt><trkpt lat="59.2564519588" lon="30.7057941053"><ele>59.74</ele><time>2026-09-01T13:50:34Z</time></trkpt><trkpt lat="59.2564791162" lon="30.7057369407"><ele>59.74</ele><time>2026-09-01T13:50:46Z</time></trkpt><trkpt lat="59.2565176729" lon="30.7056719810"><ele>59.74</ele><time>2026-09-01T13:50:58Z</time></trkpt><trkpt lat="59.2565760110" lon="30.7056756690"><ele>59.74</ele><time>2026-09-01T13:51:11Z</time></trkpt><trkpt lat="59.2566201836" lon="30.7056252938"><ele>59.74</ele><time>2026-09-01T13:51:21Z</time></trkpt><trkpt lat="59.2566283140" lon="30.7055298239"><ele>59.74</ele><time>2026-09-01T13:51:30Z</time></trkpt><trkpt lat="59.2566299066" lon="30.7055278122"><ele>59.26</ele><time>2026-09-01T13:51:45Z</time></trkpt><trkpt lat="59.2566340137" lon="30.7055218611"><ele>59.74</ele><time>2026-09-01T13:51:56Z</time></trkpt><trkpt lat="59.2566386238" lon="30.7055230346"><ele>59.74</ele><time>2026-09-01T13:52:23Z</time></trkpt><trkpt lat="59.2566473410" lon="30.7055096235"><ele>59.74</ele><time>2026-09-01T13:52:36Z</time></trkpt><trkpt lat="59.2566527054" lon="30.7055119704"><ele>59.74</ele><time>2026-09-01T13:52:57Z</time></trkpt><trkpt lat="59.2567007337" lon="30.7054867409"><ele>59.74</ele><time>2026-09-01T13:53:08Z</time></trkpt><trkpt lat="59.2567439843" lon="30.7054725755"><ele>59.74</ele><time>2026-09-01T13:53:21Z</time></trkpt><trkpt lat="59.2567718122" lon="30.7054622658"><ele>59.74</ele><time>2026-09-01T13:53:25Z</time></trkpt><trkpt lat="59.2568340898" lon="30.7054083701"><ele>59.26</ele><time>2026-09-01T13:53:36Z</time></trkpt><trkpt lat="59.2568704672" lon="30.7053662930"><ele>59.26</ele><time>2026-09-01T13:53:46Z</time></trkpt><trkpt lat="59.2569024861" lon="30.7053568214"><ele>59.26</ele><time>2026-09-01T13:53:56Z</time></trkpt><trkpt lat="59.2569309007" lon="30.7052791212"><ele>59.26</ele><time>2026-09-01T13:54:06Z</time></trkpt><trkpt lat="59.2569402885" lon="30.7052450906"><ele>59.26</ele><time>2026-09-01T13:54:16Z</time></trkpt><trkpt lat="59.2569596507" lon="30.7052175980"><ele>59.26</ele><time>2026-09-01T13:54:23Z</time></trkpt><trkpt lat="59.2569649313" lon="30.7051855791"><ele>59.26</ele><time>2026-09-01T13:54:25Z</time></trkpt><trkpt lat="59.2569696251" lon="30.7050856669"><ele>59.26</ele><time>2026-09-01T13:54:35Z</time></trkpt><trkpt lat="59.2569600698" lon="30.7050301787"><ele>59.26</ele><time>2026-09-01T13:54:48Z</time></trkpt><trkpt lat="59.2569583934" lon="30.7050257362"><ele>58.78</ele><time>2026-09-01T13:54:57Z</time></trkpt><trkpt lat="59.2570127919" lon="30.7049612794"><ele>58.78</ele><time>2026-09-01T13:55:05Z</time></trkpt><trkpt lat="59.2570583057" lon="30.7048620377"><ele>58.78</ele><time>2026-09-01T13:55:13Z</time></trkpt><trkpt lat="59.2570828646" lon="30.7047859300"><ele>58.78</ele><time>2026-09-01T13:55:23Z</time></trkpt><trkpt lat="59.2570831161" lon="30.7046675775"><ele>58.78</ele><time>2026-09-01T13:55:36Z</time></trkpt><trkpt lat="59.2570857983" lon="30.7046338823"><ele>58.78</ele><time>2026-09-01T13:55:49Z</time></trkpt><trkpt lat="59.2570987064" lon="30.7046296913"><ele>58.78</ele><time>2026-09-01T13:56:00Z</time></trkpt><trkpt lat="59.2571182363" lon="30.7046120055"><ele>58.78</ele><time>2026-09-01T13:56:05Z</time></trkpt><trkpt lat="59.2571043223" lon="30.7045456208"><ele>58.30</ele><time>2026-09-01T13:56:16Z</time></trkpt><trkpt lat="59.2571027298" lon="30.7044414338"><ele>58.30</ele><time>2026-09-01T13:56:24Z</time></trkpt><trkpt lat="59.2571034003" lon="30.7042931579"><ele>58.30</ele><time>2026-09-01T13:56:35Z</time></trkpt><trkpt lat="59.2571142968" lon="30.7042044774"><ele>58.30</ele><time>2026-09-01T13:56:47Z</time></trkpt><trkpt lat="59.2571174819" lon="30.7041750569"><ele>58.30</ele><time>2026-09-01T13:56:49Z</time></trkpt><trkpt lat="59.2571443878" lon="30.7041493244"><ele>58.30</ele><time>2026-09-01T13:56:58Z</time></trkpt><trkpt lat="59.2571826093" lon="30.7041364163"><ele>58.30</ele><time>2026-09-01T13:57:08Z</time></trkpt><trkpt lat="59.2572092637" lon="30.7041656692"><ele>58.30</ele><time>2026-09-01T13:57:20Z</time></trkpt><trkpt lat="59.2572311405" lon="30.7040940039"><ele>58.30</ele><time>2026-09-01T13:57:31Z</time></trkpt><trkpt lat="59.2572495807" lon="30.7040483225"><ele>58.30</ele><time>2026-09-01T13:57:39Z</time></trkpt><trkpt lat="59.2572553642" lon="30.7039867993"><ele>57.82</ele><time>2026-09-01T13:57:50Z</time></trkpt><trkpt lat="59.2572684400" lon="30.7039860450"><ele>57.82</ele><time>2026-09-01T13:57:56Z</time></trkpt><trkpt lat="59.2573296279" lon="30.7038900722"><ele>57.82</ele><time>2026-09-01T13:58:09Z</time></trkpt><trkpt lat="59.2573525943" lon="30.7038221788"><ele>57.82</ele><time>2026-09-01T13:58:18Z</time></trkpt><trkpt lat="59.2573513370" lon="30.7038074266"><ele>57.82</ele><time>2026-09-01T13:58:34Z</time></trkpt><trkpt lat="59.2573282868" lon="30.7037883997"><ele>57.82</ele><time>2026-09-01T13:58:41Z</time></trkpt><trkpt lat="59.2573188152" lon="30.7037416287"><ele>57.82</ele><time>2026-09-01T13:58:51Z</time></trkpt><trkpt lat="59.2573255207" lon="30.7037094422"><ele>57.82</ele><time>2026-09-01T13:59:04Z</time></trkpt><trkpt lat="59.2573328130" lon="30.7036458235"><ele>57.82</ele><time>2026-09-01T13:59:17Z</time></trkpt><trkpt lat="59.2573420331" lon="30.7036195882"><ele>57.82</ele><time>2026-09-01T13:59:25Z</time></trkpt><trkpt lat="59.2573302146" lon="30.7035578974"><ele>57.82</ele><time>2026-09-01T13:59:35Z</time></trkpt><trkpt lat="59.2573152948" lon="30.7035195921"><ele>57.82</ele><time>2026-09-01T13:59:46Z</time></trkpt><trkpt lat="59.2572831921" lon="30.7034699712"><ele>57.82</ele><time>2026-09-01T13:59:57Z</time></trkpt><trkpt lat="59.2572905682" lon="30.7034219429"><ele>57.82</ele><time>2026-09-01T14:00:06Z</time></trkpt><trkpt lat="59.2573025543" lon="30.7033783570"><ele>57.82</ele><time>2026-09-01T14:00:19Z</time></trkpt><trkpt lat="59.2572998721" lon="30.7033328433"><ele>57.82</ele><time>2026-09-01T14:00:28Z</time></trkpt><trkpt lat="59.2572962679" lon="30.7032843120"><ele>57.82</ele><time>2026-09-01T14:00:40Z</time></trkpt><trkpt lat="59.2572901491" lon="30.7032138202"><ele>57.34</ele><time>2026-09-01T14:00:54Z</time></trkpt><trkpt lat="59.2572854552" lon="30.7031579968"><ele>57.34</ele><time>2026-09-01T14:01:10Z</time></trkpt><trkpt lat="59.2572649196" lon="30.7030719984"><ele>57.34</ele><time>2026-09-01T14:01:24Z</time></trkpt><trkpt lat="59.2572135385" lon="30.7029899396"><ele>57.34</ele><time>2026-09-01T14:01:37Z</time></trkpt><trkpt lat="59.2572038993" lon="30.7029551547"><ele>57.34</ele><time>2026-09-01T14:01:50Z</time></trkpt><trkpt lat="59.2571996246" lon="30.7028901111"><ele>57.82</ele><time>2026-09-01T14:02:06Z</time></trkpt><trkpt lat="59.2572217528" lon="30.7028202061"><ele>57.82</ele><time>2026-09-01T14:02:22Z</time></trkpt><trkpt lat="59.2572190706" lon="30.7027295139"><ele>57.34</ele><time>2026-09-01T14:02:38Z</time></trkpt><trkpt lat="59.2572053242" lon="30.7026847545"><ele>57.34</ele><time>2026-09-01T14:02:40Z</time></trkpt><trkpt lat="59.2571666837" lon="30.7024897914"><ele>57.34</ele><time>2026-09-01T14:02:52Z</time></trkpt><trkpt lat="59.2571862135" lon="30.7023885380"><ele>57.82</ele><time>2026-09-01T14:03:08Z</time></trkpt><trkpt lat="59.2572302185" lon="30.7023138553"><ele>57.82</ele><time>2026-09-01T14:03:20Z</time></trkpt><trkpt lat="59.2572563700" lon="30.7022491470"><ele>57.82</ele><time>2026-09-01T14:03:33Z</time></trkpt><trkpt lat="59.2572922446" lon="30.7021924853"><ele>57.82</ele><time>2026-09-01T14:03:46Z</time></trkpt><trkpt lat="59.2573411949" lon="30.7021487318"><ele>57.82</ele><time>2026-09-01T14:04:05Z</time></trkpt><trkpt lat="59.2573616467" lon="30.7020799164"><ele>57.82</ele><time>2026-09-01T14:04:20Z</time></trkpt><trkpt lat="59.2574044783" lon="30.7019870449"><ele>57.82</ele><time>2026-09-01T14:04:32Z</time></trkpt><trkpt lat="59.2574613914" lon="30.7019122783"><ele>57.82</ele><time>2026-09-01T14:04:43Z</time></trkpt><trkpt lat="59.2575296201" lon="30.7017864659"><ele>57.34</ele><time>2026-09-01T14:04:56Z</time></trkpt><trkpt lat="59.2575948313" lon="30.7016718015"><ele>57.34</ele><time>2026-09-01T14:05:09Z</time></trkpt><trkpt lat="59.2576050572" lon="30.7016518526"><ele>57.34</ele><time>2026-09-01T14:05:25Z</time></trkpt><trkpt lat="59.2576120142" lon="30.7016436383"><ele>57.34</ele><time>2026-09-01T14:05:53Z</time></trkpt><trkpt lat="59.2576369084" lon="30.7016182411"><ele>57.34</ele><time>2026-09-01T14:06:27Z</time></trkpt><trkpt lat="59.2576573603" lon="30.7015734818"><ele>57.34</ele><time>2026-09-01T14:06:40Z</time></trkpt><trkpt lat="59.2576725315" lon="30.7015169039"><ele>57.34</ele><time>2026-09-01T14:06:50Z</time></trkpt><trkpt lat="59.2576825898" lon="30.7013830449"><ele>57.34</ele><time>2026-09-01T14:07:04Z</time></trkpt><trkpt lat="59.2576941568" lon="30.7012729906"><ele>57.34</ele><time>2026-09-01T14:07:18Z</time></trkpt><trkpt lat="59.2576981802" lon="30.7011694741"><ele>56.86</ele><time>2026-09-01T14:07:32Z</time></trkpt><trkpt lat="59.2577058915" lon="30.7010543905"><ele>56.86</ele><time>2026-09-01T14:07:45Z</time></trkpt><trkpt lat="59.2577179614" lon="30.7009704039"><ele>56.86</ele><time>2026-09-01T14:07:58Z</time></trkpt><trkpt lat="59.2577574402" lon="30.7008763589"><ele>56.86</ele><time>2026-09-01T14:08:09Z</time></trkpt><trkpt lat="59.2577825021" lon="30.7007963117"><ele>56.86</ele><time>2026-09-01T14:08:22Z</time></trkpt><trkpt lat="59.2577863578" lon="30.7006908674"><ele>56.86</ele><time>2026-09-01T14:08:33Z</time></trkpt><trkpt lat="59.2577794008" lon="30.7005934697"><ele>56.86</ele><time>2026-09-01T14:08:46Z</time></trkpt><trkpt lat="59.2577877827" lon="30.7004873548"><ele>56.86</ele><time>2026-09-01T14:09:01Z</time></trkpt><trkpt lat="59.2578039598" lon="30.7003296074"><ele>56.37</ele><time>2026-09-01T14:09:14Z</time></trkpt><trkpt lat="59.2578024510" lon="30.7001891267"><ele>56.37</ele><time>2026-09-01T14:09:25Z</time></trkpt><trkpt lat="59.2578259204" lon="30.7000852749"><ele>56.37</ele><time>2026-09-01T14:09:36Z</time></trkpt><trkpt lat="59.2578467075" lon="30.6999791600"><ele>56.37</ele><time>2026-09-01T14:09:48Z</time></trkpt><trkpt lat="59.2578924727" lon="30.6999312993"><ele>56.37</ele><time>2026-09-01T14:09:56Z</time></trkpt><trkpt lat="59.2579619586" lon="30.6997348275"><ele>56.37</ele><time>2026-09-01T14:10:09Z</time></trkpt><trkpt lat="59.2579897866" lon="30.6995876413"><ele>55.89</ele><time>2026-09-01T14:10:22Z</time></trkpt><trkpt lat="59.2580003478" lon="30.6994481664"><ele>55.89</ele><time>2026-09-01T14:10:33Z</time></trkpt><trkpt lat="59.2580145970" lon="30.6993714720"><ele>55.89</ele><time>2026-09-01T14:10:46Z</time></trkpt><trkpt lat="59.2580355518" lon="30.6993319932"><ele>55.89</ele><time>2026-09-01T14:10:51Z</time></trkpt><trkpt lat="59.2580616195" lon="30.6991525367"><ele>56.37</ele><time>2026-09-01T14:11:03Z</time></trkpt><trkpt lat="59.2580589373" lon="30.6990296580"><ele>56.37</ele><time>2026-09-01T14:11:15Z</time></trkpt><trkpt lat="59.2580947280" lon="30.6989380438"><ele>56.37</ele><time>2026-09-01T14:11:26Z</time></trkpt><trkpt lat="59.2581275012" lon="30.6987714116"><ele>55.89</ele><time>2026-09-01T14:11:39Z</time></trkpt><trkpt lat="59.2581244837" lon="30.6987088826"><ele>55.89</ele><time>2026-09-01T14:11:53Z</time></trkpt><trkpt lat="59.2581286747" lon="30.6987166777"><ele>55.89</ele><time>2026-09-01T14:12:21Z</time></trkpt><trkpt lat="59.2581224721" lon="30.6986869220"><ele>56.37</ele><time>2026-09-01T14:12:43Z</time></trkpt><trkpt lat="59.2581234779" lon="30.6985676475"><ele>56.37</ele><time>2026-09-01T14:13:00Z</time></trkpt><trkpt lat="59.2581233941" lon="30.6984295975"><ele>56.37</ele><time>2026-09-01T14:13:12Z</time></trkpt><trkpt lat="59.2581493780" lon="30.6983362231"><ele>55.89</ele><time>2026-09-01T14:13:23Z</time></trkpt><trkpt lat="59.2581310216" lon="30.6982026156"><ele>55.89</ele><time>2026-09-01T14:13:35Z</time></trkpt><trkpt lat="59.2581238970" lon="30.6980631407"><ele>55.89</ele><time>2026-09-01T14:13:48Z</time></trkpt><trkpt lat="59.2580854241" lon="30.6979278568"><ele>55.89</ele><time>2026-09-01T14:13:59Z</time></trkpt><trkpt lat="59.2580976617" lon="30.6978068221"><ele>55.89</ele><time>2026-09-01T14:14:12Z</time></trkpt><trkpt lat="59.2580420058" lon="30.6977012102"><ele>55.89</ele><time>2026-09-01T14:14:25Z</time></trkpt><trkpt lat="59.2580478732" lon="30.6975437980"><ele>56.37</ele><time>2026-09-01T14:14:38Z</time></trkpt><trkpt lat="59.2580651399" lon="30.6974526029"><ele>56.37</ele><time>2026-09-01T14:14:47Z</time></trkpt><trkpt lat="59.2580644693" lon="30.6973832007"><ele>56.37</ele><time>2026-09-01T14:15:00Z</time></trkpt><trkpt lat="59.2580945604" lon="30.6972948555"><ele>56.37</ele><time>2026-09-01T14:15:11Z</time></trkpt><trkpt lat="59.2581617832" lon="30.6970916782"><ele>56.37</ele><time>2026-09-01T14:15:24Z</time></trkpt><trkpt lat="59.2582006752" lon="30.6970029976"><ele>56.37</ele><time>2026-09-01T14:15:36Z</time></trkpt><trkpt lat="59.2582311854" lon="30.6969499402"><ele>56.37</ele><time>2026-09-01T14:15:48Z</time></trkpt><trkpt lat="59.2582823988" lon="30.6967896782"><ele>56.37</ele><time>2026-09-01T14:16:02Z</time></trkpt><trkpt lat="59.2583015095" lon="30.6966727506"><ele>56.37</ele><time>2026-09-01T14:16:15Z</time></trkpt><trkpt lat="59.2583331093" lon="30.6966135744"><ele>56.86</ele><time>2026-09-01T14:16:27Z</time></trkpt><trkpt lat="59.2583708279" lon="30.6965424959"><ele>56.86</ele><time>2026-09-01T14:16:37Z</time></trkpt><trkpt lat="59.2584164254" lon="30.6964284182"><ele>56.86</ele><time>2026-09-01T14:16:47Z</time></trkpt><trkpt lat="59.2584160063" lon="30.6963377260"><ele>56.37</ele><time>2026-09-01T14:16:59Z</time></trkpt><trkpt lat="59.2583675589" lon="30.6962437648"><ele>56.37</ele><time>2026-09-01T14:17:32Z</time></trkpt><trkpt lat="59.2583394796" lon="30.6962337065"><ele>56.37</ele><time>2026-09-01T14:17:50Z</time></trkpt><trkpt lat="59.2583473586" lon="30.6962467823"><ele>57.34</ele><time>2026-09-01T14:18:14Z</time></trkpt><trkpt lat="59.2583279964" lon="30.6962547451"><ele>57.34</ele><time>2026-09-01T14:18:27Z</time></trkpt><trkpt lat="59.2582925409" lon="30.6962655578"><ele>57.34</ele><time>2026-09-01T14:18:39Z</time></trkpt><trkpt lat="59.2582321912" lon="30.6962107401"><ele>57.34</ele><time>2026-09-01T14:18:53Z</time></trkpt><trkpt lat="59.2581875995" lon="30.6962109916"><ele>57.34</ele><time>2026-09-01T14:19:19Z</time></trkpt><trkpt lat="59.2581284232" lon="30.6962795556"><ele>57.34</ele><time>2026-09-01T14:19:31Z</time></trkpt><trkpt lat="59.2580473702" lon="30.6963994168"><ele>57.34</ele><time>2026-09-01T14:19:45Z</time></trkpt><trkpt lat="59.2580277566" lon="30.6964822300"><ele>57.34</ele><time>2026-09-01T14:19:56Z</time></trkpt><trkpt lat="59.2579669878" lon="30.6965457648"><ele>57.34</ele><time>2026-09-01T14:20:09Z</time></trkpt><trkpt lat="59.2579338793" lon="30.6965824775"><ele>57.34</ele><time>2026-09-01T14:20:13Z</time></trkpt><trkpt lat="59.2577810772" lon="30.6967008300"><ele>57.34</ele><time>2026-09-01T14:20:27Z</time></trkpt><trkpt lat="59.2576592043" lon="30.6968199369"><ele>57.34</ele><time>2026-09-01T14:20:39Z</time></trkpt><trkpt lat="59.2575519998" lon="30.6968919374"><ele>56.86</ele><time>2026-09-01T14:20:51Z</time></trkpt><trkpt lat="59.2574789934" lon="30.6970082782"><ele>56.86</ele><time>2026-09-01T14:21:03Z</time></trkpt><trkpt lat="59.2574107647" lon="30.6971244514"><ele>56.86</ele><time>2026-09-01T14:21:18Z</time></trkpt><trkpt lat="59.2573710345" lon="30.6972165685"><ele>56.86</ele><time>2026-09-01T14:21:33Z</time></trkpt><trkpt lat="59.2573473137" lon="30.6973254494"><ele>56.86</ele><time>2026-09-01T14:21:47Z</time></trkpt><trkpt lat="59.2572917417" lon="30.6973847933"><ele>56.37</ele><time>2026-09-01T14:22:08Z</time></trkpt><trkpt lat="59.2572804261" lon="30.6974281278"><ele>56.37</ele><time>2026-09-01T14:22:33Z</time></trkpt><trkpt lat="59.2572903167" lon="30.6974904891"><ele>56.37</ele><time>2026-09-01T14:22:55Z</time></trkpt><trkpt lat="59.2573130317" lon="30.6975218374"><ele>54.93</ele><time>2026-09-01T14:23:14Z</time></trkpt><trkpt lat="59.2573228385" lon="30.6975370925"><ele>54.93</ele><time>2026-09-01T14:23:36Z</time></trkpt><trkpt lat="59.2573355790" lon="30.6975845341"><ele>54.93</ele><time>2026-09-01T14:23:53Z</time></trkpt><trkpt lat="59.2573341541" lon="30.6975927483"><ele>54.93</ele><time>2026-09-01T14:24:14Z</time></trkpt><trkpt lat="59.2573378421" lon="30.6975816004"><ele>54.93</ele><time>2026-09-01T14:24:28Z</time></trkpt><trkpt lat="59.2573372554" lon="30.6975446362"><ele>54.93</ele><time>2026-09-01T14:24:44Z</time></trkpt><trkpt lat="59.2573245987" lon="30.6975279562"><ele>54.93</ele><time>2026-09-01T14:24:59Z</time></trkpt><trkpt lat="59.2572682723" lon="30.6975172274"><ele>54.93</ele><time>2026-09-01T14:25:12Z</time></trkpt><trkpt lat="59.2572458088" lon="30.6974896509"><ele>54.93</ele><time>2026-09-01T14:25:37Z</time></trkpt><trkpt lat="59.2572215851" lon="30.6974914949"><ele>54.93</ele><time>2026-09-01T14:25:48Z</time></trkpt><trkpt lat="59.2572134547" lon="30.6974521000"><ele>54.93</ele><time>2026-09-01T14:26:11Z</time></trkpt><trkpt lat="59.2571462318" lon="30.6973800994"><ele>54.93</ele><time>2026-09-01T14:26:30Z</time></trkpt><trkpt lat="59.2571322341" lon="30.6973396987"><ele>54.93</ele><time>2026-09-01T14:26:43Z</time></trkpt><trkpt lat="59.2571417056" lon="30.6973747350"><ele>55.41</ele><time>2026-09-01T14:27:10Z</time></trkpt><trkpt lat="59.2571515962" lon="30.6973709632"><ele>55.89</ele><time>2026-09-01T14:27:29Z</time></trkpt><trkpt lat="59.2571525183" lon="30.6973761600"><ele>56.37</ele><time>2026-09-01T14:27:56Z</time></trkpt><trkpt lat="59.2571639176" lon="30.6973433029"><ele>56.37</ele><time>2026-09-01T14:28:22Z</time></trkpt><trkpt lat="59.2571713775" lon="30.6973386928"><ele>55.41</ele><time>2026-09-01T14:28:51Z</time></trkpt><trkpt lat="59.2571307253" lon="30.6972951069"><ele>55.41</ele><time>2026-09-01T14:29:02Z</time></trkpt><trkpt lat="59.2570604011" lon="30.6973039918"><ele>55.89</ele><time>2026-09-01T14:29:14Z</time></trkpt><trkpt lat="59.2570276279" lon="30.6973251142"><ele>55.89</ele><time>2026-09-01T14:29:26Z</time></trkpt><trkpt lat="59.2570207547" lon="30.6973200012"><ele>55.89</ele><time>2026-09-01T14:29:43Z</time></trkpt><trkpt lat="59.2569821980" lon="30.6973355077"><ele>55.89</ele><time>2026-09-01T14:29:54Z</time></trkpt><trkpt lat="59.2568814475" lon="30.6973396149"><ele>55.89</ele><time>2026-09-01T14:30:07Z</time></trkpt><trkpt lat="59.2568304855" lon="30.6973494217"><ele>55.89</ele><time>2026-09-01T14:30:18Z</time></trkpt><trkpt lat="59.2568174098" lon="30.6973036565"><ele>55.89</ele><time>2026-09-01T14:30:30Z</time></trkpt><trkpt lat="59.2567993049" lon="30.6973101106"><ele>55.89</ele><time>2026-09-01T14:30:41Z</time></trkpt><trkpt lat="59.2567399610" lon="30.6973302271"><ele>55.89</ele><time>2026-09-01T14:30:54Z</time></trkpt><trkpt lat="59.2566874903" lon="30.6972842943"><ele>55.41</ele><time>2026-09-01T14:31:04Z</time></trkpt><trkpt lat="59.2566474248" lon="30.6972232740"><ele>55.41</ele><time>2026-09-01T14:31:15Z</time></trkpt><trkpt lat="59.2566058505" lon="30.6971789338"><ele>55.41</ele><time>2026-09-01T14:31:29Z</time></trkpt><trkpt lat="59.2565537151" lon="30.6971545424"><ele>55.41</ele><time>2026-09-01T14:31:42Z</time></trkpt><trkpt lat="59.2564558145" lon="30.6970675383"><ele>55.41</ele><time>2026-09-01T14:31:53Z</time></trkpt><trkpt lat="59.2563584168" lon="30.6969654467"><ele>55.41</ele><time>2026-09-01T14:32:05Z</time></trkpt><trkpt lat="59.2563538905" lon="30.6969594955"><ele>56.86</ele><time>2026-09-01T14:32:07Z</time></trkpt><trkpt lat="59.2563202791" lon="30.6969417259"><ele>56.86</ele><time>2026-09-01T14:32:17Z</time></trkpt><trkpt lat="59.2562691495" lon="30.6969836354"><ele>56.86</ele><time>2026-09-01T14:32:28Z</time></trkpt><trkpt lat="59.2562339455" lon="30.6969159935"><ele>56.86</ele><time>2026-09-01T14:32:41Z</time></trkpt><trkpt lat="59.2562000826" lon="30.6968840584"><ele>56.86</ele><time>2026-09-01T14:32:51Z</time></trkpt><trkpt lat="59.2561350390" lon="30.6968293246"><ele>56.86</ele><time>2026-09-01T14:33:04Z</time></trkpt><trkpt lat="59.2561041098" lon="30.6967849843"><ele>56.86</ele><time>2026-09-01T14:33:17Z</time></trkpt><trkpt lat="59.2560305167" lon="30.6967545580"><ele>56.86</ele><time>2026-09-01T14:33:27Z</time></trkpt><trkpt lat="59.2560119089" lon="30.6967485230"><ele>56.86</ele><time>2026-09-01T14:33:41Z</time></trkpt><trkpt lat="59.2559932172" lon="30.6967475172"><ele>56.86</ele><time>2026-09-01T14:34:05Z</time></trkpt><trkpt lat="59.2559713405" lon="30.6967598386"><ele>56.86</ele><time>2026-09-01T14:34:28Z</time></trkpt><trkpt lat="59.2559365556" lon="30.6967757642"><ele>57.82</ele><time>2026-09-01T14:34:43Z</time></trkpt><trkpt lat="59.2558860965" lon="30.6968286540"><ele>57.82</ele><time>2026-09-01T14:34:56Z</time></trkpt><trkpt lat="59.2558302730" lon="30.6969041750"><ele>57.82</ele><time>2026-09-01T14:35:09Z</time></trkpt><trkpt lat="59.2557817418" lon="30.6969738286"><ele>57.82</ele><time>2026-09-01T14:35:23Z</time></trkpt><trkpt lat="59.2557594460" lon="30.6970261317"><ele>58.30</ele><time>2026-09-01T14:35:41Z</time></trkpt><trkpt lat="59.2557275109" lon="30.6970569771"><ele>58.30</ele><time>2026-09-01T14:35:57Z</time></trkpt><trkpt lat="59.2556970846" lon="30.6970760040"><ele>58.30</ele><time>2026-09-01T14:36:14Z</time></trkpt><trkpt lat="59.2556625511" lon="30.6971189193"><ele>58.30</ele><time>2026-09-01T14:36:30Z</time></trkpt><trkpt lat="59.2556521576" lon="30.6971191708"><ele>58.78</ele><time>2026-09-01T14:36:49Z</time></trkpt><trkpt lat="59.2556492239" lon="30.6971049216"><ele>58.78</ele><time>2026-09-01T14:37:16Z</time></trkpt><trkpt lat="59.2556317057" lon="30.6970676221"><ele>58.78</ele><time>2026-09-01T14:37:44Z</time></trkpt><trkpt lat="59.2556244135" lon="30.6970663648"><ele>58.78</ele><time>2026-09-01T14:37:58Z</time></trkpt><trkpt lat="59.2555905506" lon="30.6970669515"><ele>58.78</ele><time>2026-09-01T14:38:13Z</time></trkpt><trkpt lat="59.2555922270" lon="30.6970692147"><ele>58.78</ele><time>2026-09-01T14:38:40Z</time></trkpt><trkpt lat="59.2555835936" lon="30.6970713101"><ele>58.78</ele><time>2026-09-01T14:39:01Z</time></trkpt><trkpt lat="59.2555799894" lon="30.6970832124"><ele>58.78</ele><time>2026-09-01T14:39:23Z</time></trkpt><trkpt lat="59.2555719428" lon="30.6970879901"><ele>59.26</ele><time>2026-09-01T14:39:46Z</time></trkpt><trkpt lat="59.2555689253" lon="30.6970746629"><ele>59.26</ele><time>2026-09-01T14:40:14Z</time></trkpt><trkpt lat="59.2555685900" lon="30.6970756687"><ele>59.26</ele><time>2026-09-01T14:40:38Z</time></trkpt><trkpt lat="59.2555674165" lon="30.6970696338"><ele>59.26</ele><time>2026-09-01T14:41:02Z</time></trkpt><trkpt lat="59.2555684224" lon="30.6970608328"><ele>59.26</ele><time>2026-09-01T14:41:18Z</time></trkpt><trkpt lat="59.2555680033" lon="30.6970307417"><ele>59.26</ele><time>2026-09-01T14:41:36Z</time></trkpt><trkpt lat="59.2555690929" lon="30.6970089488"><ele>59.26</ele><time>2026-09-01T14:42:00Z</time></trkpt><trkpt lat="59.2555791512" lon="30.6969459169"><ele>59.26</ele><time>2026-09-01T14:42:20Z</time></trkpt><trkpt lat="59.2555912212" lon="30.6968976371"><ele>58.30</ele><time>2026-09-01T14:42:35Z</time></trkpt><trkpt lat="59.2555913888" lon="30.6968445797"><ele>58.30</ele><time>2026-09-01T14:43:00Z</time></trkpt><trkpt lat="59.2555887904" lon="30.6968508661"><ele>58.30</ele><time>2026-09-01T14:43:22Z</time></trkpt><trkpt lat="59.2556241620" lon="30.6969286501"><ele>58.30</ele><time>2026-09-01T14:43:37Z</time></trkpt><trkpt lat="59.2556477152" lon="30.6970064342"><ele>58.30</ele><time>2026-09-01T14:43:49Z</time></trkpt><trkpt lat="59.2556645628" lon="30.6971402932"><ele>58.30</ele><time>2026-09-01T14:44:03Z</time></trkpt><trkpt lat="59.2556596175" lon="30.6972536165"><ele>58.30</ele><time>2026-09-01T14:44:16Z</time></trkpt><trkpt lat="59.2556326278" lon="30.6974116992"><ele>58.30</ele><time>2026-09-01T14:44:29Z</time></trkpt><trkpt lat="59.2556115892" lon="30.6974494178"><ele>58.30</ele><time>2026-09-01T14:44:41Z</time></trkpt><trkpt lat="59.2555990163" lon="30.6974947639"><ele>58.30</ele><time>2026-09-01T14:44:54Z</time></trkpt><trkpt lat="59.2555959150" lon="30.6975476537"><ele>58.30</ele><time>2026-09-01T14:45:22Z</time></trkpt><trkpt lat="59.2555851024" lon="30.6975733861"><ele>58.30</ele><time>2026-09-01T14:45:42Z</time></trkpt><trkpt lat="59.2555701826" lon="30.6975959335"><ele>58.30</ele><time>2026-09-01T14:46:05Z</time></trkpt><trkpt lat="59.2555541731" lon="30.6975727994"><ele>58.30</ele><time>2026-09-01T14:46:25Z</time></trkpt><trkpt lat="59.2555612139" lon="30.6975829415"><ele>58.30</ele><time>2026-09-01T14:46:39Z</time></trkpt><trkpt lat="59.2555590346" lon="30.6976045668"><ele>58.30</ele><time>2026-09-01T14:46:55Z</time></trkpt><trkpt lat="59.2555511557" lon="30.6976033933"><ele>58.30</ele><time>2026-09-01T14:47:09Z</time></trkpt><trkpt lat="59.2555587832" lon="30.6975535210"><ele>58.30</ele><time>2026-09-01T14:47:31Z</time></trkpt><trkpt lat="59.2556001898" lon="30.6976075005"><ele>58.30</ele><time>2026-09-01T14:47:42Z</time></trkpt><trkpt lat="59.2556236591" lon="30.6976328976"><ele>58.30</ele><time>2026-09-01T14:47:59Z</time></trkpt><trkpt lat="59.2556644790" lon="30.6976765674"><ele>58.30</ele><time>2026-09-01T14:48:16Z</time></trkpt><trkpt lat="59.2557068914" lon="30.6977854483"><ele>58.30</ele><time>2026-09-01T14:48:30Z</time></trkpt><trkpt lat="59.2557277624" lon="30.6977561116"><ele>58.30</ele><time>2026-09-01T14:48:45Z</time></trkpt><trkpt lat="59.2557588592" lon="30.6977230031"><ele>58.30</ele><time>2026-09-01T14:49:03Z</time></trkpt><trkpt lat="59.2557974998" lon="30.6977233384"><ele>58.30</ele><time>2026-09-01T14:49:19Z</time></trkpt><trkpt lat="59.2558211368" lon="30.6977544352"><ele>58.78</ele><time>2026-09-01T14:49:37Z</time></trkpt><trkpt lat="59.2558471207" lon="30.6978059001"><ele>58.78</ele><time>2026-09-01T14:50:01Z</time></trkpt><trkpt lat="59.2558846716" lon="30.6978682615"><ele>58.78</ele><time>2026-09-01T14:50:14Z</time></trkpt><trkpt lat="59.2559309397" lon="30.6978986878"><ele>58.78</ele><time>2026-09-01T14:50:25Z</time></trkpt><trkpt lat="59.2559478711" lon="30.6979169603"><ele>58.78</ele><time>2026-09-01T14:50:41Z</time></trkpt><trkpt lat="59.2559691612" lon="30.6979580317"><ele>58.78</ele><time>2026-09-01T14:50:54Z</time></trkpt><trkpt lat="59.2559961509" lon="30.6980260089"><ele>58.78</ele><time>2026-09-01T14:51:06Z</time></trkpt><trkpt lat="59.2559637129" lon="30.6980685890"><ele>58.78</ele><time>2026-09-01T14:51:19Z</time></trkpt><trkpt lat="59.2559518106" lon="30.6981325429"><ele>58.78</ele><time>2026-09-01T14:51:30Z</time></trkpt><trkpt lat="59.2559362203" lon="30.6982012745"><ele>59.26</ele><time>2026-09-01T14:51:45Z</time></trkpt><trkpt lat="59.2559077218" lon="30.6982511468"><ele>59.26</ele><time>2026-09-01T14:51:58Z</time></trkpt><trkpt lat="59.2558922153" lon="30.6982705090"><ele>59.26</ele><time>2026-09-01T14:52:08Z</time></trkpt><trkpt lat="59.2558142636" lon="30.6982473750"><ele>59.26</ele><time>2026-09-01T14:52:20Z</time></trkpt><trkpt lat="59.2557674926" lon="30.6982447766"><ele>59.26</ele><time>2026-09-01T14:52:30Z</time></trkpt><trkpt lat="59.2557379883" lon="30.6982629653"><ele>59.26</ele><time>2026-09-01T14:52:40Z</time></trkpt><trkpt lat="59.2557228170" lon="30.6983315293"><ele>59.26</ele><time>2026-09-01T14:52:52Z</time></trkpt><trkpt lat="59.2557302769" lon="30.6983663980"><ele>59.26</ele><time>2026-09-01T14:53:17Z</time></trkpt><trkpt lat="59.2556990124" lon="30.6983895320"><ele>59.26</ele><time>2026-09-01T14:53:29Z</time></trkpt><trkpt lat="59.2556997668" lon="30.6984943058"><ele>59.26</ele><time>2026-09-01T14:53:41Z</time></trkpt><trkpt lat="59.2556951568" lon="30.6985869259"><ele>59.26</ele><time>2026-09-01T14:53:55Z</time></trkpt><trkpt lat="59.2556990124" lon="30.6986041088"><ele>59.26</ele><time>2026-09-01T14:54:10Z</time></trkpt><trkpt lat="59.2557015270" lon="30.6986124068"><ele>59.26</ele><time>2026-09-01T14:54:33Z</time></trkpt><trkpt lat="59.2557358928" lon="30.6985581759"><ele>59.26</ele><time>2026-09-01T14:54:43Z</time></trkpt><trkpt lat="59.2557120882" lon="30.6985222176"><ele>59.26</ele><time>2026-09-01T14:54:56Z</time></trkpt><trkpt lat="59.2557152733" lon="30.6985036936"><ele>58.78</ele><time>2026-09-01T14:55:17Z</time></trkpt><trkpt lat="59.2557162791" lon="30.6984922942"><ele>58.78</ele><time>2026-09-01T14:55:38Z</time></trkpt><trkpt lat="59.2557193805" lon="30.6984627061"><ele>58.78</ele><time>2026-09-01T14:55:55Z</time></trkpt><trkpt lat="59.2557258345" lon="30.6983938068"><ele>58.78</ele><time>2026-09-01T14:56:12Z</time></trkpt><trkpt lat="59.2557435203" lon="30.6983353850"><ele>58.78</ele><time>2026-09-01T14:56:28Z</time></trkpt><trkpt lat="59.2557710968" lon="30.6982897874"><ele>58.78</ele><time>2026-09-01T14:56:34Z</time></trkpt><trkpt lat="59.2558117490" lon="30.6982156076"><ele>58.78</ele><time>2026-09-01T14:56:50Z</time></trkpt><trkpt lat="59.2558065522" lon="30.6981668249"><ele>58.30</ele><time>2026-09-01T14:57:11Z</time></trkpt><trkpt lat="59.2558116652" lon="30.6981500611"><ele>58.30</ele><time>2026-09-01T14:57:43Z</time></trkpt><trkpt lat="59.2558013555" lon="30.6981270947"><ele>58.30</ele><time>2026-09-01T14:57:56Z</time></trkpt><trkpt lat="59.2558002658" lon="30.6981271785"><ele>58.30</ele><time>2026-09-01T14:58:12Z</time></trkpt><trkpt lat="59.2558171973" lon="30.6980835088"><ele>57.82</ele><time>2026-09-01T14:58:38Z</time></trkpt><trkpt lat="59.2558062170" lon="30.6980591174"><ele>57.82</ele><time>2026-09-01T14:58:58Z</time></trkpt><trkpt lat="59.2558059655" lon="30.6980563514"><ele>57.82</ele><time>2026-09-01T14:59:24Z</time></trkpt><trkpt lat="59.2558079772" lon="30.6980497297"><ele>57.82</ele><time>2026-09-01T14:59:51Z</time></trkpt><trkpt lat="59.2558095697" lon="30.6980611291"><ele>57.82</ele><time>2026-09-01T15:00:13Z</time></trkpt><trkpt lat="59.2558109108" lon="30.6980792340"><ele>57.34</ele><time>2026-09-01T15:00:40Z</time></trkpt><trkpt lat="59.2558123358" lon="30.6980921421"><ele>57.34</ele><time>2026-09-01T15:01:09Z</time></trkpt><trkpt lat="59.2558158562" lon="30.6981053017"><ele>57.34</ele><time>2026-09-01T15:01:26Z</time></trkpt><trkpt lat="59.2558126710" lon="30.6981131807"><ele>57.34</ele><time>2026-09-01T15:01:39Z</time></trkpt><trkpt lat="59.2558050435" lon="30.6980917230"><ele>57.34</ele><time>2026-09-01T15:02:01Z</time></trkpt><trkpt lat="59.2558069713" lon="30.6980466284"><ele>57.34</ele><time>2026-09-01T15:02:26Z</time></trkpt><trkpt lat="59.2557063885" lon="30.6978903897"><ele>82.81</ele><time>2026-09-01T15:03:23Z</time></trkpt><trkpt lat="59.2556987610" lon="30.6978794932"><ele>82.81</ele><time>2026-09-01T15:03:24Z</time></trkpt><trkpt lat="59.2557564285" lon="30.6979947444"><ele>79.93</ele><time>2026-09-01T15:03:32Z</time></trkpt><trkpt lat="59.2557784729" lon="30.6980327144"><ele>76.56</ele><time>2026-09-01T15:03:39Z</time></trkpt><trkpt lat="59.2557731085" lon="30.6980205607"><ele>73.68</ele><time>2026-09-01T15:03:48Z</time></trkpt><trkpt lat="59.2557706777" lon="30.6979766395"><ele>70.31</ele><time>2026-09-01T15:04:01Z</time></trkpt><trkpt lat="59.2557447776" lon="30.6979537569"><ele>68.39</ele><time>2026-09-01T15:04:29Z</time></trkpt><trkpt lat="59.2557819933" lon="30.6980278529"><ele>68.39</ele><time>2026-09-01T15:04:56Z</time></trkpt><trkpt lat="59.2557806522" lon="30.6980077364"><ele>68.39</ele><time>2026-09-01T15:05:22Z</time></trkpt><trkpt lat="59.2557845917" lon="30.6979789026"><ele>68.39</ele><time>2026-09-01T15:05:50Z</time></trkpt><trkpt lat="59.2557916325" lon="30.6979986001"><ele>68.87</ele><time>2026-09-01T15:06:15Z</time></trkpt><trkpt lat="59.2557757907" lon="30.6980312057"><ele>68.87</ele><time>2026-09-01T15:06:40Z</time></trkpt><trkpt lat="59.2557814065" lon="30.6980208959"><ele>68.87</ele><time>2026-09-01T15:07:10Z</time></trkpt><trkpt lat="59.2557946499" lon="30.6980227400"><ele>68.87</ele><time>2026-09-01T15:07:40Z</time></trkpt><trkpt lat="59.2558410019" lon="30.6980426889"><ele>68.87</ele><time>2026-09-01T15:07:59Z</time></trkpt><trkpt lat="59.2558507249" lon="30.6979667488"><ele>68.87</ele><time>2026-09-01T15:08:24Z</time></trkpt><trkpt lat="59.2558255792" lon="30.6979777291"><ele>68.87</ele><time>2026-09-01T15:08:45Z</time></trkpt><trkpt lat="59.2557405867" lon="30.6978392601"><ele>68.87</ele><time>2026-09-01T15:09:04Z</time></trkpt><trkpt lat="59.2557466216" lon="30.6978804991"><ele>68.87</ele><time>2026-09-01T15:09:26Z</time></trkpt><trkpt lat="59.2557326239" lon="30.6978824269"><ele>68.87</ele><time>2026-09-01T15:09:52Z</time></trkpt><trkpt lat="59.2557431851" lon="30.6979023758"><ele>68.87</ele><time>2026-09-01T15:10:14Z</time></trkpt><trkpt lat="59.2557267565" lon="30.6978477258"><ele>68.87</ele><time>2026-09-01T15:10:32Z</time></trkpt><trkpt lat="59.2557836697" lon="30.6979947444"><ele>68.87</ele><time>2026-09-01T15:10:55Z</time></trkpt><trkpt lat="59.2557771318" lon="30.6979813334"><ele>68.87</ele><time>2026-09-01T15:11:19Z</time></trkpt><trkpt lat="59.2557591107" lon="30.6979048904"><ele>68.87</ele><time>2026-09-01T15:11:41Z</time></trkpt><trkpt lat="59.2556810752" lon="30.6978566945"><ele>68.87</ele><time>2026-09-01T15:12:06Z</time></trkpt><trkpt lat="59.2557208054" lon="30.6978933234"><ele>68.87</ele><time>2026-09-01T15:12:30Z</time></trkpt><trkpt lat="59.2558034509" lon="30.6979215704"><ele>69.83</ele><time>2026-09-01T15:12:59Z</time></trkpt><trkpt lat="59.2558223102" lon="30.6979442853"><ele>69.83</ele><time>2026-09-01T15:13:24Z</time></trkpt><trkpt lat="59.2558082286" lon="30.6978800800"><ele>69.83</ele><time>2026-09-01T15:13:44Z</time></trkpt><trkpt lat="59.2557955720" lon="30.6978763919"><ele>69.83</ele><time>2026-09-01T15:14:05Z</time></trkpt><trkpt lat="59.2557865195" lon="30.6979136076"><ele>70.31</ele><time>2026-09-01T15:14:31Z</time></trkpt><trkpt lat="59.2557385750" lon="30.6978670880"><ele>70.31</ele><time>2026-09-01T15:14:53Z</time></trkpt><trkpt lat="59.2557476275" lon="30.6978718657"><ele>70.31</ele><time>2026-09-01T15:15:15Z</time></trkpt><trkpt lat="59.2557380721" lon="30.6980021205"><ele>69.83</ele><time>2026-09-01T15:15:37Z</time></trkpt><trkpt lat="59.2557866033" lon="30.6980235782"><ele>69.83</ele><time>2026-09-01T15:16:00Z</time></trkpt><trkpt lat="59.2557526566" lon="30.6978998613"><ele>69.83</ele><time>2026-09-01T15:16:21Z</time></trkpt><trkpt lat="59.2557767127" lon="30.6980392523"><ele>69.83</ele><time>2026-09-01T15:16:45Z</time></trkpt><trkpt lat="59.2557874415" lon="30.6980652362"><ele>69.83</ele><time>2026-09-01T15:17:11Z</time></trkpt><trkpt lat="59.2558044568" lon="30.6980296131"><ele>70.31</ele><time>2026-09-01T15:17:38Z</time></trkpt><trkpt lat="59.2558058817" lon="30.6980412640"><ele>70.31</ele><time>2026-09-01T15:18:03Z</time></trkpt><trkpt lat="59.2558079772" lon="30.6980270986"><ele>70.31</ele><time>2026-09-01T15:18:25Z</time></trkpt><trkpt lat="59.2558099050" lon="30.6980304513"><ele>70.79</ele><time>2026-09-01T15:18:44Z</time></trkpt><trkpt lat="59.2557850108" lon="30.6980036292"><ele>70.79</ele><time>2026-09-01T15:19:01Z</time></trkpt><trkpt lat="59.2556638923" lon="30.6977981888"><ele>70.79</ele><time>2026-09-01T15:19:21Z</time></trkpt><trkpt lat="59.2557995953" lon="30.6980197225"><ele>70.79</ele><time>2026-09-01T15:19:40Z</time></trkpt><trkpt lat="59.2557855137" lon="30.6980239972"><ele>70.79</ele><time>2026-09-01T15:20:05Z</time></trkpt><trkpt lat="59.2557998467" lon="30.6980789825"><ele>70.79</ele><time>2026-09-01T15:20:28Z</time></trkpt><trkpt lat="59.2557859328" lon="30.6980669964"><ele>70.79</ele><time>2026-09-01T15:20:47Z</time></trkpt><trkpt lat="59.2558556702" lon="30.6980664097"><ele>70.79</ele><time>2026-09-01T15:21:08Z</time></trkpt><trkpt lat="59.2558718473" lon="30.6980739534"><ele>71.27</ele><time>2026-09-01T15:21:35Z</time></trkpt><trkpt lat="59.2558693327" lon="30.6980856881"><ele>71.76</ele><time>2026-09-01T15:21:58Z</time></trkpt><trkpt lat="59.2558829952" lon="30.6981126778"><ele>71.76</ele><time>2026-09-01T15:22:29Z</time></trkpt><trkpt lat="59.2558892816" lon="30.6981228199"><ele>71.76</ele><time>2026-09-01T15:22:56Z</time></trkpt><trkpt lat="59.2559291795" lon="30.6981255021"><ele>72.24</ele><time>2026-09-01T15:23:16Z</time></trkpt><trkpt lat="59.2559148464" lon="30.6981307827"><ele>72.24</ele><time>2026-09-01T15:23:40Z</time></trkpt><trkpt lat="59.2559014354" lon="30.6981327944"><ele>72.24</ele><time>2026-09-01T15:24:06Z</time></trkpt><trkpt lat="59.2558910418" lon="30.6981705967"><ele>72.24</ele><time>2026-09-01T15:24:27Z</time></trkpt><trkpt lat="59.2558814026" lon="30.6981625501"><ele>73.20</ele><time>2026-09-01T15:24:43Z</time></trkpt><trkpt lat="59.2558743618" lon="30.6980737019"><ele>73.20</ele><time>2026-09-01T15:24:56Z</time></trkpt><trkpt lat="59.2558646388" lon="30.6978702731"><ele>73.20</ele><time>2026-09-01T15:25:06Z</time></trkpt><trkpt lat="59.2558973283" lon="30.6977281161"><ele>73.20</ele><time>2026-09-01T15:25:17Z</time></trkpt><trkpt lat="59.2559021898" lon="30.6976320595"><ele>73.68</ele><time>2026-09-01T15:25:27Z</time></trkpt><trkpt lat="59.2558943946" lon="30.6975569576"><ele>73.20</ele><time>2026-09-01T15:25:40Z</time></trkpt><trkpt lat="59.2559276707" lon="30.6974652596"><ele>73.20</ele><time>2026-09-01T15:25:54Z</time></trkpt><trkpt lat="59.2559557501" lon="30.6972740684"><ele>73.20</ele><time>2026-09-01T15:26:06Z</time></trkpt><trkpt lat="59.2559537385" lon="30.6971085258"><ele>73.20</ele><time>2026-09-01T15:26:17Z</time></trkpt><trkpt lat="59.2559679877" lon="30.6968681328"><ele>72.72</ele><time>2026-09-01T15:26:29Z</time></trkpt><trkpt lat="59.2560008448" lon="30.6967081223"><ele>73.20</ele><time>2026-09-01T15:26:40Z</time></trkpt><trkpt lat="59.2560300138" lon="30.6965833995"><ele>73.20</ele><time>2026-09-01T15:26:51Z</time></trkpt><trkpt lat="59.2560655531" lon="30.6965072080"><ele>73.20</ele><time>2026-09-01T15:27:02Z</time></trkpt><trkpt lat="59.2560774554" lon="30.6963448506"><ele>73.20</ele><time>2026-09-01T15:27:14Z</time></trkpt><trkpt lat="59.2560389824" lon="30.6961534079"><ele>73.20</ele><time>2026-09-01T15:27:27Z</time></trkpt><trkpt lat="59.2560821492" lon="30.6960539147"><ele>72.72</ele><time>2026-09-01T15:27:38Z</time></trkpt><trkpt lat="59.2560622841" lon="30.6958649866"><ele>73.20</ele><time>2026-09-01T15:27:52Z</time></trkpt><trkpt lat="59.2560791317" lon="30.6957770605"><ele>73.20</ele><time>2026-09-01T15:28:03Z</time></trkpt><trkpt lat="59.2560907826" lon="30.6956389267"><ele>73.20</ele><time>2026-09-01T15:28:15Z</time></trkpt><trkpt lat="59.2560694087" lon="30.6955200713"><ele>72.72</ele><time>2026-09-01T15:28:27Z</time></trkpt><trkpt lat="59.2560513038" lon="30.6955236755"><ele>72.72</ele><time>2026-09-01T15:28:41Z</time></trkpt><trkpt lat="59.2560661398" lon="30.6954815984"><ele>72.24</ele><time>2026-09-01T15:28:57Z</time></trkpt><trkpt lat="59.2560902797" lon="30.6953921635"><ele>72.72</ele><time>2026-09-01T15:29:09Z</time></trkpt><trkpt lat="59.2560704984" lon="30.6952644233"><ele>72.72</ele><time>2026-09-01T15:29:21Z</time></trkpt><trkpt lat="59.2560633738" lon="30.6951299775"><ele>72.24</ele><time>2026-09-01T15:29:31Z</time></trkpt><trkpt lat="59.2560835741" lon="30.6949602440"><ele>72.24</ele><time>2026-09-01T15:29:43Z</time></trkpt><trkpt lat="59.2561291717" lon="30.6948650256"><ele>71.76</ele><time>2026-09-01T15:29:55Z</time></trkpt><trkpt lat="59.2561642081" lon="30.6947791949"><ele>71.76</ele><time>2026-09-01T15:30:08Z</time></trkpt><trkpt lat="59.2561664712" lon="30.6945798732"><ele>71.27</ele><time>2026-09-01T15:30:20Z</time></trkpt><trkpt lat="59.2561461870" lon="30.6945053581"><ele>71.27</ele><time>2026-09-01T15:30:34Z</time></trkpt><trkpt lat="59.2561391462" lon="30.6943970639"><ele>70.79</ele><time>2026-09-01T15:30:46Z</time></trkpt><trkpt lat="59.2561244778" lon="30.6943755224"><ele>70.79</ele><time>2026-09-01T15:30:55Z</time></trkpt><trkpt lat="59.2561015114" lon="30.6943545677"><ele>70.79</ele><time>2026-09-01T15:31:02Z</time></trkpt><trkpt lat="59.2560860049" lon="30.6942842435"><ele>70.79</ele><time>2026-09-01T15:31:13Z</time></trkpt><trkpt lat="59.2560637090" lon="30.6942440104"><ele>70.31</ele><time>2026-09-01T15:31:24Z</time></trkpt><trkpt lat="59.2560082208" lon="30.6942466088"><ele>70.31</ele><time>2026-09-01T15:31:35Z</time></trkpt><trkpt lat="59.2559751123" lon="30.6943307631"><ele>70.31</ele><time>2026-09-01T15:31:47Z</time></trkpt><trkpt lat="59.2558837496" lon="30.6943747681"><ele>70.31</ele><time>2026-09-01T15:31:58Z</time></trkpt><trkpt lat="59.2558632977" lon="30.6944412366"><ele>70.31</ele><time>2026-09-01T15:32:10Z</time></trkpt><trkpt lat="59.2558195442" lon="30.6944445055"><ele>70.31</ele><time>2026-09-01T15:32:20Z</time></trkpt><trkpt lat="59.2557901237" lon="30.6945511233"><ele>69.83</ele><time>2026-09-01T15:32:31Z</time></trkpt><trkpt lat="59.2557758745" lon="30.6945566554"><ele>69.83</ele><time>2026-09-01T15:32:35Z</time></trkpt><trkpt lat="59.2557036225" lon="30.6945937872"><ele>69.83</ele><time>2026-09-01T15:32:45Z</time></trkpt><trkpt lat="59.2556631379" lon="30.6946123950"><ele>69.83</ele><time>2026-09-01T15:33:01Z</time></trkpt><trkpt lat="59.2556536663" lon="30.6947023328"><ele>69.83</ele><time>2026-09-01T15:33:13Z</time></trkpt><trkpt lat="59.2556421831" lon="30.6947460026"><ele>69.83</ele><time>2026-09-01T15:33:26Z</time></trkpt><trkpt lat="59.2556204740" lon="30.6947549712"><ele>68.39</ele><time>2026-09-01T15:33:40Z</time></trkpt><trkpt lat="59.2554967571" lon="30.6947296578"><ele>68.39</ele><time>2026-09-01T15:33:57Z</time></trkpt><trkpt lat="59.2554317135" lon="30.6947711483"><ele>68.39</ele><time>2026-09-01T15:34:11Z</time></trkpt><trkpt lat="59.2553693522" lon="30.6949086115"><ele>68.39</ele><time>2026-09-01T15:34:26Z</time></trkpt><trkpt lat="59.2553096730" lon="30.6949568912"><ele>68.39</ele><time>2026-09-01T15:34:40Z</time></trkpt><trkpt lat="59.2551550269" lon="30.6950397883"><ele>67.91</ele><time>2026-09-01T15:34:55Z</time></trkpt><trkpt lat="59.2550719623" lon="30.6951440591"><ele>67.91</ele><time>2026-09-01T15:35:10Z</time></trkpt><trkpt lat="59.2549937591" lon="30.6952510960"><ele>67.91</ele><time>2026-09-01T15:35:20Z</time></trkpt><trkpt lat="59.2549649253" lon="30.6953257788"><ele>67.91</ele><time>2026-09-01T15:35:39Z</time></trkpt><trkpt lat="59.2549223453" lon="30.6953391898"><ele>67.91</ele><time>2026-09-01T15:36:07Z</time></trkpt><trkpt lat="59.2548913322" lon="30.6953286286"><ele>67.91</ele><time>2026-09-01T15:36:28Z</time></trkpt><trkpt lat="59.2548549548" lon="30.6953517627"><ele>67.43</ele><time>2026-09-01T15:36:48Z</time></trkpt><trkpt lat="59.2548035737" lon="30.6953491643"><ele>67.43</ele><time>2026-09-01T15:37:07Z</time></trkpt><trkpt lat="59.2548054177" lon="30.6953394413"><ele>67.43</ele><time>2026-09-01T15:37:21Z</time></trkpt><trkpt lat="59.2548028193" lon="30.6953256112"><ele>67.43</ele><time>2026-09-01T15:37:40Z</time></trkpt><trkpt lat="59.2547977902" lon="30.6953107752"><ele>67.43</ele><time>2026-09-01T15:38:05Z</time></trkpt><trkpt lat="59.2547770869" lon="30.6952909101"><ele>67.43</ele><time>2026-09-01T15:38:24Z</time></trkpt><trkpt lat="59.2547588143" lon="30.6953018066"><ele>67.43</ele><time>2026-09-01T15:38:38Z</time></trkpt><trkpt lat="59.2547042482" lon="30.6954237632"><ele>67.43</ele><time>2026-09-01T15:38:54Z</time></trkpt><trkpt lat="59.2546619195" lon="30.6954986975"><ele>67.43</ele><time>2026-09-01T15:39:10Z</time></trkpt><trkpt lat="59.2546127178" lon="30.6955198199"><ele>67.43</ele><time>2026-09-01T15:39:25Z</time></trkpt><trkpt lat="59.2544651963" lon="30.6955426186"><ele>67.43</ele><time>2026-09-01T15:39:38Z</time></trkpt><trkpt lat="59.2543501966" lon="30.6954827718"><ele>67.43</ele><time>2026-09-01T15:39:51Z</time></trkpt><trkpt lat="59.2542978097" lon="30.6954857055"><ele>67.43</ele><time>2026-09-01T15:40:03Z</time></trkpt><trkpt lat="59.2542854883" lon="30.6955219153"><ele>67.43</ele><time>2026-09-01T15:40:15Z</time></trkpt><trkpt lat="59.2542628571" lon="30.6954892259"><ele>67.43</ele><time>2026-09-01T15:40:37Z</time></trkpt><trkpt lat="59.2542520445" lon="30.6954769045"><ele>67.43</ele><time>2026-09-01T15:40:56Z</time></trkpt><trkpt lat="59.2542637791" lon="30.6954878010"><ele>67.91</ele><time>2026-09-01T15:41:26Z</time></trkpt><trkpt lat="59.2542544752" lon="30.6955020502"><ele>67.91</ele><time>2026-09-01T15:41:49Z</time></trkpt><trkpt lat="59.2542478535" lon="30.6954913214"><ele>67.91</ele><time>2026-09-01T15:42:17Z</time></trkpt><trkpt lat="59.2542455066" lon="30.6954877172"><ele>68.39</ele><time>2026-09-01T15:42:44Z</time></trkpt><trkpt lat="59.2542429920" lon="30.6954762340"><ele>69.35</ele><time>2026-09-01T15:42:57Z</time></trkpt><trkpt lat="59.2542273179" lon="30.6955017988"><ele>69.83</ele><time>2026-09-01T15:43:20Z</time></trkpt><trkpt lat="59.2542193551" lon="30.6954929978"><ele>69.83</ele><time>2026-09-01T15:43:48Z</time></trkpt><trkpt lat="59.2542136554" lon="30.6954915728"><ele>69.83</ele><time>2026-09-01T15:44:06Z</time></trkpt><trkpt lat="59.2542159185" lon="30.6954701990"><ele>69.83</ele><time>2026-09-01T15:44:17Z</time></trkpt><trkpt lat="59.2542045191" lon="30.6954826880"><ele>69.83</ele><time>2026-09-01T15:44:45Z</time></trkpt><trkpt lat="59.2542125657" lon="30.6954672653"><ele>69.83</ele><time>2026-09-01T15:45:08Z</time></trkpt><trkpt lat="59.2542161699" lon="30.6954619009"><ele>69.83</ele><time>2026-09-01T15:45:29Z</time></trkpt><trkpt lat="59.2542147450" lon="30.6954661757"><ele>70.31</ele><time>2026-09-01T15:45:48Z</time></trkpt><trkpt lat="59.2542090453" lon="30.6954620685"><ele>70.31</ele><time>2026-09-01T15:46:09Z</time></trkpt><trkpt lat="59.2541975621" lon="30.6954714563"><ele>70.31</ele><time>2026-09-01T15:46:26Z</time></trkpt><trkpt lat="59.2541977298" lon="30.6954854541"><ele>70.31</ele><time>2026-09-01T15:46:41Z</time></trkpt><trkpt lat="59.2542149965" lon="30.6954740547"><ele>70.31</ele><time>2026-09-01T15:46:58Z</time></trkpt><trkpt lat="59.2542731669" lon="30.6954556145"><ele>70.31</ele><time>2026-09-01T15:47:10Z</time></trkpt><trkpt lat="59.2542869970" lon="30.6954440475"><ele>70.31</ele><time>2026-09-01T15:47:24Z</time></trkpt><trkpt lat="59.2543329298" lon="30.6953891460"><ele>70.31</ele><time>2026-09-01T15:47:37Z</time></trkpt><trkpt lat="59.2543749232" lon="30.6953399442"><ele>70.31</ele><time>2026-09-01T15:47:53Z</time></trkpt><trkpt lat="59.2544459179" lon="30.6951822806"><ele>70.31</ele><time>2026-09-01T15:48:12Z</time></trkpt><trkpt lat="59.2545078602" lon="30.6949775945"><ele>70.31</ele><time>2026-09-01T15:48:28Z</time></trkpt><trkpt lat="59.2546550464" lon="30.6947791949"><ele>70.31</ele><time>2026-09-01T15:48:45Z</time></trkpt><trkpt lat="59.2547479179" lon="30.6946564000"><ele>69.83</ele><time>2026-09-01T15:48:57Z</time></trkpt><trkpt lat="59.2548014782" lon="30.6944730878"><ele>69.83</ele><time>2026-09-01T15:49:11Z</time></trkpt><trkpt lat="59.2548534460" lon="30.6943693198"><ele>69.83</ele><time>2026-09-01T15:49:23Z</time></trkpt><trkpt lat="59.2548776697" lon="30.6942930445"><ele>69.83</ele><time>2026-09-01T15:49:34Z</time></trkpt><trkpt lat="59.2549322359" lon="30.6941951439"><ele>69.83</ele><time>2026-09-01T15:49:48Z</time></trkpt><trkpt lat="59.2549992912" lon="30.6942007598"><ele>70.79</ele><time>2026-09-01T15:49:58Z</time></trkpt><trkpt lat="59.2550233472" lon="30.6941109058"><ele>70.31</ele><time>2026-09-01T15:50:09Z</time></trkpt><trkpt lat="59.2550486606" lon="30.6940674037"><ele>70.31</ele><time>2026-09-01T15:50:23Z</time></trkpt><trkpt lat="59.2551256903" lon="30.6939574331"><ele>70.31</ele><time>2026-09-01T15:50:38Z</time></trkpt><trkpt lat="59.2551270314" lon="30.6938677467"><ele>70.31</ele><time>2026-09-01T15:50:49Z</time></trkpt><trkpt lat="59.2552154604" lon="30.6938229036"><ele>70.31</ele><time>2026-09-01T15:51:02Z</time></trkpt><trkpt lat="59.2553242575" lon="30.6936954986"><ele>70.31</ele><time>2026-09-01T15:51:15Z</time></trkpt><trkpt lat="59.2553503253" lon="30.6936136074"><ele>70.31</ele><time>2026-09-01T15:51:27Z</time></trkpt><trkpt lat="59.2553586233" lon="30.6935518328"><ele>68.87</ele><time>2026-09-01T15:51:49Z</time></trkpt><trkpt lat="59.2553779017" lon="30.6935319677"><ele>68.87</ele><time>2026-09-01T15:52:04Z</time></trkpt><trkpt lat="59.2553606350" lon="30.6934291217"><ele>68.87</ele><time>2026-09-01T15:52:15Z</time></trkpt><trkpt lat="59.2553229164" lon="30.6933618151"><ele>68.87</ele><time>2026-09-01T15:52:27Z</time></trkpt><trkpt lat="59.2553315498" lon="30.6932603940"><ele>68.87</ele><time>2026-09-01T15:52:39Z</time></trkpt><trkpt lat="59.2553372495" lon="30.6931174826"><ele>68.87</ele><time>2026-09-01T15:52:53Z</time></trkpt><trkpt lat="59.2553504929" lon="30.6930146366"><ele>68.87</ele><time>2026-09-01T15:53:06Z</time></trkpt><trkpt lat="59.2553821765" lon="30.6929205917"><ele>68.87</ele><time>2026-09-01T15:53:21Z</time></trkpt><trkpt lat="59.2553836852" lon="30.6927230302"><ele>68.87</ele><time>2026-09-01T15:53:33Z</time></trkpt><trkpt lat="59.2553898878" lon="30.6926381215"><ele>68.87</ele><time>2026-09-01T15:53:47Z</time></trkpt><trkpt lat="59.2553933244" lon="30.6926356070"><ele>70.31</ele><time>2026-09-01T15:53:49Z</time></trkpt><trkpt lat="59.2554218229" lon="30.6925750896"><ele>70.31</ele><time>2026-09-01T15:54:10Z</time></trkpt><trkpt lat="59.2554145306" lon="30.6924260594"><ele>70.31</ele><time>2026-09-01T15:54:27Z</time></trkpt><trkpt lat="59.2553856969" lon="30.6921920367"><ele>70.31</ele><time>2026-09-01T15:54:41Z</time></trkpt><trkpt lat="59.2553884629" lon="30.6920575071"><ele>70.31</ele><time>2026-09-01T15:54:52Z</time></trkpt><trkpt lat="59.2553454638" lon="30.6920062937"><ele>70.31</ele><time>2026-09-01T15:55:04Z</time></trkpt><trkpt lat="59.2553647421" lon="30.6918665674"><ele>70.79</ele><time>2026-09-01T15:55:16Z</time></trkpt><trkpt lat="59.2553936597" lon="30.6917978358"><ele>70.79</ele><time>2026-09-01T15:55:29Z</time></trkpt><trkpt lat="59.2554313783" lon="30.6917549204"><ele>70.79</ele><time>2026-09-01T15:55:42Z</time></trkpt><trkpt lat="59.2554548476" lon="30.6917107478"><ele>70.79</ele><time>2026-09-01T15:55:51Z</time></trkpt><trkpt lat="59.2555058934" lon="30.6916759629"><ele>70.79</ele><time>2026-09-01T15:56:04Z</time></trkpt><trkpt lat="59.2555457912" lon="30.6916394178"><ele>70.79</ele><time>2026-09-01T15:56:16Z</time></trkpt><trkpt lat="59.2555939034" lon="30.6915368233"><ele>70.31</ele><time>2026-09-01T15:56:30Z</time></trkpt><trkpt lat="59.2556053028" lon="30.6914702710"><ele>70.79</ele><time>2026-09-01T15:56:45Z</time></trkpt><trkpt lat="59.2556508165" lon="30.6914658286"><ele>71.76</ele><time>2026-09-01T15:57:01Z</time></trkpt><trkpt lat="59.2556410097" lon="30.6915110070"><ele>70.31</ele><time>2026-09-01T15:57:33Z</time></trkpt><trkpt lat="59.2556431890" lon="30.6915105879"><ele>70.31</ele><time>2026-09-01T15:58:03Z</time></trkpt><trkpt lat="59.2556848470" lon="30.6913748849"><ele>70.31</ele><time>2026-09-01T15:58:37Z</time></trkpt><trkpt lat="59.2560383119" lon="30.6913112663"><ele>70.31</ele><time>2026-09-01T15:58:55Z</time></trkpt><trkpt lat="59.2556522414" lon="30.6916089915"><ele>70.31</ele><time>2026-09-01T15:59:29Z</time></trkpt><trkpt lat="59.2556482181" lon="30.6916591153"><ele>70.31</ele><time>2026-09-01T16:00:04Z</time></trkpt><trkpt lat="59.2556899600" lon="30.6914075743"><ele>70.31</ele><time>2026-09-01T16:00:43Z</time></trkpt><trkpt lat="59.2556330469" lon="30.6914737914"><ele>70.31</ele><time>2026-09-01T16:01:15Z</time></trkpt><trkpt lat="59.2556228209" lon="30.6916781422"><ele>70.31</ele><time>2026-09-01T16:01:39Z</time></trkpt><trkpt lat="59.2557258345" lon="30.6916499790"><ele>70.31</ele><time>2026-09-01T16:02:05Z</time></trkpt><trkpt lat="59.2557916325" lon="30.6916444469"><ele>70.31</ele><time>2026-09-01T16:02:29Z</time></trkpt><trkpt lat="59.2558091506" lon="30.6916749571"><ele>70.31</ele><time>2026-09-01T16:02:52Z</time></trkpt><trkpt lat="59.2557947338" lon="30.6917091552"><ele>70.79</ele><time>2026-09-01T16:03:14Z</time></trkpt><trkpt lat="59.2557996791" lon="30.6917160284"><ele>70.79</ele><time>2026-09-01T16:03:21Z</time></trkpt><trkpt lat="59.2559939716" lon="30.6916713528"><ele>70.79</ele><time>2026-09-01T16:03:38Z</time></trkpt><trkpt lat="59.2557914648" lon="30.6916058902"><ele>70.79</ele><time>2026-09-01T16:04:04Z</time></trkpt><trkpt lat="59.2556766327" lon="30.6915877853"><ele>70.79</ele><time>2026-09-01T16:04:27Z</time></trkpt><trkpt lat="59.2556597851" lon="30.6915887911"><ele>70.79</ele><time>2026-09-01T16:04:56Z</time></trkpt><trkpt lat="59.2554956675" lon="30.6916054711"><ele>71.27</ele><time>2026-09-01T16:05:19Z</time></trkpt><trkpt lat="59.2555141076" lon="30.6915757153"><ele>71.27</ele><time>2026-09-01T16:05:43Z</time></trkpt><trkpt lat="59.2555192206" lon="30.6915859412"><ele>71.27</ele><time>2026-09-01T16:06:08Z</time></trkpt><trkpt lat="59.2555208970" lon="30.6915763021"><ele>71.27</ele><time>2026-09-01T16:06:36Z</time></trkpt><trkpt lat="59.2555275187" lon="30.6915577780"><ele>71.27</ele><time>2026-09-01T16:07:01Z</time></trkpt><trkpt lat="59.2555308715" lon="30.6915826723"><ele>71.76</ele><time>2026-09-01T16:07:31Z</time></trkpt><trkpt lat="59.2555452883" lon="30.6915919762"><ele>71.76</ele><time>2026-09-01T16:07:58Z</time></trkpt><trkpt lat="59.2555427738" lon="30.6915808283"><ele>71.76</ele><time>2026-09-01T16:08:34Z</time></trkpt><trkpt lat="59.2555806600" lon="30.6916158646"><ele>71.76</ele><time>2026-09-01T16:09:08Z</time></trkpt><trkpt lat="59.2556133494" lon="30.6915014517"><ele>71.76</ele><time>2026-09-01T16:09:32Z</time></trkpt><trkpt lat="59.2556104995" lon="30.6914498191"><ele>71.76</ele><time>2026-09-01T16:09:51Z</time></trkpt><trkpt lat="59.2556053028" lon="30.6914949138"><ele>71.76</ele><time>2026-09-01T16:10:14Z</time></trkpt><trkpt lat="59.2555507366" lon="30.6914785691"><ele>71.76</ele><time>2026-09-01T16:10:19Z</time></trkpt><trkpt lat="59.2554043047" lon="30.6916424353"><ele>71.76</ele><time>2026-09-01T16:10:41Z</time></trkpt><trkpt lat="59.2554838490" lon="30.6917265058"><ele>71.76</ele><time>2026-09-01T16:11:07Z</time></trkpt><trkpt lat="59.2555006128" lon="30.6917386595"><ele>71.76</ele><time>2026-09-01T16:11:10Z</time></trkpt><trkpt lat="59.2555932328" lon="30.6917266734"><ele>72.24</ele><time>2026-09-01T16:11:35Z</time></trkpt><trkpt lat="59.2555980943" lon="30.6916774716"><ele>72.24</ele><time>2026-09-01T16:12:04Z</time></trkpt><trkpt lat="59.2555804923" lon="30.6916012801"><ele>72.24</ele><time>2026-09-01T16:12:30Z</time></trkpt><trkpt lat="59.2556114215" lon="30.6915755477"><ele>73.20</ele><time>2026-09-01T16:12:56Z</time></trkpt><trkpt lat="59.2556094099" lon="30.6915732846"><ele>73.20</ele><time>2026-09-01T16:13:24Z</time></trkpt><trkpt lat="59.2556096613" lon="30.6915737037"><ele>73.20</ele><time>2026-09-01T16:13:50Z</time></trkpt><trkpt lat="59.2556169536" lon="30.6915514078"><ele>72.24</ele><time>2026-09-01T16:14:20Z</time></trkpt><trkpt lat="59.2556018662" lon="30.6915496476"><ele>72.24</ele><time>2026-09-01T16:14:51Z</time></trkpt><trkpt lat="59.2555981781" lon="30.6915480550"><ele>72.24</ele><time>2026-09-01T16:15:24Z</time></trkpt><trkpt lat="59.2555997707" lon="30.6915549282"><ele>71.76</ele><time>2026-09-01T16:16:00Z</time></trkpt><trkpt lat="59.2555986810" lon="30.6915370747"><ele>71.76</ele><time>2026-09-01T16:16:35Z</time></trkpt><trkpt lat="59.2556116730" lon="30.6915560178"><ele>71.76</ele><time>2026-09-01T16:17:01Z</time></trkpt><trkpt lat="59.2556193843" lon="30.6915610470"><ele>71.76</ele><time>2026-09-01T16:17:28Z</time></trkpt><trkpt lat="59.2556301132" lon="30.6915708538"><ele>71.76</ele><time>2026-09-01T16:18:04Z</time></trkpt><trkpt lat="59.2556278501" lon="30.6915804930"><ele>71.76</ele><time>2026-09-01T16:18:32Z</time></trkpt><trkpt lat="59.2556288559" lon="30.6915994361"><ele>71.76</ele><time>2026-09-01T16:18:55Z</time></trkpt><trkpt lat="59.2556346394" lon="30.6915949937"><ele>72.24</ele><time>2026-09-01T16:19:24Z</time></trkpt><trkpt lat="59.2556336336" lon="30.6915940717"><ele>72.24</ele><time>2026-09-01T16:19:49Z</time></trkpt><trkpt lat="59.2556329630" lon="30.6915808283"><ele>72.24</ele><time>2026-09-01T16:20:09Z</time></trkpt><trkpt lat="59.2556222342" lon="30.6915625557"><ele>72.24</ele><time>2026-09-01T16:20:28Z</time></trkpt><trkpt lat="59.2556140199" lon="30.6915373262"><ele>71.76</ele><time>2026-09-01T16:20:50Z</time></trkpt><trkpt lat="59.2556122597" lon="30.6915265135"><ele>71.76</ele><time>2026-09-01T16:21:10Z</time></trkpt><trkpt lat="59.2555844318" lon="30.6914473046"><ele>72.72</ele><time>2026-09-01T16:21:24Z</time></trkpt><trkpt lat="59.2555505689" lon="30.6914025452"><ele>72.72</ele><time>2026-09-01T16:21:35Z</time></trkpt><trkpt lat="59.2555082403" lon="30.6912404392"><ele>73.20</ele><time>2026-09-01T16:21:48Z</time></trkpt><trkpt lat="59.2554547638" lon="30.6911038980"><ele>73.20</ele><time>2026-09-01T16:21:59Z</time></trkpt><trkpt lat="59.2554116808" lon="30.6910463143"><ele>73.20</ele><time>2026-09-01T16:22:15Z</time></trkpt><trkpt lat="59.2554074060" lon="30.6910473201"><ele>73.20</ele><time>2026-09-01T16:22:19Z</time></trkpt><trkpt lat="59.2553416081" lon="30.6910033990"><ele>73.68</ele><time>2026-09-01T16:22:32Z</time></trkpt><trkpt lat="59.2552613933" lon="30.6910472363"><ele>73.68</ele><time>2026-09-01T16:22:46Z</time></trkpt><trkpt lat="59.2551833577" lon="30.6910825241"><ele>73.68</ele><time>2026-09-01T16:22:55Z</time></trkpt><trkpt lat="59.2551023047" lon="30.6910443865"><ele>73.68</ele><time>2026-09-01T16:23:05Z</time></trkpt><trkpt lat="59.2550578807" lon="30.6910492480"><ele>73.68</ele><time>2026-09-01T16:23:18Z</time></trkpt><trkpt lat="59.2550207488" lon="30.6910043210"><ele>73.68</ele><time>2026-09-01T16:23:24Z</time></trkpt><trkpt lat="59.2549233511" lon="30.6909850426"><ele>74.16</ele><time>2026-09-01T16:23:35Z</time></trkpt><trkpt lat="59.2548676953" lon="30.6909792591"><ele>74.16</ele><time>2026-09-01T16:23:46Z</time></trkpt><trkpt lat="59.2548070103" lon="30.6910184026"><ele>74.16</ele><time>2026-09-01T16:23:58Z</time></trkpt><trkpt lat="59.2547376081" lon="30.6910474040"><ele>74.16</ele><time>2026-09-01T16:24:10Z</time></trkpt><trkpt lat="59.2546438146" lon="30.6910883076"><ele>74.64</ele><time>2026-09-01T16:24:22Z</time></trkpt><trkpt lat="59.2545977142" lon="30.6911190692"><ele>74.64</ele><time>2026-09-01T16:24:40Z</time></trkpt><trkpt lat="59.2545315810" lon="30.6911654212"><ele>74.64</ele><time>2026-09-01T16:24:52Z</time></trkpt><trkpt lat="59.2545251269" lon="30.6911699474"><ele>74.64</ele><time>2026-09-01T16:24:57Z</time></trkpt><trkpt lat="59.2544879951" lon="30.6911902316"><ele>74.16</ele><time>2026-09-01T16:25:07Z</time></trkpt><trkpt lat="59.2544523720" lon="30.6911769882"><ele>74.16</ele><time>2026-09-01T16:25:11Z</time></trkpt><trkpt lat="59.2543792818" lon="30.6911444664"><ele>74.16</ele><time>2026-09-01T16:25:20Z</time></trkpt><trkpt lat="59.2543764319" lon="30.6911304686"><ele>74.64</ele><time>2026-09-01T16:25:41Z</time></trkpt><trkpt lat="59.2543831374" lon="30.6911199912"><ele>74.64</ele><time>2026-09-01T16:25:44Z</time></trkpt><trkpt lat="59.2543836404" lon="30.6910674367"><ele>74.64</ele><time>2026-09-01T16:25:51Z</time></trkpt><trkpt lat="59.2543774378" lon="30.6909935921"><ele>74.64</ele><time>2026-09-01T16:26:00Z</time></trkpt><trkpt lat="59.2543538846" lon="30.6909064204"><ele>74.64</ele><time>2026-09-01T16:26:13Z</time></trkpt><trkpt lat="59.2543602549" lon="30.6908935122"><ele>74.64</ele><time>2026-09-01T16:26:22Z</time></trkpt><trkpt lat="59.2543632723" lon="30.6908692885"><ele>74.64</ele><time>2026-09-01T16:26:36Z</time></trkpt><trkpt lat="59.2543632723" lon="30.6908153929"><ele>74.64</ele><time>2026-09-01T16:26:39Z</time></trkpt><trkpt lat="59.2543886695" lon="30.6906589866"><ele>75.12</ele><time>2026-09-01T16:26:52Z</time></trkpt><trkpt lat="59.2543903459" lon="30.6906583998"><ele>75.12</ele><time>2026-09-01T16:27:07Z</time></trkpt><trkpt lat="59.2543984763" lon="30.6906779297"><ele>74.64</ele><time>2026-09-01T16:27:24Z</time></trkpt><trkpt lat="59.2543897592" lon="30.6906318292"><ele>74.64</ele><time>2026-09-01T16:27:39Z</time></trkpt><trkpt lat="59.2543901782" lon="30.6905952841"><ele>74.64</ele><time>2026-09-01T16:27:41Z</time></trkpt><trkpt lat="59.2544159107" lon="30.6903310865"><ele>74.64</ele><time>2026-09-01T16:27:53Z</time></trkpt><trkpt lat="59.2544451635" lon="30.6901308428"><ele>74.64</ele><time>2026-09-01T16:28:04Z</time></trkpt><trkpt lat="59.2544712313" lon="30.6899318565"><ele>74.16</ele><time>2026-09-01T16:28:14Z</time></trkpt><trkpt lat="59.2544741649" lon="30.6898623705"><ele>74.16</ele><time>2026-09-01T16:28:18Z</time></trkpt><trkpt lat="59.2544852290" lon="30.6898268312"><ele>74.16</ele><time>2026-09-01T16:28:20Z</time></trkpt><trkpt lat="59.2544838879" lon="30.6897746958"><ele>74.16</ele><time>2026-09-01T16:28:22Z</time></trkpt><trkpt lat="59.2545226123" lon="30.6896249950"><ele>74.16</ele><time>2026-09-01T16:28:32Z</time></trkpt><trkpt lat="59.2545448244" lon="30.6895048823"><ele>74.64</ele><time>2026-09-01T16:28:39Z</time></trkpt><trkpt lat="59.2545522843" lon="30.6893813331"><ele>74.64</ele><time>2026-09-01T16:28:45Z</time></trkpt><trkpt lat="59.2545749992" lon="30.6892676745"><ele>74.64</ele><time>2026-09-01T16:28:57Z</time></trkpt><trkpt lat="59.2546022404" lon="30.6891651638"><ele>74.64</ele><time>2026-09-01T16:29:07Z</time></trkpt><trkpt lat="59.2546236143" lon="30.6890476495"><ele>74.16</ele><time>2026-09-01T16:29:14Z</time></trkpt><trkpt lat="59.2546391208" lon="30.6889657583"><ele>74.16</ele><time>2026-09-01T16:29:18Z</time></trkpt><trkpt lat="59.2546627577" lon="30.6887427159"><ele>74.16</ele><time>2026-09-01T16:29:29Z</time></trkpt><trkpt lat="59.2546899151" lon="30.6886263750"><ele>74.16</ele><time>2026-09-01T16:29:39Z</time></trkpt><trkpt lat="59.2546943575" lon="30.6885278877"><ele>74.16</ele><time>2026-09-01T16:29:47Z</time></trkpt><trkpt lat="59.2546937708" lon="30.6885143928"><ele>74.16</ele><time>2026-09-01T16:29:48Z</time></trkpt><trkpt lat="59.2547157314" lon="30.6884032488"><ele>74.16</ele><time>2026-09-01T16:29:57Z</time></trkpt><trkpt lat="59.2547215987" lon="30.6884063501"><ele>74.16</ele><time>2026-09-01T16:29:58Z</time></trkpt><trkpt lat="59.2547661066" lon="30.6883608364"><ele>74.16</ele><time>2026-09-01T16:30:07Z</time></trkpt><trkpt lat="59.2548068427" lon="30.6881874986"><ele>73.68</ele><time>2026-09-01T16:30:17Z</time></trkpt><trkpt lat="59.2548116203" lon="30.6881360337"><ele>73.68</ele><time>2026-09-01T16:30:19Z</time></trkpt><trkpt lat="59.2548220139" lon="30.6881025061"><ele>73.68</ele><time>2026-09-01T16:30:21Z</time></trkpt><trkpt lat="59.2548266239" lon="30.6880374625"><ele>73.68</ele><time>2026-09-01T16:30:24Z</time></trkpt><trkpt lat="59.2548357602" lon="30.6879644562"><ele>73.68</ele><time>2026-09-01T16:30:28Z</time></trkpt><trkpt lat="59.2548469082" lon="30.6879323535"><ele>73.68</ele><time>2026-09-01T16:30:34Z</time></trkpt><trkpt lat="59.2548868898" lon="30.6879339460"><ele>73.68</ele><time>2026-09-01T16:30:44Z</time></trkpt><trkpt lat="59.2549095210" lon="30.6879657134"><ele>73.68</ele><time>2026-09-01T16:30:57Z</time></trkpt><trkpt lat="59.2549139634" lon="30.6879085489"><ele>73.68</ele><time>2026-09-01T16:31:14Z</time></trkpt><trkpt lat="59.2549073417" lon="30.6878676452"><ele>73.68</ele><time>2026-09-01T16:31:23Z</time></trkpt><trkpt lat="59.2549119517" lon="30.6878645439"><ele>73.68</ele><time>2026-09-01T16:31:27Z</time></trkpt><trkpt lat="59.2548832018" lon="30.6878118217"><ele>73.68</ele><time>2026-09-01T16:31:36Z</time></trkpt><trkpt lat="59.2549041566" lon="30.6877918728"><ele>73.68</ele><time>2026-09-01T16:31:47Z</time></trkpt><trkpt lat="59.2549098562" lon="30.6877467781"><ele>73.68</ele><time>2026-09-01T16:31:52Z</time></trkpt><trkpt lat="59.2549123708" lon="30.6876622047"><ele>73.68</ele><time>2026-09-01T16:32:01Z</time></trkpt><trkpt lat="59.2549231835" lon="30.6876644678"><ele>73.68</ele><time>2026-09-01T16:32:11Z</time></trkpt><trkpt lat="59.2549266201" lon="30.6876489613"><ele>73.68</ele><time>2026-09-01T16:32:23Z</time></trkpt><trkpt lat="59.2549596447" lon="30.6876339577"><ele>73.68</ele><time>2026-09-01T16:32:27Z</time></trkpt><trkpt lat="59.2549602315" lon="30.6875926349"><ele>73.68</ele><time>2026-09-01T16:32:36Z</time></trkpt><trkpt lat="59.2549679428" lon="30.6875752844"><ele>73.20</ele><time>2026-09-01T16:32:41Z</time></trkpt><trkpt lat="59.2549646739" lon="30.6874648947"><ele>73.20</ele><time>2026-09-01T16:32:49Z</time></trkpt><trkpt lat="59.2549634166" lon="30.6874617096"><ele>73.20</ele><time>2026-09-01T16:32:59Z</time></trkpt><trkpt lat="59.2549741454" lon="30.6874643918"><ele>73.20</ele><time>2026-09-01T16:33:11Z</time></trkpt><trkpt lat="59.2549769115" lon="30.6874496397"><ele>73.20</ele><time>2026-09-01T16:33:24Z</time></trkpt><trkpt lat="59.2549754865" lon="30.6874177884"><ele>73.20</ele><time>2026-09-01T16:33:31Z</time></trkpt><trkpt lat="59.2549832817" lon="30.6873349752"><ele>73.20</ele><time>2026-09-01T16:33:41Z</time></trkpt><trkpt lat="59.2550223414" lon="30.6872466300"><ele>73.20</ele><time>2026-09-01T16:33:50Z</time></trkpt><trkpt lat="59.2550375126" lon="30.6871359050"><ele>72.72</ele><time>2026-09-01T16:33:59Z</time></trkpt><trkpt lat="59.2550427932" lon="30.6871034671"><ele>72.72</ele><time>2026-09-01T16:34:01Z</time></trkpt><trkpt lat="59.2550537735" lon="30.6869826838"><ele>72.72</ele><time>2026-09-01T16:34:11Z</time></trkpt><trkpt lat="59.2550571263" lon="30.6869420316"><ele>72.72</ele><time>2026-09-01T16:34:17Z</time></trkpt><trkpt lat="59.2550531030" lon="30.6868284568"><ele>72.72</ele><time>2026-09-01T16:34:25Z</time></trkpt><trkpt lat="59.2550567072" lon="30.6868178118"><ele>72.72</ele><time>2026-09-01T16:34:26Z</time></trkpt><trkpt lat="59.2550729681" lon="30.6867849547"><ele>72.72</ele><time>2026-09-01T16:34:29Z</time></trkpt><trkpt lat="59.2550791707" lon="30.6866427138"><ele>72.72</ele><time>2026-09-01T16:34:39Z</time></trkpt><trkpt lat="59.2551069148" lon="30.6865547877"><ele>72.72</ele><time>2026-09-01T16:34:49Z</time></trkpt><trkpt lat="59.2551432084" lon="30.6864881516"><ele>72.72</ele><time>2026-09-01T16:34:57Z</time></trkpt><trkpt lat="59.2551642470" lon="30.6864135526"><ele>72.72</ele><time>2026-09-01T16:35:05Z</time></trkpt><trkpt lat="59.2551971041" lon="30.6863619201"><ele>71.76</ele><time>2026-09-01T16:35:15Z</time></trkpt><trkpt lat="59.2552010436" lon="30.6862573139"><ele>71.76</ele><time>2026-09-01T16:35:21Z</time></trkpt><trkpt lat="59.2552112695" lon="30.6860835571"><ele>71.76</ele><time>2026-09-01T16:35:31Z</time></trkpt><trkpt lat="59.2552444618" lon="30.6859665457"><ele>71.27</ele><time>2026-09-01T16:35:41Z</time></trkpt><trkpt lat="59.2552406900" lon="30.6858862471"><ele>71.27</ele><time>2026-09-01T16:35:51Z</time></trkpt><trkpt lat="59.2552463897" lon="30.6858237181"><ele>71.27</ele><time>2026-09-01T16:36:00Z</time></trkpt><trkpt lat="59.2552481499" lon="30.6857922021"><ele>71.27</ele><time>2026-09-01T16:36:04Z</time></trkpt><trkpt lat="59.2552018818" lon="30.6857385579"><ele>71.27</ele><time>2026-09-01T16:36:14Z</time></trkpt><trkpt lat="59.2551941704" lon="30.6857388094"><ele>71.27</ele><time>2026-09-01T16:36:19Z</time></trkpt><trkpt lat="59.2551780771" lon="30.6857237220"><ele>70.79</ele><time>2026-09-01T16:36:30Z</time></trkpt><trkpt lat="59.2551879678" lon="30.6857378036"><ele>70.79</ele><time>2026-09-01T16:36:46Z</time></trkpt><trkpt lat="59.2551868781" lon="30.6857316010"><ele>70.79</ele><time>2026-09-01T16:37:00Z</time></trkpt><trkpt lat="59.2552050669" lon="30.6857581716"><ele>70.79</ele><time>2026-09-01T16:37:27Z</time></trkpt><trkpt lat="59.2551957630" lon="30.6857684813"><ele>70.79</ele><time>2026-09-01T16:37:39Z</time></trkpt><trkpt lat="59.2552064918" lon="30.6857596803"><ele>70.79</ele><time>2026-09-01T16:38:04Z</time></trkpt><trkpt lat="59.2552109342" lon="30.6857607700"><ele>70.31</ele><time>2026-09-01T16:38:20Z</time></trkpt><trkpt lat="59.2552137002" lon="30.6857638713"><ele>70.31</ele><time>2026-09-01T16:38:35Z</time></trkpt><trkpt lat="59.2552212439" lon="30.6857617758"><ele>70.31</ele><time>2026-09-01T16:39:01Z</time></trkpt><trkpt lat="59.2552183941" lon="30.6857672241"><ele>70.31</ele><time>2026-09-01T16:39:26Z</time></trkpt><trkpt lat="59.2552174721" lon="30.6857661344"><ele>70.31</ele><time>2026-09-01T16:39:46Z</time></trkpt><trkpt lat="59.2552200705" lon="30.6857589260"><ele>69.83</ele><time>2026-09-01T16:40:11Z</time></trkpt><trkpt lat="59.2552258540" lon="30.6857621949"><ele>69.83</ele><time>2026-09-01T16:40:35Z</time></trkpt><trkpt lat="59.2552256864" lon="30.6857691519"><ele>69.83</ele><time>2026-09-01T16:41:03Z</time></trkpt><trkpt lat="59.2552246805" lon="30.6857825629"><ele>68.87</ele><time>2026-09-01T16:41:25Z</time></trkpt><trkpt lat="59.2552111857" lon="30.6857852452"><ele>68.87</ele><time>2026-09-01T16:41:28Z</time></trkpt><trkpt lat="59.2551333178" lon="30.6858107261"><ele>68.87</ele><time>2026-09-01T16:41:37Z</time></trkpt><trkpt lat="59.2550515942" lon="30.6858513784"><ele>68.87</ele><time>2026-09-01T16:41:46Z</time></trkpt><trkpt lat="59.2549754865" lon="30.6859298330"><ele>68.87</ele><time>2026-09-01T16:41:53Z</time></trkpt><trkpt lat="59.2549390253" lon="30.6859592535"><ele>68.87</ele><time>2026-09-01T16:41:58Z</time></trkpt><trkpt lat="59.2549217585" lon="30.6859865785"><ele>68.87</ele><time>2026-09-01T16:42:01Z</time></trkpt><trkpt lat="59.2548930086" lon="30.6860100478"><ele>68.87</ele><time>2026-09-01T16:42:05Z</time></trkpt><trkpt lat="59.2548788432" lon="30.6860412285"><ele>68.87</ele><time>2026-09-01T16:42:07Z</time></trkpt><trkpt lat="59.2548572179" lon="30.6860543881"><ele>68.87</ele><time>2026-09-01T16:42:09Z</time></trkpt><trkpt lat="59.2548164818" lon="30.6861016620"><ele>68.87</ele><time>2026-09-01T16:42:18Z</time></trkpt><trkpt lat="59.2547827028" lon="30.6861857325"><ele>68.87</ele><time>2026-09-01T16:42:25Z</time></trkpt><trkpt lat="59.2547271308" lon="30.6862167455"><ele>68.87</ele><time>2026-09-01T16:42:35Z</time></trkpt><trkpt lat="59.2547293939" lon="30.6862381194"><ele>68.39</ele><time>2026-09-01T16:42:45Z</time></trkpt><trkpt lat="59.2547146417" lon="30.6862677913"><ele>68.39</ele><time>2026-09-01T16:42:56Z</time></trkpt><trkpt lat="59.2547126301" lon="30.6862828787"><ele>68.39</ele><time>2026-09-01T16:42:59Z</time></trkpt><trkpt lat="59.2546675354" lon="30.6863330863"><ele>68.39</ele><time>2026-09-01T16:43:08Z</time></trkpt><trkpt lat="59.2546416353" lon="30.6863975432"><ele>68.39</ele><time>2026-09-01T16:43:19Z</time></trkpt><trkpt lat="59.2546262965" lon="30.6864352617"><ele>68.39</ele><time>2026-09-01T16:43:27Z</time></trkpt><trkpt lat="59.2545610014" lon="30.6864649337"><ele>67.91</ele><time>2026-09-01T16:43:37Z</time></trkpt><trkpt lat="59.2545359395" lon="30.6864705496"><ele>67.91</ele><time>2026-09-01T16:43:41Z</time></trkpt><trkpt lat="59.2544928566" lon="30.6864686217"><ele>67.91</ele><time>2026-09-01T16:43:47Z</time></trkpt><trkpt lat="59.2544601671" lon="30.6865001377"><ele>67.91</ele><time>2026-09-01T16:43:58Z</time></trkpt><trkpt lat="59.2543846462" lon="30.6865330786"><ele>67.91</ele><time>2026-09-01T16:44:08Z</time></trkpt><trkpt lat="59.2543116398" lon="30.6865776703"><ele>67.91</ele><time>2026-09-01T16:44:21Z</time></trkpt><trkpt lat="59.2543059401" lon="30.6865906622"><ele>67.91</ele><time>2026-09-01T16:44:22Z</time></trkpt><trkpt lat="59.2542751785" lon="30.6866663508"><ele>67.91</ele><time>2026-09-01T16:44:33Z</time></trkpt><trkpt lat="59.2542253900" lon="30.6867370941"><ele>67.91</ele><time>2026-09-01T16:44:43Z</time></trkpt><trkpt lat="59.2541854922" lon="30.6867928337"><ele>67.43</ele><time>2026-09-01T16:44:52Z</time></trkpt><trkpt lat="59.2541811336" lon="30.6867926661"><ele>67.43</ele><time>2026-09-01T16:44:53Z</time></trkpt><trkpt lat="59.2541313451" lon="30.6868152972"><ele>67.43</ele><time>2026-09-01T16:44:57Z</time></trkpt><trkpt lat="59.2540393956" lon="30.6868057419"><ele>67.43</ele><time>2026-09-01T16:45:05Z</time></trkpt><trkpt lat="59.2540357914" lon="30.6868124474"><ele>67.43</ele><time>2026-09-01T16:45:06Z</time></trkpt><trkpt lat="59.2540117353" lon="30.6868536863"><ele>67.43</ele><time>2026-09-01T16:45:09Z</time></trkpt><trkpt lat="59.2539802194" lon="30.6868795026"><ele>67.43</ele><time>2026-09-01T16:45:12Z</time></trkpt><trkpt lat="59.2539519724" lon="30.6869150419"><ele>67.43</ele><time>2026-09-01T16:45:20Z</time></trkpt><trkpt lat="59.2539290059" lon="30.6869794987"><ele>67.43</ele><time>2026-09-01T16:45:29Z</time></trkpt><trkpt lat="59.2538873479" lon="30.6870119367"><ele>67.43</ele><time>2026-09-01T16:45:40Z</time></trkpt><trkpt lat="59.2538750265" lon="30.6870302930"><ele>67.43</ele><time>2026-09-01T16:45:43Z</time></trkpt><trkpt lat="59.2538025230" lon="30.6870903075"><ele>66.95</ele><time>2026-09-01T16:45:52Z</time></trkpt><trkpt lat="59.2537742760" lon="30.6871276069"><ele>66.95</ele><time>2026-09-01T16:46:02Z</time></trkpt><trkpt lat="59.2537255771" lon="30.6871660799"><ele>66.95</ele><time>2026-09-01T16:46:11Z</time></trkpt><trkpt lat="59.2537128367" lon="30.6871803291"><ele>66.95</ele><time>2026-09-01T16:46:15Z</time></trkpt><trkpt lat="59.2536630481" lon="30.6871934887"><ele>66.95</ele><time>2026-09-01T16:46:24Z</time></trkpt><trkpt lat="59.2536283471" lon="30.6872183830"><ele>66.95</ele><time>2026-09-01T16:46:30Z</time></trkpt><trkpt lat="59.2535690870" lon="30.6872545928"><ele>66.95</ele><time>2026-09-01T16:46:39Z</time></trkpt><trkpt lat="59.2535537481" lon="30.6872636452"><ele>66.95</ele><time>2026-09-01T16:46:47Z</time></trkpt><trkpt lat="59.2535159457" lon="30.6873054709"><ele>66.95</ele><time>2026-09-01T16:46:57Z</time></trkpt><trkpt lat="59.2534827534" lon="30.6873329636"><ele>66.95</ele><time>2026-09-01T16:47:06Z</time></trkpt><trkpt lat="59.2534525786" lon="30.6873017829"><ele>66.95</ele><time>2026-09-01T16:47:15Z</time></trkpt><trkpt lat="59.2534255050" lon="30.6873189658"><ele>66.95</ele><time>2026-09-01T16:47:25Z</time></trkpt><trkpt lat="59.2534065619" lon="30.6873120088"><ele>66.95</ele><time>2026-09-01T16:47:34Z</time></trkpt><trkpt lat="59.2533404287" lon="30.6873804051"><ele>66.95</ele><time>2026-09-01T16:47:40Z</time></trkpt><trkpt lat="59.2532936577" lon="30.6873872783"><ele>66.95</ele><time>2026-09-01T16:47:50Z</time></trkpt><trkpt lat="59.2532443721" lon="30.6874453649"><ele>66.47</ele><time>2026-09-01T16:47:59Z</time></trkpt><trkpt lat="59.2531982716" lon="30.6874942314"><ele>66.47</ele><time>2026-09-01T16:48:09Z</time></trkpt><trkpt lat="59.2531962600" lon="30.6874977518"><ele>66.47</ele><time>2026-09-01T16:48:11Z</time></trkpt><trkpt lat="59.2531548534" lon="30.6875543296"><ele>66.47</ele><time>2026-09-01T16:48:16Z</time></trkpt><trkpt lat="59.2530872114" lon="30.6876145955"><ele>66.47</ele><time>2026-09-01T16:48:26Z</time></trkpt><trkpt lat="59.2530489061" lon="30.6876588520"><ele>66.47</ele><time>2026-09-01T16:48:36Z</time></trkpt><trkpt lat="59.2530119419" lon="30.6876772922"><ele>66.47</ele><time>2026-09-01T16:48:46Z</time></trkpt><trkpt lat="59.2529679369" lon="30.6877066288"><ele>66.47</ele><time>2026-09-01T16:48:55Z</time></trkpt><trkpt lat="59.2528892308" lon="30.6878046133"><ele>66.47</ele><time>2026-09-01T16:49:05Z</time></trkpt><trkpt lat="59.2528383527" lon="30.6878654659"><ele>66.47</ele><time>2026-09-01T16:49:14Z</time></trkpt><trkpt lat="59.2528229300" lon="30.6878504623"><ele>66.47</ele><time>2026-09-01T16:49:19Z</time></trkpt><trkpt lat="59.2527567968" lon="30.6879404839"><ele>65.99</ele><time>2026-09-01T16:49:29Z</time></trkpt><trkpt lat="59.2527091037" lon="30.6879751012"><ele>65.99</ele><time>2026-09-01T16:49:35Z</time></trkpt><trkpt lat="59.2526802700" lon="30.6879970618"><ele>65.99</ele><time>2026-09-01T16:49:39Z</time></trkpt><trkpt lat="59.2526488379" lon="30.6880365405"><ele>65.99</ele><time>2026-09-01T16:49:43Z</time></trkpt><trkpt lat="59.2526656017" lon="30.6881430745"><ele>65.99</ele><time>2026-09-01T16:49:52Z</time></trkpt><trkpt lat="59.2526786774" lon="30.6881149113"><ele>65.99</ele><time>2026-09-01T16:49:58Z</time></trkpt><trkpt lat="59.2526350915" lon="30.6881558988"><ele>65.99</ele><time>2026-09-01T16:50:07Z</time></trkpt><trkpt lat="59.2526197527" lon="30.6881946232"><ele>65.99</ele><time>2026-09-01T16:50:13Z</time></trkpt><trkpt lat="59.2525862250" lon="30.6882157456"><ele>65.99</ele><time>2026-09-01T16:50:19Z</time></trkpt><trkpt lat="59.2525276355" lon="30.6882124767"><ele>65.99</ele><time>2026-09-01T16:50:29Z</time></trkpt><trkpt lat="59.2525105365" lon="30.6882360298"><ele>65.99</ele><time>2026-09-01T16:50:34Z</time></trkpt><trkpt lat="59.2524751648" lon="30.6882649474"><ele>65.99</ele><time>2026-09-01T16:50:39Z</time></trkpt><trkpt lat="59.2524456605" lon="30.6883188430"><ele>65.99</ele><time>2026-09-01T16:50:44Z</time></trkpt><trkpt lat="59.2524130549" lon="30.6883224472"><ele>65.99</ele><time>2026-09-01T16:50:53Z</time></trkpt><trkpt lat="59.2523781024" lon="30.6883708946"><ele>65.99</ele><time>2026-09-01T16:50:59Z</time></trkpt><trkpt lat="59.2523353547" lon="30.6883740798"><ele>65.99</ele><time>2026-09-01T16:51:08Z</time></trkpt><trkpt lat="59.2523247935" lon="30.6883874070"><ele>65.99</ele><time>2026-09-01T16:51:12Z</time></trkpt><trkpt lat="59.2522979714" lon="30.6884166598"><ele>65.99</ele><time>2026-09-01T16:51:21Z</time></trkpt><trkpt lat="59.2522713169" lon="30.6884482596"><ele>65.99</ele><time>2026-09-01T16:51:26Z</time></trkpt><trkpt lat="59.2522388790" lon="30.6885250378"><ele>65.99</ele><time>2026-09-01T16:51:35Z</time></trkpt><trkpt lat="59.2522263061" lon="30.6885369401"><ele>65.99</ele><time>2026-09-01T16:51:40Z</time></trkpt><trkpt lat="59.2521802895" lon="30.6885913387"><ele>65.99</ele><time>2026-09-01T16:51:48Z</time></trkpt><trkpt lat="59.2521243822" lon="30.6885583140"><ele>65.99</ele><time>2026-09-01T16:51:57Z</time></trkpt><trkpt lat="59.2521024216" lon="30.6885817833"><ele>65.99</ele><time>2026-09-01T16:52:03Z</time></trkpt><trkpt lat="59.2520605121" lon="30.6886241119"><ele>65.99</ele><time>2026-09-01T16:52:12Z</time></trkpt><trkpt lat="59.2520369589" lon="30.6886524428"><ele>65.51</ele><time>2026-09-01T16:52:21Z</time></trkpt><trkpt lat="59.2520256434" lon="30.6886645127"><ele>65.51</ele><time>2026-09-01T16:52:33Z</time></trkpt><trkpt lat="59.2520002462" lon="30.6887392793"><ele>65.51</ele><time>2026-09-01T16:52:42Z</time></trkpt><trkpt lat="59.2519988213" lon="30.6887427997"><ele>65.51</ele><time>2026-09-01T16:52:49Z</time></trkpt><trkpt lat="59.2519904394" lon="30.6888021436"><ele>65.51</ele><time>2026-09-01T16:52:55Z</time></trkpt><trkpt lat="59.2519631982" lon="30.6888230145"><ele>65.03</ele><time>2026-09-01T16:52:59Z</time></trkpt><trkpt lat="59.2519361246" lon="30.6889021397"><ele>65.03</ele><time>2026-09-01T16:53:07Z</time></trkpt><trkpt lat="59.2519341130" lon="30.6889043190"><ele>65.03</ele><time>2026-09-01T16:53:08Z</time></trkpt><trkpt lat="59.2519238871" lon="30.6889316440"><ele>65.03</ele><time>2026-09-01T16:53:10Z</time></trkpt><trkpt lat="59.2518870905" lon="30.6889497489"><ele>65.03</ele><time>2026-09-01T16:53:16Z</time></trkpt><trkpt lat="59.2518268246" lon="30.6889468152"><ele>65.03</ele><time>2026-09-01T16:53:25Z</time></trkpt><trkpt lat="59.2517594341" lon="30.6889200769"><ele>65.03</ele><time>2026-09-01T16:53:39Z</time></trkpt><trkpt lat="59.2516786326" lon="30.6889347453"><ele>65.03</ele><time>2026-09-01T16:53:52Z</time></trkpt><trkpt lat="59.2516351305" lon="30.6889796723"><ele>65.03</ele><time>2026-09-01T16:53:58Z</time></trkpt><trkpt lat="59.2515324522" lon="30.6890699454"><ele>65.03</ele><time>2026-09-01T16:54:10Z</time></trkpt><trkpt lat="59.2514835019" lon="30.6891303789"><ele>65.03</ele><time>2026-09-01T16:54:20Z</time></trkpt><trkpt lat="59.2513814103" lon="30.6892239209"><ele>65.03</ele><time>2026-09-01T16:54:33Z</time></trkpt><trkpt lat="59.2513150256" lon="30.6892946642"><ele>65.03</ele><time>2026-09-01T16:54:41Z</time></trkpt><trkpt lat="59.2512501497" lon="30.6893956661"><ele>65.03</ele><time>2026-09-01T16:54:53Z</time></trkpt><trkpt lat="59.2511964217" lon="30.6894064788"><ele>65.03</ele><time>2026-09-01T16:54:59Z</time></trkpt><trkpt lat="59.2511234991" lon="30.6894444488"><ele>65.03</ele><time>2026-09-01T16:55:11Z</time></trkpt><trkpt lat="59.2510457989" lon="30.6895198021"><ele>64.55</ele><time>2026-09-01T16:55:23Z</time></trkpt><trkpt lat="59.2509829346" lon="30.6896420103"><ele>64.55</ele><time>2026-09-01T16:55:34Z</time></trkpt><trkpt lat="59.2509213276" lon="30.6897268351"><ele>64.55</ele><time>2026-09-01T16:55:46Z</time></trkpt><trkpt lat="59.2509191483" lon="30.6897644699"><ele>64.55</ele><time>2026-09-01T16:55:49Z</time></trkpt><trkpt lat="59.2508849502" lon="30.6898538209"><ele>64.55</ele><time>2026-09-01T16:56:02Z</time></trkpt><trkpt lat="59.2508632410" lon="30.6898664776"><ele>64.55</ele><time>2026-09-01T16:56:04Z</time></trkpt><trkpt lat="59.2507800087" lon="30.6898989994"><ele>64.55</ele><time>2026-09-01T16:56:16Z</time></trkpt><trkpt lat="59.2506921664" lon="30.6898758654"><ele>64.55</ele><time>2026-09-01T16:56:29Z</time></trkpt><trkpt lat="59.2506261170" lon="30.6899055373"><ele>64.55</ele><time>2026-09-01T16:56:41Z</time></trkpt><trkpt lat="59.2506005522" lon="30.6899095606"><ele>64.55</ele><time>2026-09-01T16:56:45Z</time></trkpt><trkpt lat="59.2505827826" lon="30.6899221335"><ele>64.55</ele><time>2026-09-01T16:56:47Z</time></trkpt><trkpt lat="59.2505290546" lon="30.6899492070"><ele>64.55</ele><time>2026-09-01T16:56:55Z</time></trkpt><trkpt lat="59.2504942697" lon="30.6899901945"><ele>64.55</ele><time>2026-09-01T16:57:03Z</time></trkpt><trkpt lat="59.2504290584" lon="30.6900905259"><ele>64.55</ele><time>2026-09-01T16:57:16Z</time></trkpt><trkpt lat="59.2503734864" lon="30.6901192758"><ele>64.07</ele><time>2026-09-01T16:57:28Z</time></trkpt><trkpt lat="59.2503507715" lon="30.6901582517"><ele>64.07</ele><time>2026-09-01T16:57:39Z</time></trkpt><trkpt lat="59.2503278889" lon="30.6901878398"><ele>64.07</ele><time>2026-09-01T16:57:46Z</time></trkpt><trkpt lat="59.2502099555" lon="30.6903001573"><ele>64.07</ele><time>2026-09-01T16:58:00Z</time></trkpt><trkpt lat="59.2501750868" lon="30.6903113890"><ele>64.07</ele><time>2026-09-01T16:58:12Z</time></trkpt><trkpt lat="59.2501598317" lon="30.6903170049"><ele>64.07</ele><time>2026-09-01T16:58:14Z</time></trkpt><trkpt lat="59.2500727437" lon="30.6903905142"><ele>64.07</ele><time>2026-09-01T16:58:26Z</time></trkpt><trkpt lat="59.2499931995" lon="30.6904262211"><ele>63.10</ele><time>2026-09-01T16:58:39Z</time></trkpt><trkpt lat="59.2499538045" lon="30.6904677954"><ele>63.10</ele><time>2026-09-01T16:58:52Z</time></trkpt><trkpt lat="59.2498915270" lon="30.6905504409"><ele>63.10</ele><time>2026-09-01T16:59:07Z</time></trkpt><trkpt lat="59.2498954665" lon="30.6905845553"><ele>63.10</ele><time>2026-09-01T16:59:20Z</time></trkpt><trkpt lat="59.2498925328" lon="30.6906224415"><ele>63.10</ele><time>2026-09-01T16:59:38Z</time></trkpt><trkpt lat="59.2498660460" lon="30.6906494312"><ele>63.10</ele><time>2026-09-01T16:59:47Z</time></trkpt><trkpt lat="59.2498314288" lon="30.6906860601"><ele>63.10</ele><time>2026-09-01T16:59:55Z</time></trkpt><trkpt lat="59.2498089653" lon="30.6907619163"><ele>62.62</ele><time>2026-09-01T17:00:09Z</time></trkpt><trkpt lat="59.2497978173" lon="30.6907935999"><ele>62.62</ele><time>2026-09-01T17:00:15Z</time></trkpt><trkpt lat="59.2497423291" lon="30.6908266246"><ele>62.62</ele><time>2026-09-01T17:00:25Z</time></trkpt><trkpt lat="59.2497027665" lon="30.6908435561"><ele>62.62</ele><time>2026-09-01T17:00:29Z</time></trkpt><trkpt lat="59.2496493738" lon="30.6908458192"><ele>62.62</ele><time>2026-09-01T17:00:33Z</time></trkpt><trkpt lat="59.2495321110" lon="30.6908654328"><ele>62.62</ele><time>2026-09-01T17:00:44Z</time></trkpt><trkpt lat="59.2495221365" lon="30.6908798497"><ele>62.62</ele><time>2026-09-01T17:00:49Z</time></trkpt><trkpt lat="59.2494815681" lon="30.6909248605"><ele>62.62</ele><time>2026-09-01T17:00:58Z</time></trkpt><trkpt lat="59.2494468670" lon="30.6909585558"><ele>62.62</ele><time>2026-09-01T17:01:06Z</time></trkpt><trkpt lat="59.2494361382" lon="30.6909651775"><ele>62.62</ele><time>2026-09-01T17:01:08Z</time></trkpt><trkpt lat="59.2494037841" lon="30.6910140440"><ele>62.62</ele><time>2026-09-01T17:01:15Z</time></trkpt><trkpt lat="59.2493417580" lon="30.6911073346"><ele>62.62</ele><time>2026-09-01T17:01:23Z</time></trkpt><trkpt lat="59.2492809892" lon="30.6911354139"><ele>62.14</ele><time>2026-09-01T17:01:31Z</time></trkpt><trkpt lat="59.2492700927" lon="30.6911365036"><ele>62.14</ele><time>2026-09-01T17:01:32Z</time></trkpt><trkpt lat="59.2492231540" lon="30.6911820173"><ele>62.14</ele><time>2026-09-01T17:01:37Z</time></trkpt><trkpt lat="59.2492027860" lon="30.6912109349"><ele>62.14</ele><time>2026-09-01T17:01:39Z</time></trkpt><trkpt lat="59.2491412628" lon="30.6912508328"><ele>62.14</ele><time>2026-09-01T17:01:45Z</time></trkpt><trkpt lat="59.2490968388" lon="30.6912565324"><ele>62.14</ele><time>2026-09-01T17:01:53Z</time></trkpt><trkpt lat="59.2490892950" lon="30.6912649143"><ele>62.14</ele><time>2026-09-01T17:01:56Z</time></trkpt><trkpt lat="59.2490369920" lon="30.6912609749"><ele>62.14</ele><time>2026-09-01T17:02:05Z</time></trkpt><trkpt lat="59.2490279395" lon="30.6912719551"><ele>62.14</ele><time>2026-09-01T17:02:14Z</time></trkpt><trkpt lat="59.2490265146" lon="30.6912835222"><ele>61.66</ele><time>2026-09-01T17:02:18Z</time></trkpt><trkpt lat="59.2489980161" lon="30.6912856176"><ele>61.66</ele><time>2026-09-01T17:02:27Z</time></trkpt><trkpt lat="59.2489819229" lon="30.6913026329"><ele>61.66</ele><time>2026-09-01T17:02:42Z</time></trkpt><trkpt lat="59.2489781510" lon="30.6912971009"><ele>61.66</ele><time>2026-09-01T17:02:54Z</time></trkpt></trkseg></trk></gpx>